[[{"header":{"parameterUnit":"m.s-1","parameterCategory":1,"la1":31.0,"la2":29.5877,"lo1":-88.7671,"lo2":-86.6584,"dy":0.0162,"dx":0.0185,"nx":115,"ny":88,"refTime":"2023-04-20T06:00:00:Z","depth":0,"parameterNumber":2,"parameterNumberName":"U-component_of_WINDS"},"data":[0.0,0.0,0.0,0.0,0.0,0.0,0.0,0.0,0.0,0.0,0.0,0.0,0.0,0.0,0.0,0.0,0.0,0.0,0.0,0.0,0.0,0.0,0.0,0.0,0.0,0.0,0.0,0.0,0.0,0.0,0.0,0.0,0.0,0.0,0.0,0.0,0.0,0.0,0.0,0.0,0.0,0.0,0.0,0.0,0.0,0.0,0.0,0.0,0.0,0.0,0.0,0.0,0.0,0.0,0.0,0.0,0.0,0.0,0.0,0.0,0.0,0.0,0.0,0.0,0.0,0.0,0.0,0.0,0.0,0.0,0.0,0.0,0.0,0.0,0.0,0.0,0.0,0.0,0.0,0.0,0.0,0.0,0.0,0.0,0.0,0.0,0.0,0.0,0.0,0.0,0.0,0.0,0.0,0.0,0.0,0.0,0.0,0.0,0.0,0.0,0.0,0.0,0.0,0.0,0.0,0.0,0.0,0.0,0.0,0.0,0.0,0.0,0.0,0.0,0.0,0.0,0.0,0.0,0.0,0.0,0.0,0.0,0.0,0.0,0.0,0.0,0.0,0.0,0.0,0.0,0.0,0.0,0.0,0.0,0.0,0.0,0.0,0.0,0.0,0.0,0.0,0.0,0.0,0.0,0.0,0.0,0.0,0.0,0.0,0.0,0.0,0.0,0.0,0.0,0.0,0.0,0.0,0.0,0.0,0.0,0.0,0.0,0.0,0.0,0.0,0.0,0.0,0.0,0.0,0.0,0.0,0.0,0.0,0.0,0.0,0.0,0.0,0.0,0.0,0.0,0.0,0.0,0.0,0.0,0.0,0.0,0.0,0.0,0.0,0.0,0.0,0.0,0.0,0.0,0.0,0.0,0.0,0.0,0.0,0.0,0.0,0.0,0.0,0.0,0.0,0.0,0.0,0.0,0.0,0.0,0.0,0.0,0.0,0.0,0.0,0.0,0.0,0.0,0.0,0.0,0.0,0.0,0.0,0.0,0.0,0.0,0.0,0.0,0.0,0.0,0.0,0.0,0.0,0.0,0.0,0.0,0.0,0.0,0.0,0.0,0.0,0.0,0.0,0.0,0.0,0.0,0.0,0.0,0.0,0.0,0.0,0.0,0.0,0.0,0.0,0.0,0.0,0.0,0.0,0.0,0.0,0.0,0.0,0.0,0.0,0.0,0.0,0.0,0.0,0.0,0.0,0.0,0.0,0.0,0.0,0.0,0.0,0.0,0.0,0.0,0.0,0.0,0.0,0.0,0.0,0.0,0.0,0.0,0.0,0.0,0.0,0.0,0.0,0.0,0.0,0.0,0.0,0.0,0.0,0.0,0.0,0.0,0.0,0.0,0.0,0.0,0.0,0.0,0.0,0.0,0.0,0.0,0.0,0.0,0.0,0.0,0.0,0.0,0.0,0.0,0.0,0.0,0.0,0.0,0.0,0.0,0.0,0.0,0.0,0.0,0.0,0.0,0.0,0.0,0.0,0.0,0.0,0.0,0.0,0.0,0.0,0.0,0.0,0.0,0.0,0.0,0.0,0.0,0.0,0.0,0.0,0.0,0.0,0.0,0.0,0.0,0.0,0.0,0.0,0.0,0.0,0.0,0.0,0.0,0.0,0.0,0.0,0.0,0.0,0.0,0.0,0.0,0.0,0.0,0.0,0.0,0.0,0.0,0.0,0.0,0.0,0.0,0.0,0.0,0.0,0.0,0.0,0.0,0.0,0.0,0.0,0.0,0.0,0.0,0.0,0.0,0.0,0.0,0.0,0.0,0.0,0.0,0.0,0.0,0.0,0.0,0.0,0.0,0.0,0.0,0.0,0.0,0.0,0.0,0.0,0.0,0.0,0.0,0.0,0.0,0.0,0.0,0.0,0.0,0.0,0.0,0.0,0.0,0.0,0.0,0.0,0.0,0.0,0.0,0.0,0.0,0.0,0.0,0.0,0.0,0.0,0.0,0.0,0.0,0.0,0.0,0.0,0.0,0.0,0.0,0.0,0.0,0.0,0.0,0.0,0.0,0.0,0.0,0.0,0.0,0.0,0.0,0.0,0.0,0.0,0.0,0.0,0.0,0.0,0.0,0.0,0.0,0.0,0.0,0.0,0.0,0.0,0.0,0.0,0.0,0.0,0.0,0.0,0.0,0.0,0.0,0.0,0.0,0.0,0.0,0.0,0.0,0.0,0.0,0.0,0.0,0.0,0.0,0.0,0.0,0.0,0.0,0.0,0.0,0.0,0.0,0.0,0.0,0.0,0.0,0.0,0.0,0.0,0.0,0.0,0.0,0.0,0.0,0.0,0.0,0.0,0.0,0.0,0.0,0.0,0.0,0.0,0.0,0.0,0.0,0.0,0.0,0.0,0.0,0.0,0.0,0.0,0.0,0.0,0.0,0.0,0.0,0.0,0.0,0.0,0.0,0.0,0.0,0.0,0.0,0.0,0.0,0.0,0.0,0.0,0.0,0.0,0.0,0.0,0.0,0.0,0.0,0.0,0.0,0.0,0.0,0.0,0.0,0.0,0.0,0.0,0.0,0.0,0.0,0.0,0.0,0.0,0.0,0.0,0.0,0.0,0.0,0.0,0.0,0.0,0.0,0.0,0.0,0.0,0.0,0.0,0.0,0.0,0.0,0.0,0.0,0.0,0.0,0.0,0.0,0.0,0.0,0.0,0.0,0.0,0.0,0.0,0.0,0.0,0.0,0.0,0.0,0.0,0.0,0.0,0.0,0.0,0.0,0.0,0.0,0.0,0.0,0.0,0.0,0.0,0.0,0.0,0.0,0.0,0.0,0.0,0.0,0.0,0.0,0.0,0.0,0.0,0.0,0.0,0.0,0.0,0.0,0.0,0.0,0.0,0.0,0.0,0.0,0.0,0.0,0.0,0.0,0.0,0.0,0.0,0.0,0.0,0.0,0.0,0.0,0.0,0.0,0.0,0.0,0.0,0.0,0.0,0.0,0.0,0.0,0.0,0.0,0.0,0.0,0.0,0.0,0.0,0.0,0.0,0.0,0.0,0.0,0.0,0.0,0.0,0.0,0.0,0.0,0.0,0.0,0.0,0.0,0.0,0.0,0.0,0.0,0.0,0.0,0.0,0.0,0.0,0.0,0.0,0.0,0.0,0.0,0.0,0.0,0.0,0.0,0.0,0.0,0.0,0.0,0.0,0.0,0.0,0.0,0.0,0.0,0.0,0.0,0.0,0.0,0.0,0.0,0.0,0.0,0.0,0.0,0.0,0.0,0.0,0.0,0.0,0.0,0.0,0.0,0.0,0.0,0.0,0.0,0.0,0.0,0.0,0.0,0.0,0.0,0.0,0.0,0.0,0.0,0.0,0.0,0.0,0.0,0.0,0.0,0.0,0.0,0.0,0.0,0.0,0.0,0.0,0.0,0.0,0.0,0.0,0.0,0.0,0.0,0.0,0.0,0.0,0.0,0.0,0.0,0.0,0.0,0.0,0.0,0.0,0.0,0.0,0.0,0.0,0.0,0.0,0.0,0.0,0.0,0.0,0.0,0.0,0.0,0.0,0.0,0.0,0.0,0.0,0.0,0.0,0.0,0.0,0.0,0.0,0.0,0.0,0.0,0.0,0.0,0.0,0.0,0.0,0.0,0.0,0.0,0.0,0.0,0.0,0.0,0.0,0.0,0.0,0.0,0.0,0.0,0.0,0.0,0.0,0.0,0.0,0.0,0.0,0.0,0.0,0.0,0.0,0.0,0.0,0.0,0.0,0.0,0.0,0.0,0.0,0.0,0.0,0.0,0.0,0.0,0.0,0.0,0.0,0.0,0.0,0.0,0.0,0.0,0.0,0.0,0.0,0.0,0.0,0.0,0.0,0.0,0.0,0.0,0.0,0.0,0.0,0.0,0.0,0.0,0.0,0.0,0.0,0.0,0.0,0.0,0.0,0.0,0.0,0.0,0.0,0.0,0.0,0.0,0.0,0.0,0.0,0.0,0.0,0.0,0.0,0.0,0.0,0.0,0.0,0.0,0.0,0.0,0.0,0.0,0.0,0.0,0.0,0.0,0.0,0.0,0.0,0.0,0.0,0.0,0.0,0.0,0.0,0.0,0.0,0.0,0.0,0.0,0.0,0.0,0.0,0.0,0.0,0.0,0.0,0.0,0.0,0.0,0.0,0.0,0.0,0.0,0.0,0.0,0.0,0.0,0.0,0.0,0.0,0.0,0.0,0.0,0.0,0.0,0.0,0.0,0.0,0.0,0.0,0.0,0.0,0.0,0.0,0.0,0.0,0.0,0.0,0.0,0.0,0.0,2.521,0.0,0.0,0.0,0.0,0.0,0.0,0.0,0.0,0.0,0.0,0.0,0.0,0.0,0.0,0.0,0.0,0.0,0.0,0.0,0.0,0.0,0.0,0.0,0.0,0.0,0.0,0.0,0.0,0.0,0.0,0.0,0.0,0.0,0.0,0.0,0.0,0.0,0.0,0.0,0.0,0.0,0.0,0.0,0.0,0.0,0.0,0.0,0.0,0.0,0.0,0.0,0.0,0.0,0.0,0.0,0.0,0.0,0.0,0.0,0.0,0.0,0.0,0.0,0.0,0.0,0.0,0.0,0.0,0.0,0.0,0.0,0.0,0.0,0.0,0.0,0.0,0.0,0.0,0.0,0.0,0.0,0.0,0.0,0.0,0.0,0.0,0.0,0.0,0.0,0.0,0.0,0.0,0.0,0.0,0.0,0.0,0.0,0.0,0.0,0.0,0.0,0.0,0.0,0.0,0.0,0.0,0.0,0.0,0.0,0.0,2.5144,2.5156,2.5137,2.5168,2.521,0.0,0.0,0.0,0.0,0.0,0.0,0.0,0.0,0.0,0.0,0.0,0.0,0.0,0.0,0.0,0.0,0.0,0.0,0.0,0.0,0.0,0.0,0.0,0.0,0.0,0.0,0.0,0.0,0.0,0.0,0.0,0.0,0.0,0.0,0.0,0.0,0.0,0.0,0.0,0.0,0.0,0.0,0.0,0.0,0.0,0.0,0.0,0.0,0.0,0.0,0.0,0.0,0.0,0.0,0.0,0.0,0.0,0.0,0.0,0.0,0.0,0.0,0.0,0.0,0.0,0.0,0.0,0.0,0.0,0.0,0.0,0.0,0.0,0.0,0.0,0.0,0.0,0.0,0.0,0.0,0.0,0.0,0.0,0.0,0.0,0.0,0.0,0.0,0.0,0.0,0.0,0.0,0.0,0.0,0.0,0.0,0.0,0.0,0.0,0.0,0.0,0.0,0.0,0.0,0.0,0.0,0.0,0.0,0.0,0.0,0.0,0.0,2.5088,2.5144,2.521,0.0,0.0,0.0,0.0,0.0,0.0,0.0,0.0,0.0,0.0,0.0,0.0,0.0,0.0,0.0,0.0,0.0,0.0,0.0,0.0,0.0,0.0,0.0,0.0,0.0,0.0,0.0,0.0,0.0,0.0,0.0,0.0,0.0,0.0,0.0,0.0,0.0,0.0,0.0,0.0,0.0,0.0,0.0,0.0,0.0,0.0,0.0,0.0,0.0,0.0,0.0,0.0,0.0,0.0,0.0,0.0,0.0,0.0,0.0,0.0,0.0,0.0,0.0,0.0,0.0,0.0,0.0,0.0,0.0,0.0,0.0,0.0,0.0,0.0,0.0,0.0,0.0,0.0,0.0,0.0,0.0,0.0,0.0,0.0,0.0,0.0,0.0,0.0,0.0,0.0,0.0,0.0,0.0,0.0,0.0,0.0,0.0,0.0,0.0,0.0,0.0,0.0,0.0,0.0,0.0,0.0,0.0,0.0,0.0,0.0,2.4993,2.5006,2.507,0.0,2.518,0.0,0.0,0.0,0.0,0.0,0.0,0.0,0.0,0.0,0.0,0.0,0.0,0.0,0.0,0.0,0.0,0.0,0.0,0.0,0.0,0.0,0.0,0.0,0.0,0.0,0.0,0.0,0.0,0.0,0.0,0.0,0.0,0.0,0.0,0.0,0.0,0.0,0.0,0.0,0.0,0.0,0.0,0.0,0.0,0.0,0.0,0.0,0.0,0.0,0.0,0.0,0.0,0.0,0.0,0.0,0.0,0.0,0.0,0.0,0.0,0.0,0.0,0.0,0.0,0.0,0.0,0.0,0.0,0.0,0.0,0.0,0.0,0.0,0.0,0.0,0.0,0.0,0.0,0.0,0.0,0.0,0.0,0.0,0.0,0.0,0.0,0.0,0.0,0.0,0.0,0.0,0.0,0.0,0.0,0.0,0.0,0.0,0.0,0.0,0.0,0.0,0.0,0.0,0.0,0.0,0.0,0.0,0.0,0.0,0.0,2.4842,2.4884,2.5012,2.5126,0.0,0.0,0.0,0.0,0.0,0.0,0.0,0.0,0.0,0.0,0.0,0.0,0.0,0.0,0.0,0.0,0.0,0.0,0.0,0.0,0.0,0.0,0.0,0.0,0.0,0.0,0.0,0.0,0.0,0.0,0.0,0.0,0.0,0.0,0.0,0.0,0.0,0.0,0.0,0.0,0.0,0.0,0.0,0.0,0.0,0.0,0.0,0.0,0.0,0.0,0.0,0.0,0.0,0.0,0.0,0.0,0.0,0.0,0.0,0.0,0.0,0.0,0.0,0.0,0.0,0.0,0.0,0.0,0.0,0.0,0.0,0.0,0.0,0.0,0.0,0.0,0.0,0.0,0.0,0.0,0.0,0.0,0.0,0.0,0.0,0.0,0.0,0.0,0.0,0.0,0.0,0.0,0.0,0.0,0.0,0.0,0.0,0.0,0.0,0.0,0.0,0.0,0.0,0.0,0.0,0.0,0.0,0.0,0.0,0.0,2.5271,2.5305,2.5137,2.5091,2.5057,2.5076,0.0,0.0,0.0,0.0,0.0,0.0,0.0,0.0,0.0,0.0,0.0,0.0,0.0,0.0,0.0,0.0,0.0,0.0,0.0,0.0,0.0,0.0,0.0,0.0,0.0,0.0,0.0,0.0,0.0,0.0,0.0,0.0,0.0,0.0,0.0,0.0,0.0,0.0,0.0,0.0,0.0,0.0,0.0,0.0,0.0,0.0,0.0,0.0,0.0,0.0,0.0,0.0,0.0,0.0,0.0,0.0,0.0,0.0,0.0,0.0,0.0,0.0,0.0,0.0,0.0,0.0,0.0,0.0,0.0,0.0,0.0,0.0,0.0,0.0,0.0,0.0,0.0,0.0,0.0,0.0,0.0,0.0,0.0,0.0,0.0,0.0,0.0,0.0,0.0,0.0,0.0,0.0,0.0,0.0,0.0,0.0,0.0,0.0,0.0,0.0,0.0,0.0,0.0,0.0,0.0,0.0,0.0,0.0,2.5949,2.6573,2.6628,2.5922,2.5276,2.4945,0.0,0.0,0.0,0.0,0.0,0.0,0.0,0.0,0.0,0.0,0.0,0.0,0.0,0.0,0.0,0.0,0.0,0.0,0.0,0.0,0.0,0.0,0.0,0.0,0.0,0.0,0.0,0.0,0.0,0.0,0.0,0.0,0.0,0.0,0.0,0.0,0.0,0.0,0.0,0.0,0.0,0.0,0.0,0.0,0.0,0.0,0.0,0.0,0.0,0.0,0.0,0.0,0.0,0.0,0.0,0.0,0.0,0.0,0.0,0.0,0.0,0.0,0.0,0.0,0.0,0.0,0.0,0.0,0.0,0.0,0.0,0.0,0.0,0.0,0.0,0.0,0.0,0.0,0.0,0.0,0.0,0.0,0.0,0.0,0.0,0.0,0.0,0.0,0.0,0.0,0.0,0.0,0.0,0.0,0.0,0.0,0.0,0.0,0.0,0.0,0.0,0.0,0.0,0.0,0.0,0.0,0.0,0.0,0.0,2.6544,2.6805,2.6599,2.5831,2.5662,2.5408,0.0,0.0,0.0,0.0,0.0,0.0,0.0,0.0,0.0,0.0,0.0,0.0,0.0,0.0,0.0,0.0,0.0,0.0,0.0,0.0,0.0,0.0,0.0,0.0,0.0,0.0,0.0,0.0,0.0,0.0,0.0,0.0,0.0,0.0,0.0,0.0,0.0,0.0,0.0,0.0,0.0,0.0,0.0,0.0,0.0,0.0,0.0,0.0,0.0,0.0,0.0,0.0,0.0,0.0,0.0,0.0,0.0,0.0,0.0,0.0,0.0,0.0,0.0,0.0,0.0,0.0,0.0,0.0,0.0,0.0,0.0,0.0,0.0,0.0,0.0,0.0,0.0,0.0,0.0,0.0,0.0,0.0,0.0,0.0,0.0,0.0,0.0,0.0,0.0,0.0,0.0,0.0,0.0,0.0,0.0,0.0,0.0,0.0,0.0,0.0,0.0,0.0,0.0,0.0,0.0,0.0,0.0,0.0,0.0,2.7614,0.0,2.7007,2.6526,2.6353,2.5963,0.0,0.0,0.0,0.0,0.0,0.0,0.0,0.0,0.0,0.0,0.0,0.0,0.0,0.0,0.0,0.0,0.0,0.0,0.0,0.0,0.0,0.0,0.0,0.0,0.0,0.0,0.0,0.0,0.0,0.0,0.0,0.0,0.0,0.0,0.0,0.0,0.0,0.0,0.0,0.0,0.0,0.0,0.0,0.0,0.0,0.0,0.0,0.0,0.0,0.0,0.0,0.0,0.0,0.0,0.0,0.0,0.0,0.0,0.0,0.0,0.0,0.0,0.0,0.0,0.0,0.0,0.0,0.0,0.0,0.0,0.0,0.0,0.0,0.0,0.0,0.0,0.0,0.0,0.0,0.0,0.0,0.0,0.0,0.0,0.0,0.0,0.0,0.0,0.0,0.0,0.0,0.0,0.0,0.0,0.0,0.0,0.0,0.0,0.0,0.0,0.0,0.0,0.0,0.0,0.0,0.0,0.0,0.0,2.9181,2.9144,2.8402,2.8001,2.8066,2.7288,2.6617,0.0,0.0,0.0,0.0,0.0,0.0,0.0,0.0,0.0,0.0,0.0,0.0,0.0,0.0,0.0,0.0,0.0,0.0,0.0,0.0,0.0,0.0,0.0,0.0,0.0,0.0,0.0,0.0,0.0,0.0,0.0,0.0,0.0,0.0,0.0,0.0,0.0,0.0,0.0,0.0,0.0,0.0,0.0,0.0,0.0,0.0,0.0,0.0,0.0,0.0,0.0,0.0,0.0,0.0,0.0,0.0,0.0,0.0,0.0,0.0,0.0,0.0,0.0,0.0,0.0,0.0,0.0,0.0,0.0,0.0,0.0,0.0,0.0,0.0,0.0,0.0,0.0,0.0,0.0,0.0,0.0,0.0,0.0,0.0,0.0,0.0,0.0,0.0,0.0,0.0,0.0,0.0,0.0,0.0,0.0,0.0,0.0,0.0,0.0,0.0,0.0,0.0,0.0,0.0,0.0,0.0,0.0,0.0,0.0,2.9062,2.8868,2.8547,2.8036,2.7842,2.7419,0.0,0.0,0.0,0.0,0.0,0.0,0.0,0.0,0.0,0.0,0.0,0.0,0.0,0.0,0.0,0.0,0.0,0.0,0.0,0.0,0.0,0.0,0.0,0.0,0.0,0.0,0.0,0.0,0.0,0.0,0.0,0.0,0.0,0.0,0.0,0.0,0.0,0.0,0.0,0.0,0.0,0.0,0.0,0.0,0.0,0.0,0.0,0.0,0.0,0.0,0.0,0.0,0.0,0.0,0.0,0.0,0.0,0.0,0.0,0.0,0.0,0.0,0.0,0.0,0.0,0.0,0.0,0.0,0.0,0.0,0.0,0.0,0.0,0.0,0.0,0.0,0.0,0.0,0.0,0.0,0.0,0.0,0.0,0.0,0.0,0.0,0.0,0.0,0.0,0.0,0.0,0.0,0.0,0.0,0.0,0.0,0.0,0.0,0.0,0.0,0.0,0.0,0.0,0.0,0.0,0.0,0.0,0.0,0.0,2.9457,2.948,2.931,2.8876,2.8926,2.8513,2.7531,0.0,0.0,0.0,0.0,0.0,0.0,0.0,0.0,0.0,0.0,0.0,0.0,0.0,0.0,0.0,0.0,0.0,0.0,0.0,0.0,0.0,0.0,0.0,0.0,0.0,0.0,0.0,0.0,0.0,0.0,0.0,0.0,0.0,0.0,0.0,0.0,0.0,0.0,0.0,0.0,0.0,0.0,0.0,0.0,0.0,0.0,0.0,0.0,0.0,0.0,0.0,0.0,0.0,0.0,0.0,0.0,0.0,0.0,0.0,0.0,0.0,0.0,0.0,0.0,0.0,0.0,0.0,0.0,0.0,0.0,0.0,0.0,0.0,0.0,0.0,0.0,0.0,0.0,0.0,0.0,0.0,0.0,0.0,0.0,0.0,0.0,0.0,0.0,0.0,0.0,0.0,0.0,0.0,0.0,0.0,0.0,0.0,0.0,0.0,0.0,0.0,0.0,0.0,0.0,0.0,0.0,0.0,0.0,3.032,3.0338,3.0344,3.0341,3.0351,2.9761,0.0,0.0,0.0,0.0,0.0,0.0,0.0,0.0,0.0,0.0,0.0,0.0,0.0,0.0,0.0,0.0,0.0,0.0,0.0,0.0,0.0,0.0,0.0,0.0,0.0,0.0,0.0,0.0,0.0,0.0,0.0,0.0,0.0,0.0,0.0,0.0,0.0,0.0,0.0,0.0,0.0,0.0,0.0,0.0,0.0,0.0,0.0,0.0,0.0,0.0,0.0,0.0,0.0,0.0,0.0,0.0,0.0,0.0,0.0,0.0,0.0,0.0,0.0,0.0,0.0,0.0,0.0,0.0,0.0,0.0,0.0,0.0,0.0,0.0,0.0,0.0,0.0,0.0,0.0,0.0,0.0,0.0,0.0,0.0,0.0,0.0,0.0,0.0,0.0,0.0,0.0,0.0,0.0,0.0,0.0,0.0,0.0,0.0,0.0,0.0,0.0,0.0,0.0,0.0,0.0,0.0,0.0,0.0,0.0,3.1916,3.199,3.1721,3.1207,3.0641,3.0212,0.0,0.0,0.0,0.0,0.0,0.0,0.0,0.0,0.0,0.0,0.0,0.0,0.0,0.0,0.0,0.0,0.0,0.0,0.0,0.0,0.0,0.0,0.0,0.0,0.0,0.0,0.0,0.0,0.0,0.0,0.0,0.0,0.0,0.0,0.0,0.0,0.0,0.0,0.0,0.0,0.0,0.0,0.0,0.0,0.0,0.0,0.0,0.0,0.0,0.0,0.0,0.0,0.0,0.0,0.0,0.0,0.0,0.0,0.0,0.0,0.0,0.0,0.0,0.0,0.0,0.0,0.0,0.0,0.0,0.0,0.0,0.0,0.0,0.0,0.0,0.0,0.0,0.0,0.0,0.0,0.0,0.0,0.0,0.0,0.0,0.0,0.0,0.0,0.0,0.0,0.0,0.0,0.0,0.0,0.0,0.0,0.0,0.0,0.0,0.0,0.0,0.0,0.0,0.0,0.0,0.0,0.0,0.0,3.1476,3.3073,3.344,3.3403,3.2978,3.1569,3.0683,0.0,0.0,0.0,0.0,0.0,0.0,0.0,0.0,0.0,0.0,0.0,0.0,0.0,0.0,0.0,0.0,0.0,0.0,0.0,0.0,0.0,0.0,0.0,0.0,0.0,0.0,0.0,0.0,0.0,0.0,0.0,0.0,0.0,0.0,0.0,0.0,0.0,0.0,0.0,0.0,0.0,0.0,0.0,0.0,0.0,0.0,0.0,0.0,0.0,0.0,0.0,0.0,0.0,0.0,0.0,0.0,0.0,0.0,0.0,0.0,0.0,0.0,0.0,0.0,0.0,0.0,0.0,0.0,0.0,0.0,0.0,0.0,0.0,0.0,0.0,0.0,0.0,0.0,0.0,0.0,0.0,0.0,0.0,0.0,0.0,0.0,0.0,0.0,0.0,0.0,0.0,0.0,0.0,0.0,0.0,0.0,0.0,0.0,0.0,0.0,0.0,0.0,0.0,0.0,0.0,0.0,0.0,0.0,3.2412,3.4027,3.478,3.5119,3.5045,3.2941,3.1311,0.0,0.0,0.0,0.0,0.0,0.0,0.0,0.0,0.0,0.0,0.0,0.0,0.0,0.0,0.0,0.0,0.0,0.0,0.0,0.0,0.0,0.0,0.0,0.0,0.0,0.0,0.0,0.0,0.0,0.0,0.0,0.0,0.0,0.0,0.0,0.0,0.0,0.0,0.0,0.0,0.0,0.0,0.0,0.0,0.0,0.0,0.0,0.0,0.0,0.0,0.0,0.0,0.0,0.0,0.0,0.0,0.0,0.0,0.0,0.0,0.0,0.0,0.0,0.0,0.0,0.0,0.0,0.0,0.0,0.0,0.0,0.0,0.0,0.0,0.0,0.0,0.0,0.0,0.0,0.0,0.0,0.0,0.0,0.0,0.0,0.0,0.0,0.0,0.0,0.0,0.0,0.0,0.0,0.0,0.0,0.0,0.0,0.0,0.0,0.0,0.0,0.0,0.0,0.0,0.0,0.0,0.0,0.0,3.4046,3.5716,3.5936,3.5981,3.5868,3.4202,3.2684,0.0,0.0,0.0,0.0,0.0,0.0,0.0,0.0,0.0,0.0,0.0,0.0,0.0,0.0,0.0,0.0,0.0,0.0,0.0,0.0,0.0,0.0,0.0,0.0,0.0,0.0,0.0,0.0,0.0,0.0,0.0,0.0,0.0,0.0,0.0,0.0,0.0,0.0,0.0,0.0,0.0,0.0,0.0,0.0,0.0,0.0,0.0,0.0,3.1513,0.0,0.0,0.0,0.0,0.0,0.0,0.0,0.0,0.0,0.0,0.0,0.0,0.0,0.0,0.0,0.0,0.0,0.0,0.0,0.0,0.0,0.0,0.0,0.0,0.0,0.0,0.0,0.0,0.0,0.0,0.0,0.0,0.0,0.0,0.0,0.0,0.0,0.0,0.0,0.0,0.0,0.0,0.0,0.0,0.0,0.0,0.0,0.0,0.0,0.0,0.0,0.0,0.0,0.0,0.0,0.0,0.0,0.0,0.0,3.4714,3.6762,3.6853,3.6806,3.6644,3.5868,3.4339,0.0,0.0,0.0,0.0,0.0,0.0,0.0,0.0,0.0,0.0,0.0,0.0,0.0,0.0,0.0,0.0,0.0,0.0,0.0,0.0,0.0,0.0,0.0,0.0,0.0,0.0,0.0,0.0,0.0,0.0,0.0,0.0,0.0,0.0,0.0,0.0,0.0,0.0,0.0,0.0,0.0,0.0,0.0,0.0,0.0,0.0,0.0,0.0,0.0,0.0,0.0,0.0,0.0,0.0,0.0,0.0,0.0,0.0,0.0,0.0,0.0,0.0,0.0,0.0,0.0,0.0,0.0,0.0,0.0,0.0,0.0,0.0,0.0,0.0,0.0,0.0,0.0,0.0,0.0,0.0,0.0,0.0,0.0,0.0,0.0,0.0,0.0,0.0,0.0,0.0,0.0,0.0,0.0,0.0,0.0,0.0,0.0,0.0,0.0,0.0,0.0,0.0,0.0,0.0,0.0,0.0,0.0,3.3552,3.5198,3.7503,3.7631,3.7583,3.7442,3.7345,3.5768,3.2693,0.0,0.0,0.0,0.0,0.0,0.0,0.0,0.0,0.0,0.0,0.0,0.0,0.0,0.0,0.0,0.0,0.0,0.0,0.0,0.0,0.0,0.0,0.0,0.0,0.0,0.0,0.0,0.0,0.0,0.0,0.0,0.0,0.0,0.0,0.0,0.0,0.0,0.0,2.6745,2.7416,0.0,0.0,0.0,0.0,0.0,0.0,0.0,0.0,3.2262,0.0,0.0,0.0,0.0,0.0,0.0,0.0,0.0,0.0,0.0,0.0,0.0,0.0,0.0,0.0,0.0,0.0,0.0,0.0,0.0,0.0,0.0,0.0,0.0,0.0,0.0,0.0,0.0,0.0,0.0,0.0,0.0,0.0,0.0,0.0,0.0,0.0,0.0,0.0,0.0,0.0,0.0,0.0,0.0,0.0,0.0,0.0,0.0,0.0,0.0,0.0,0.0,0.0,0.0,0.0,0.0,3.3302,3.4775,3.6419,3.8209,3.8264,3.82,3.8122,3.753,3.5951,3.3415,0.0,0.0,0.0,0.0,0.0,0.0,0.0,0.0,0.0,0.0,0.0,0.0,0.0,0.0,0.0,0.0,0.0,0.0,0.0,0.0,0.0,0.0,0.0,0.0,0.0,0.0,0.0,0.0,0.0,0.0,0.0,0.0,0.0,0.0,0.0,0.0,0.0,0.0,0.0,2.8133,2.8262,0.0,0.0,0.0,0.0,0.0,0.0,0.0,0.0,3.4483,0.0,0.0,0.0,0.0,0.0,0.0,0.0,0.0,0.0,0.0,0.0,0.0,0.0,0.0,0.0,0.0,0.0,0.0,0.0,0.0,0.0,0.0,0.0,0.0,0.0,0.0,0.0,0.0,0.0,0.0,0.0,0.0,0.0,0.0,0.0,0.0,0.0,0.0,0.0,0.0,0.0,0.0,0.0,0.0,0.0,0.0,0.0,0.0,0.0,0.0,0.0,0.0,0.0,0.0,0.0,3.4091,3.569,3.7153,3.8346,3.8382,3.8368,3.8289,3.7558,3.5963,0.0,0.0,0.0,0.0,0.0,0.0,0.0,0.0,0.0,0.0,0.0,0.0,0.0,0.0,0.0,0.0,0.0,0.0,0.0,0.0,0.0,0.0,0.0,0.0,0.0,0.0,0.0,0.0,0.0,0.0,0.0,0.0,0.0,0.0,0.0,0.0,0.0,0.0,0.0,0.0,3.0515,3.1448,3.2666,0.0,0.0,0.0,0.0,0.0,0.0,3.4948,3.471,0.0,0.0,0.0,0.0,0.0,0.0,0.0,0.0,0.0,0.0,0.0,0.0,0.0,0.0,0.0,0.0,0.0,0.0,0.0,0.0,0.0,0.0,0.0,0.0,0.0,0.0,0.0,0.0,0.0,0.0,0.0,0.0,0.0,0.0,0.0,0.0,0.0,0.0,0.0,0.0,0.0,0.0,0.0,0.0,0.0,0.0,0.0,0.0,0.0,0.0,0.0,0.0,0.0,0.0,0.0,3.4661,3.6404,3.7725,3.8569,3.8769,3.8809,3.8728,3.7657,3.5991,0.0,0.0,0.0,0.0,0.0,0.0,0.0,0.0,0.0,0.0,0.0,0.0,0.0,0.0,0.0,0.0,0.0,0.0,0.0,0.0,0.0,0.0,0.0,0.0,0.0,0.0,0.0,0.0,0.0,0.0,0.0,0.0,0.0,0.0,0.0,0.0,0.0,0.0,0.0,0.0,0.0,3.4485,3.5431,3.417,0.0,0.0,0.0,0.0,3.5779,3.5875,0.0,0.0,0.0,0.0,0.0,0.0,0.0,0.0,0.0,0.0,0.0,0.0,0.0,0.0,0.0,0.0,0.0,0.0,0.0,0.0,0.0,0.0,0.0,0.0,0.0,0.0,0.0,0.0,0.0,0.0,0.0,0.0,0.0,0.0,0.0,0.0,0.0,0.0,0.0,0.0,0.0,0.0,0.0,0.0,0.0,0.0,0.0,0.0,0.0,0.0,0.0,0.0,0.0,0.0,0.0,0.0,3.455,3.6888,3.8479,3.9259,3.9929,4.0238,4.022,3.8153,3.6232,0.0,0.0,0.0,0.0,0.0,0.0,0.0,0.0,0.0,0.0,0.0,0.0,0.0,0.0,0.0,0.0,0.0,0.0,0.0,0.0,0.0,0.0,0.0,0.0,0.0,0.0,0.0,0.0,0.0,0.0,0.0,0.0,0.0,0.0,0.0,0.0,0.0,0.0,0.0,0.0,0.0,3.4808,3.6262,3.5122,3.4372,0.0,0.0,0.0,3.766,3.9054,0.0,0.0,0.0,0.0,0.0,0.0,0.0,0.0,0.0,0.0,0.0,0.0,0.0,0.0,0.0,0.0,0.0,0.0,0.0,0.0,0.0,0.0,0.0,0.0,0.0,0.0,0.0,0.0,0.0,0.0,0.0,0.0,0.0,0.0,0.0,0.0,0.0,0.0,0.0,0.0,0.0,0.0,0.0,0.0,0.0,0.0,0.0,0.0,0.0,0.0,0.0,0.0,0.0,0.0,0.0,3.402,3.58,3.7971,3.9428,3.9986,4.0347,4.051,4.051,3.8663,3.6906,0.0,0.0,0.0,0.0,0.0,0.0,0.0,0.0,0.0,0.0,0.0,0.0,0.0,0.0,0.0,0.0,0.0,0.0,0.0,0.0,0.0,0.0,0.0,0.0,0.0,0.0,0.0,0.0,0.0,0.0,0.0,0.0,0.0,0.0,0.0,0.0,0.0,0.0,0.0,0.0,0.0,0.0,3.7437,3.7755,0.0,0.0,0.0,3.851,3.8886,0.0,0.0,0.0,0.0,0.0,0.0,0.0,0.0,0.0,0.0,0.0,0.0,0.0,0.0,0.0,0.0,0.0,0.0,0.0,0.0,0.0,0.0,0.0,0.0,0.0,0.0,0.0,0.0,0.0,0.0,0.0,0.0,0.0,0.0,0.0,0.0,0.0,0.0,0.0,0.0,0.0,0.0,0.0,0.0,0.0,0.0,0.0,0.0,0.0,0.0,0.0,0.0,0.0,0.0,0.0,0.0,0.0,3.659,3.8768,4.0146,4.0599,4.0835,4.098,4.1071,3.9586,0.0,0.0,0.0,0.0,0.0,0.0,0.0,0.0,0.0,0.0,0.0,0.0,0.0,0.0,0.0,0.0,0.0,0.0,0.0,0.0,0.0,0.0,0.0,0.0,0.0,0.0,0.0,2.7822,0.0,0.0,0.0,0.0,0.0,0.0,0.0,0.0,0.0,0.0,0.0,0.0,0.0,0.0,3.8393,3.8786,3.9931,4.0893,0.0,0.0,4.0073,4.051,4.1481,4.1383,0.0,0.0,0.0,0.0,0.0,0.0,0.0,0.0,0.0,0.0,0.0,0.0,0.0,0.0,0.0,0.0,0.0,0.0,0.0,0.0,0.0,0.0,0.0,0.0,0.0,0.0,0.0,0.0,0.0,0.0,0.0,0.0,0.0,0.0,0.0,0.0,0.0,0.0,0.0,0.0,0.0,0.0,0.0,0.0,0.0,0.0,0.0,0.0,0.0,0.0,0.0,0.0,0.0,0.0,0.0,3.6033,3.8802,4.0482,4.0967,4.1703,4.2297,4.2701,4.118,3.9278,0.0,0.0,0.0,0.0,0.0,0.0,0.0,0.0,0.0,0.0,0.0,0.0,0.0,0.0,0.0,0.0,0.0,0.0,0.0,0.0,0.0,0.0,0.0,0.0,0.0,0.0,0.0,0.0,0.0,0.0,0.0,0.0,0.0,0.0,0.0,0.0,0.0,0.0,0.0,0.0,0.0,3.8937,4.0419,4.0776,4.1424,0.0,0.0,4.1383,4.2976,4.4579,4.4288,4.026,0.0,0.0,0.0,0.0,0.0,0.0,0.0,0.0,0.0,0.0,0.0,0.0,0.0,0.0,0.0,0.0,0.0,0.0,0.0,0.0,0.0,0.0,0.0,0.0,0.0,0.0,0.0,0.0,0.0,0.0,0.0,0.0,0.0,0.0,0.0,0.0,0.0,0.0,0.0,0.0,0.0,0.0,0.0,0.0,0.0,0.0,0.0,0.0,0.0,0.0,0.0,0.0,0.0,3.601,3.7316,3.9504,4.0839,4.1301,4.1601,4.199,4.2458,4.1399,4.0038,0.0,0.0,0.0,0.0,0.0,0.0,0.0,0.0,0.0,0.0,0.0,0.0,0.0,0.0,0.0,0.0,0.0,0.0,0.0,0.0,0.0,0.0,0.0,0.0,0.0,0.0,0.0,0.0,3.4595,3.5352,3.4575,0.0,0.0,0.0,0.0,0.0,0.0,0.0,0.0,0.0,0.0,3.9799,4.1442,4.2597,0.0,0.0,4.3712,4.3151,4.2753,4.3685,4.3384,4.0224,3.8541,0.0,0.0,0.0,0.0,0.0,0.0,0.0,0.0,0.0,0.0,0.0,0.0,0.0,0.0,0.0,0.0,0.0,0.0,0.0,0.0,0.0,0.0,0.0,0.0,0.0,0.0,0.0,0.0,0.0,0.0,0.0,0.0,0.0,0.0,0.0,0.0,0.0,0.0,0.0,0.0,0.0,0.0,0.0,0.0,0.0,0.0,0.0,0.0,0.0,0.0,0.0,0.0,3.6561,3.7936,3.9709,4.0784,4.1258,4.1276,4.1543,4.1973,4.144,4.0548,0.0,0.0,0.0,0.0,0.0,0.0,0.0,0.0,0.0,0.0,0.0,0.0,0.0,0.0,0.0,0.0,0.0,0.0,0.0,0.0,0.0,0.0,0.0,0.0,0.0,0.0,0.0,0.0,3.5818,3.6051,3.4323,0.0,0.0,0.0,0.0,0.0,0.0,0.0,0.0,0.0,0.0,4.0876,4.2043,4.3258,4.3947,4.3666,4.3422,4.2918,4.1956,4.2325,4.2121,4.0371,0.0,0.0,0.0,0.0,0.0,0.0,0.0,0.0,0.0,0.0,0.0,0.0,0.0,0.0,0.0,0.0,0.0,0.0,0.0,0.0,0.0,0.0,0.0,0.0,0.0,0.0,0.0,0.0,0.0,0.0,0.0,0.0,0.0,0.0,0.0,0.0,0.0,0.0,0.0,0.0,0.0,0.0,0.0,0.0,0.0,0.0,0.0,0.0,0.0,0.0,0.0,0.0,0.0,3.6821,3.743,3.9228,4.0353,4.0802,4.0802,4.1065,4.1481,4.1508,4.0727,3.914,0.0,0.0,0.0,0.0,0.0,0.0,0.0,0.0,0.0,0.0,0.0,0.0,0.0,0.0,0.0,0.0,0.0,0.0,0.0,0.0,0.0,0.0,0.0,0.0,0.0,0.0,3.4381,3.5294,3.5158,0.0,0.0,0.0,0.0,0.0,0.0,0.0,0.0,0.0,0.0,4.0516,4.212,4.2159,4.2218,4.1985,4.1218,4.0393,4.0102,4.0849,4.0946,4.0956,0.0,0.0,0.0,0.0,0.0,0.0,0.0,0.0,0.0,0.0,0.0,0.0,0.0,0.0,0.0,0.0,0.0,0.0,0.0,0.0,0.0,0.0,0.0,0.0,0.0,0.0,0.0,0.0,3.1024,0.0,0.0,0.0,0.0,0.0,0.0,0.0,0.0,0.0,0.0,0.0,3.6004,3.6004,0.0,0.0,0.0,0.0,0.0,0.0,0.0,0.0,0.0,0.0,0.0,0.0,3.693,3.8036,3.9435,4.0171,4.0353,4.0353,4.058,4.1019,4.1065,4.0398,3.9101,0.0,0.0,0.0,0.0,0.0,0.0,0.0,0.0,0.0,0.0,0.0,0.0,0.0,0.0,0.0,0.0,0.0,0.0,0.0,0.0,0.0,0.0,0.0,0.0,0.0,3.475,0.0,0.0,0.0,0.0,0.0,0.0,0.0,0.0,0.0,0.0,0.0,3.7331,3.9041,3.9507,4.0062,4.1189,4.0878,4.1024,0.0,0.0,0.0,0.0,0.0,0.0,0.0,0.0,0.0,0.0,0.0,0.0,0.0,0.0,3.5845,3.4445,3.5327,3.6372,3.667,0.0,0.0,0.0,0.0,0.0,0.0,0.0,0.0,0.0,0.0,0.0,0.0,0.0,0.0,0.0,0.0,3.2642,0.0,0.0,0.0,0.0,0.0,0.0,0.0,0.0,3.6275,3.696,3.7244,3.7227,3.7244,0.0,3.7119,3.6762,0.0,0.0,0.0,0.0,0.0,0.0,0.0,0.0,3.7094,3.8745,3.9914,4.0595,4.0832,4.0849,4.0985,4.1319,4.1481,4.1224,4.0422,3.9568,3.8192,0.0,0.0,0.0,0.0,0.0,0.0,0.0,0.0,0.0,0.0,0.0,0.0,0.0,0.0,0.0,0.0,0.0,0.0,0.0,0.0,0.0,0.0,0.0,3.6246,0.0,0.0,0.0,0.0,0.0,0.0,0.0,0.0,0.0,3.6207,3.7508,3.8751,3.9587,3.9975,4.0033,3.9625,0.0,0.0,0.0,0.0,0.0,0.0,0.0,3.8596,3.9179,3.9733,4.0295,4.0858,4.0015,3.9265,3.9274,0.0,0.0,3.8082,3.879,3.984,4.0171,4.021,4.0229,4.021,4.021,4.021,0.0,0.0,0.0,0.0,0.0,0.0,0.0,0.0,3.3618,3.3201,0.0,3.3371,0.0,0.0,0.0,0.0,0.0,0.0,0.0,0.0,3.8937,3.9714,3.9137,3.9086,3.9168,3.9134,3.8516,3.8333,3.8431,3.7275,0.0,0.0,0.0,0.0,0.0,0.0,3.735,3.9521,4.0646,4.1576,4.2236,4.2269,4.2269,4.2323,4.2791,4.3009,4.2907,4.125,4.0489,4.0846,3.7268,0.0,0.0,0.0,0.0,0.0,0.0,0.0,0.0,0.0,0.0,0.0,0.0,0.0,0.0,0.0,0.0,0.0,0.0,0.0,0.0,3.7152,0.0,0.0,0.0,0.0,0.0,0.0,0.0,0.0,0.0,0.0,3.7256,3.9315,4.0597,3.9858,0.0,0.0,0.0,0.0,3.9684,3.6653,3.5997,3.6027,3.6198,3.7489,3.9043,4.0645,0.0,0.0,4.3376,4.2108,4.1121,4.1082,4.2461,4.3054,4.1446,4.1816,4.2633,4.3419,4.3556,4.3653,4.3653,4.3469,4.3527,3.2762,0.0,0.0,0.0,0.0,3.3107,3.3716,3.4388,3.4716,3.4545,3.402,3.4192,0.0,0.0,0.0,0.0,0.0,0.0,3.5638,3.6383,3.7515,3.8204,3.8553,3.8537,3.8768,3.917,3.9506,3.9933,4.0408,4.0576,3.8914,3.5673,0.0,0.0,0.0,0.0,3.8615,4.0746,4.1612,4.2083,4.2286,4.2303,4.2303,4.2303,4.2445,4.2723,4.3061,4.2857,4.2458,4.1789,4.104,0.0,0.0,0.0,0.0,0.0,0.0,0.0,0.0,0.0,0.0,0.0,0.0,0.0,0.0,0.0,0.0,0.0,0.0,0.0,3.7822,3.8965,3.8461,0.0,0.0,0.0,0.0,0.0,0.0,0.0,0.0,0.0,4.0616,4.0305,4.0169,0.0,0.0,3.9431,3.8188,3.8663,3.9401,4.0228,0.0,0.0,0.0,4.0674,4.0519,4.1524,4.3097,4.4434,4.5118,4.484,4.454,4.452,4.4948,4.5113,4.4735,4.4754,4.5007,4.5259,4.5318,4.5318,4.5298,4.5318,4.5318,3.3064,3.2535,3.2821,3.3138,3.3545,3.3986,3.4539,3.5155,3.5508,3.5294,3.4816,3.5002,3.4475,3.3479,3.4093,0.0,0.0,0.0,3.6646,3.7447,3.801,3.8486,3.8872,3.8947,3.9178,3.9535,4.0074,4.0456,4.0823,4.1548,4.0505,3.7807,0.0,0.0,3.7962,3.8554,3.9831,4.1749,4.2424,4.2895,4.3183,4.32,4.32,4.32,4.3382,4.356,4.3682,4.4063,4.3944,4.3236,4.3143,4.1915,0.0,0.0,0.0,0.0,0.0,0.0,0.0,0.0,0.0,0.0,0.0,3.3545,3.3504,0.0,0.0,0.0,3.7943,3.9289,4.0514,4.0404,0.0,0.0,0.0,0.0,0.0,0.0,0.0,3.7314,3.9159,4.0869,4.2015,4.1607,4.1257,4.1393,4.114,4.0558,3.9528,0.0,4.1723,4.2597,4.182,4.1694,4.3228,4.3199,4.3255,4.4291,4.5363,4.6195,4.6684,4.6571,4.6364,4.6326,4.6093,4.5873,4.5873,4.6125,4.6266,4.6044,4.5977,4.5977,4.5977,4.5977,4.6074,3.3157,3.3269,3.3701,3.4241,3.4846,3.4923,3.5271,3.5894,3.591,3.567,3.5199,3.5776,3.5521,3.471,3.5729,0.0,0.0,3.8086,3.8714,3.9408,3.9532,3.9672,3.9672,3.9779,3.9841,3.9902,4.0148,4.0317,4.0437,4.1074,4.1064,4.042,4.0366,4.0103,3.9586,4.0118,4.1138,4.2632,4.322,4.3859,4.457,4.457,4.457,4.4553,4.5018,4.5072,4.4686,4.487,4.5014,4.504,4.4148,4.3512,4.3043,0.0,0.0,0.0,0.0,0.0,0.0,0.0,0.0,0.0,0.0,0.0,0.0,0.0,0.0,0.0,4.0651,0.0,4.394,4.145,0.0,0.0,0.0,3.7618,3.8461,3.8712,3.9082,3.982,0.0,0.0,0.0,0.0,4.3549,4.2792,4.3976,4.4035,4.1626,4.3986,4.5551,4.4093,4.3906,4.3915,4.4277,4.5229,4.6402,4.7596,4.8303,4.8153,4.7951,4.7467,4.7053,4.7012,4.6414,4.5966,4.5947,4.6584,4.6843,4.6348,4.6216,4.6227,4.6274,4.6294,4.6535,3.3014,3.3134,3.3804,3.3908,3.369,3.4228,3.4648,3.4942,3.5394,3.5864,3.6325,3.6375,3.646,3.6691,3.6959,3.7273,3.7557,3.776,3.8045,3.8315,3.8315,3.8381,3.8381,3.8381,3.8741,3.933,3.985,4.0404,4.1136,4.1759,4.2061,4.1943,4.1961,4.1823,4.1594,4.173,4.256,4.4067,4.4253,4.4384,4.457,4.457,4.457,4.457,4.472,4.4906,4.5125,4.5182,4.5588,4.6376,4.6176,4.5681,4.4726,4.2448,0.0,0.0,0.0,0.0,0.0,0.0,0.0,0.0,0.0,3.4743,3.5656,0.0,3.8196,0.0,4.1865,4.3229,4.3063,4.2372,0.0,0.0,4.0009,3.9867,4.0004,4.1361,4.2112,4.1665,4.3297,4.4637,4.5045,4.5861,4.6579,4.6968,4.6268,4.5472,4.4909,4.5997,4.6871,4.656,4.6918,4.7373,4.7365,4.759,4.7926,4.8166,4.8263,4.8224,4.8176,4.8022,4.7902,4.7882,4.7767,4.7612,4.7557,4.7786,4.7824,4.7697,4.7674,4.7674,4.7654,4.7635,4.7747,3.2884,3.2884,3.3314,3.3261,3.3036,3.41,3.4877,3.5321,3.5267,3.5692,3.6443,3.6389,3.6581,3.6921,3.7649,3.7992,3.8007,3.8446,3.8596,3.8581,3.8581,3.8581,3.8581,3.865,3.8895,3.9354,3.9807,4.0262,4.0776,4.1401,4.182,4.1965,4.2269,4.2423,4.241,4.236,4.3096,4.4553,4.457,4.457,4.457,4.457,4.4418,4.4079,4.3741,4.3549,4.3476,4.3441,4.3715,4.4265,4.4645,4.4575,4.3962,4.2152,4.0384,0.0,0.0,0.0,0.0,0.0,0.0,0.0,0.0,0.0,0.0,0.0,3.9958,0.0,4.2598,0.0,4.3147,4.2787,4.2371,4.1819,4.1984,4.2406,4.3085,4.4269,4.4963,4.4847,4.6169,4.7129,4.714,4.7878,4.8588,4.9124,4.8677,4.8172,4.79,4.8463,4.9046,4.9066,4.9454,4.9765,4.9765,4.964,4.949,4.9343,4.9274,4.9201,4.9125,4.8817,4.8587,4.8567,4.8279,4.801,4.803,4.8375,4.8587,4.8644,4.8894,4.8894,4.833,4.8193,4.827,3.2816,3.2803,3.2803,3.2842,3.3067,3.4326,3.5208,3.5885,3.5201,3.5404,3.6158,3.6389,3.6432,3.6548,3.8117,3.8667,3.8556,3.9354,3.9553,3.9424,3.9424,3.9424,3.9409,3.9553,3.9681,3.9696,3.9854,3.994,3.9996,4.0562,4.094,4.1209,4.1771,4.2141,4.2332,4.2269,4.297,4.444,4.457,4.4519,4.4434,4.4418,4.4062,4.3284,4.254,4.1863,4.1238,4.1057,4.1024,4.11,4.177,4.2282,4.2583,4.1405,4.042,0.0,3.8411,0.0,0.0,0.0,0.0,0.0,0.0,0.0,0.0,4.0891,4.1431,4.2365,4.3083,4.3561,4.3705,4.3213,4.3228,4.3942,4.4238,4.4972,4.6431,4.6856,4.7268,4.7946,4.8365,4.8565,4.86,4.9336,4.9899,4.9996,5.0442,5.0468,5.0164,5.0538,5.0977,5.119,5.1146,5.0888,5.0927,5.0918,5.0774,5.064,5.0433,5.0445,5.0252,4.9713,4.9255,4.9197,4.872,4.822,4.8124,4.8774,4.9236,4.9274,4.9752,4.9841,4.8894,4.8585,4.8717,3.3417,3.3417,3.3417,3.3679,3.4058,3.4386,3.4379,3.4259,3.4696,3.5321,3.6066,3.7281,3.7839,3.7928,3.8867,3.923,3.923,3.9349,3.9409,3.9424,3.9424,3.9424,3.9424,3.9409,3.9553,3.9681,3.9553,3.9711,4.0011,3.9965,4.0091,4.0455,4.0646,4.1024,0.0,0.0,0.0,0.0,4.431,4.4265,4.3656,4.3639,4.3284,4.2523,4.1796,0.0,4.1187,4.0746,4.0662,4.1071,4.1311,0.0,0.0,0.0,0.0,0.0,0.0,0.0,0.0,0.0,0.0,0.0,4.23,4.2092,4.0635,4.1308,4.2227,4.301,4.3307,4.3664,4.4277,4.4912,4.5285,4.5356,4.6258,4.6995,4.7234,4.7422,4.7625,4.7759,4.8452,4.899,4.9228,4.9796,5.0278,5.0458,5.0598,5.0564,5.0391,5.0845,5.1146,5.1048,5.0937,5.08,5.08,5.0784,5.0699,5.0445,5.0464,5.0442,5.0329,5.0206,5.0054,5.0034,4.9939,4.9786,4.9786,4.9977,5.0015,5.0054,5.0187,5.023,4.995,4.9877,4.9953,3.3326,0.0,3.3587,3.3914,0.0,3.4397,3.4304,3.4166,3.4524,3.483,3.5208,3.647,3.6936,3.7014,3.7843,3.8144,3.8144,3.8144,3.8159,3.8144,3.8144,3.8397,3.8826,3.8811,3.9104,3.9553,3.9424,3.9496,3.9711,3.9625,3.9696,3.998,4.0137,4.0385,4.0904,4.0956,4.1641,4.3015,4.3722,4.4051,4.4012,4.3995,4.3623,4.2861,0.0,0.0,0.0,0.0,0.0,0.0,0.0,0.0,0.0,0.0,0.0,4.3014,4.2567,4.2466,4.2828,4.2938,4.3358,4.4177,4.4652,4.4387,4.31,4.3548,4.4223,4.504,4.5162,4.5331,4.5697,4.6168,4.6422,4.6383,4.6919,4.7405,4.7737,4.8011,4.8314,4.8719,4.9251,4.9652,4.9816,5.0082,5.0349,5.0471,5.0451,5.0411,5.0451,5.0706,5.0908,5.0861,5.0789,5.0696,5.0696,5.0643,5.0567,5.0442,5.0418,5.0374,5.0306,5.0302,5.0302,5.0302,5.0302,5.0302,5.0302,5.0302,5.0302,5.0302,5.0302,5.0302,5.0302,5.0302,5.0302,3.2986,3.343,3.343,3.3692,3.4097,3.4097,3.4097,3.411,0.0,0.0,0.0,3.5359,3.5669,3.5749,3.6503,3.6894,3.6894,3.6894,3.6894,3.6894,3.6894,3.7295,3.7947,3.7962,3.8352,3.8943,3.9104,3.9192,3.9192,3.9352,3.9481,3.9696,3.991,4.0066,4.0331,4.0956,4.1656,4.2332,4.2998,4.358,4.4181,4.4238,4.3883,4.325,4.2506,4.1813,4.1221,4.0595,4.0337,4.0286,4.0566,4.0882,4.1223,4.1855,4.2412,4.285,4.336,4.4216,4.5617,4.511,4.533,4.6694,4.6451,4.612,4.5873,4.5894,4.6223,4.6936,4.6993,4.6993,4.7012,4.7162,4.7218,4.7218,4.7368,4.7725,4.8356,4.8617,4.8983,4.9635,4.9872,5.0111,5.0168,5.0121,5.0187,5.0176,5.0195,5.0195,5.0262,5.0471,5.0675,5.072,5.0644,5.0625,5.0624,5.0548,5.0485,5.0442,5.0374,5.0302,5.0302,5.0302,5.0302,5.0302,5.0302,5.0302,5.0302,5.0302,5.0302,5.0302,5.0302,5.0302,5.0302,5.0302,5.0302,3.2738,3.2816,3.2816,3.2868,3.2934,3.2934,3.2934,3.3025,3.3979,3.4397,3.4481,3.5345,3.5669,3.5736,3.6503,3.6894,3.6894,3.6894,3.6894,0.0,3.6894,3.6958,3.7127,3.7049,3.7112,3.7281,3.8008,3.8352,3.8441,3.9046,3.9481,3.9696,3.9925,4.0121,4.047,4.0578,4.0956,4.1641,4.2332,4.2659,4.2692,4.2733,4.2612,4.2402,4.1779,4.1305,4.1204,4.0679,4.0302,4.034,4.0397,4.1184,4.2842,4.3054,4.4067,4.6015,4.6293,4.6639,4.7277,4.7265,4.7389,4.7798,4.7199,4.669,4.6419,4.6649,4.688,4.7012,4.7068,4.6993,4.703,4.765,4.8025,4.8082,4.8683,4.9189,4.9265,4.9326,4.9394,4.9525,4.9563,4.9683,4.9849,4.975,4.9722,4.983,4.9849,4.9824,4.9978,5.0174,5.0449,5.0606,5.0507,5.0421,5.0466,5.0421,5.0352,5.0348,5.0325,5.0302,5.0302,5.0302,5.0302,5.0302,5.0302,5.0302,5.0302,5.0302,5.0302,5.0302,5.0302,5.0302,5.0302,5.0302,5.0302,3.194,3.2215,3.2215,3.2424,3.2672,3.2672,3.2672,3.2738,3.3234,3.347,3.3551,3.394,3.41,3.41,3.4456,3.4614,3.4614,3.46,3.46,3.46,3.4614,3.4998,3.5691,3.5783,3.6184,3.6944,3.7796,3.8202,3.8277,3.9046,3.9409,3.9553,3.9854,4.0207,4.047,4.0524,4.0662,4.0956,4.1641,4.2108,4.2419,4.2838,4.2999,4.2936,4.2985,4.3031,4.3031,4.2763,4.2632,4.2618,4.2668,4.3093,4.3912,4.4233,4.4885,4.5947,4.6595,4.6999,4.7258,4.7554,4.7741,4.7852,4.7667,4.7516,4.7389,4.7415,4.7685,4.8258,4.8363,4.8345,4.8363,4.8701,4.8908,4.8927,4.9283,4.949,4.9509,4.9509,4.9509,4.9509,4.9509,4.9532,4.9644,4.9563,4.9521,4.9615,4.9604,4.9642,4.9778,4.9898,5.0051,5.0236,5.0163,5.0144,5.024,5.0217,5.0231,5.0278,5.0302,5.0302,5.0302,5.0302,5.0302,5.0302,5.0302,5.0302,5.0302,5.0302,5.0302,5.0302,5.0302,5.0302,5.0302,5.0302,5.0302,3.0663,3.1074,3.1242,3.1733,3.2293,3.2306,3.2306,3.2306,3.2293,3.2306,3.2333,3.2568,3.2672,3.2672,3.2672,3.2685,3.2672,3.2672,3.2685,3.2672,3.2672,3.3304,3.427,3.4483,3.511,3.6203,3.7175,3.7644,3.772,3.8412,3.8943,3.9177,3.9696,4.0137,4.047,4.047,4.047,4.0524,4.1024,4.1575,4.2269,4.2753,4.312,4.3317,4.3956,4.4384,4.4384,4.4514,4.457,4.457,4.457,4.457,4.4626,4.4944,4.5161,4.5355,4.6049,4.666,4.6908,4.7407,4.7699,4.7699,4.7893,4.8035,4.8098,4.796,4.8286,4.9182,4.9302,4.934,4.9384,4.9471,4.9509,4.9509,4.9509,4.9509,4.9509,4.9509,4.9509,4.9509,4.9509,4.9509,4.9509,4.9509,4.949,4.949,4.9509,4.9551,4.9623,4.9653,4.9701,4.9778,4.9853,4.9952,5.0012,5.0038,5.0089,5.0188,5.0188,5.0207,5.0231,5.0255,5.0278,5.0278,5.0302,5.0302,5.0302,5.0302,5.0302,5.0302,5.0302,5.0302,5.0302,5.0302,5.0302,2.87,2.8816,2.9649,3.0356,3.1107,3.1169,3.112,3.1182,3.1143,3.1143,3.13,3.2228,3.2646,3.2672,3.2646,3.262,3.2633,3.2672,3.2646,3.2633,3.2672,3.2804,3.2962,3.3461,3.3763,3.4124,3.5331,3.6029,3.6136,3.6816,3.7648,3.8502,3.9292,3.991,4.0261,4.0331,4.0401,4.0455,4.0593,4.0888,4.1525,4.1641,4.1965,4.2567,4.3273,4.3571,4.363,4.4236,4.457,4.457,4.457,4.457,4.457,4.4626,4.4852,4.5267,4.5407,4.5868,4.6799,4.7425,4.7699,4.7699,4.7741,4.7847,4.8056,4.808,4.8347,4.8906,4.9027,4.916,4.9459,4.9459,4.9459,4.9509,4.9478,4.9509,4.9509,4.9509,4.9509,4.9509,4.9509,4.9509,4.9509,4.9509,4.9509,4.9509,4.9509,4.949,4.9521,4.9551,4.9551,4.9582,4.9721,4.9871,4.9925,4.9925,4.9952,4.9933,4.9933,5.0031,5.0108,5.0133,5.0158,5.0278,5.0278,5.0278,5.0302,5.0302,5.0302,5.0302,5.0302,5.0302,5.0302,5.0302,5.0302,2.8438,2.8426,2.8743,2.9135,2.9471,2.9459,2.9459,2.9537,3.0024,3.0254,3.0394,3.1241,3.1679,3.1692,3.1692,3.1679,3.1692,3.1679,3.1679,3.1679,3.1679,3.1875,3.2202,3.2424,3.2894,3.3642,3.466,3.5316,3.5775,3.6503,3.7204,3.7738,3.8502,3.9045,3.9334,3.9965,4.0347,4.0401,4.0455,4.0646,4.0888,4.1276,4.1656,4.1949,4.2567,4.3136,4.3436,4.3781,4.4179,4.457,4.457,4.457,4.457,4.457,4.4665,4.4906,4.5161,4.5749,4.6817,4.7107,4.7363,4.7675,4.7699,4.7741,4.7847,4.7888,4.8053,4.8402,4.8641,4.889,4.9164,4.9079,4.9079,4.9377,4.9345,4.9262,4.949,4.9509,4.9509,4.9509,4.9509,4.9509,4.9509,4.9509,4.9509,4.9509,4.9509,4.9509,4.9509,4.9509,4.9509,4.9509,4.9612,4.969,4.9757,4.9788,4.9807,4.9871,4.9879,4.9952,5.0057,5.0031,5.0038,5.0255,5.0231,5.0231,5.0302,5.0302,5.0302,5.0302,5.0302,5.0302,5.0302,5.0302,5.0302,2.8128,2.8105,2.8231,2.8426,2.8551,2.8486,2.8438,2.8505,2.9069,2.9381,2.9459,3.0266,3.0672,3.0672,3.0898,3.0986,3.0986,3.0986,3.0986,3.0986,3.0986,3.1209,3.1601,3.1954,3.2502,3.3354,3.4286,3.4955,3.54,3.6201,3.666,3.6894,3.7572,3.8115,3.8354,3.9277,3.9809,3.995,4.0231,4.0455,4.0593,4.0972,4.1209,4.1276,4.1901,4.2458,4.2953,4.3333,4.3722,4.4236,4.4497,4.457,4.457,4.457,4.457,4.4609,4.5035,4.5614,4.6406,4.6613,4.6863,4.7214,4.7363,4.745,4.7511,4.7615,4.7765,4.7974,4.821,4.8476,4.882,4.8731,4.882,4.9179,4.9027,4.9027,4.9313,4.9377,4.9377,4.9459,4.9509,4.9509,4.9509,4.9509,4.9509,4.9509,4.9509,4.9509,4.9509,4.9509,4.9509,4.9509,4.949,4.9527,4.9633,4.9638,4.9711,4.975,4.9778,4.9816,4.9952,4.9898,4.9879,5.0063,5.0082,5.0133,5.0207,5.0231,5.0302,5.0302,5.0302,5.0302,5.0302,5.0302,5.0302,2.7338,2.7414,2.7776,2.8326,2.9102,2.8623,2.8371,2.8259,2.845,2.8438,2.8597,2.9381,2.9781,2.9793,3.0508,3.0986,3.0986,3.0986,3.0986,3.0986,3.1013,3.1013,3.1104,3.2123,3.2685,3.296,3.3865,3.4446,3.4551,3.5345,3.5749,3.5816,3.6582,3.7049,3.7343,3.8115,3.8708,3.9088,3.9793,4.0331,4.0455,4.0524,4.0593,4.0646,4.1209,4.1575,4.1771,4.2814,4.3512,4.3495,4.4179,4.4514,4.457,4.457,4.457,4.4609,4.5035,4.5303,4.5459,4.5868,4.6213,4.6244,4.6707,4.6954,4.7044,4.7363,4.7639,4.7717,4.7783,4.8032,4.8476,4.8514,4.8569,4.866,4.866,4.8731,4.8993,4.9046,4.9179,4.9396,4.9509,4.9509,4.9509,4.9509,4.9509,4.9509,4.9509,4.9509,4.9509,4.9509,4.9509,4.9509,4.9509,4.9509,4.9509,4.9539,4.9539,4.9582,4.9623,4.9593,4.9653,4.9721,4.9816,4.9879,4.9978,5.0057,5.0108,5.0182,5.0278,5.0302,5.0302,5.0302,5.0302,5.0302,5.0302,2.7315,2.7293,2.7468,2.7738,2.7962,2.7782,2.7533,2.7356,2.7822,2.7883,2.7846,2.8518,2.89,2.89,2.9225,2.9947,3.0911,3.0986,3.0986,3.1026,3.1365,3.1535,3.1614,3.2333,3.2921,3.33,3.3692,3.4071,3.4384,3.4716,3.4881,3.5032,3.5736,3.6201,3.636,3.7204,3.7724,3.7951,3.8942,3.9478,3.9606,4.0091,4.0331,4.0401,4.0662,4.1091,4.1459,4.1949,4.2395,4.2707,4.3092,4.341,4.3756,4.431,4.457,4.4626,4.4759,4.4998,4.5267,4.5459,4.5749,4.6049,4.6262,4.6548,4.6863,4.7107,4.7302,4.7615,4.7699,4.7847,4.7929,4.805,4.8172,4.8514,4.8421,4.8421,4.8641,4.8731,4.8855,4.9127,4.9327,4.9509,4.9459,4.9509,4.9509,4.9509,4.9509,4.9509,4.9509,4.9509,4.9509,4.9509,4.9509,4.9509,4.9509,4.9509,4.9509,4.9509,4.9521,4.9582,4.9653,4.9593,4.9634,4.9788,4.9898,4.9978,5.0031,5.0182,5.0255,5.0302,5.0302,5.0302,5.0302,5.0302,5.0302,2.7774,2.7752,2.761,2.7555,2.7523,2.7381,2.714,2.6943,2.7428,2.7567,2.7429,2.7976,2.8208,2.8253,2.8339,2.8991,3.0114,3.0432,3.0838,3.1274,3.1666,3.194,3.2202,3.2712,3.3182,3.3574,3.3783,3.4058,3.4345,3.4397,3.4397,3.4481,3.5019,3.5264,3.5426,3.6201,3.6738,3.6972,3.7936,3.862,3.8942,3.958,4.0051,4.0207,4.0331,4.0646,4.1075,4.1276,4.1509,4.1949,4.2189,4.252,4.2909,4.368,4.4138,4.4121,4.431,4.4592,4.491,4.4947,4.5161,4.5563,4.5767,4.6,4.6358,4.6548,4.6908,4.7302,4.745,4.7468,4.7657,4.7699,4.7888,4.821,4.8093,4.8093,4.8402,4.8439,4.8569,4.8837,4.9027,4.9197,4.9313,4.9327,4.9377,4.9478,4.9509,4.9509,4.9509,4.9509,4.9509,4.9509,4.9509,4.9509,4.9509,4.9509,4.9509,4.9509,4.9509,4.9582,4.9582,4.9521,4.9551,4.9692,4.9816,4.9871,4.9986,5.0139,5.0231,5.0278,5.0302,5.0302,5.0302,5.0302,5.0302,2.8817,2.8626,2.8244,2.8047,2.7992,2.7621,2.7359,2.7326,2.7315,2.7349,2.7337,2.7725,2.7859,2.7934,2.8163,2.8419,2.8669,2.9312,3.0276,3.1423,3.1694,3.2045,3.2553,3.33,3.3587,3.3692,3.4136,3.4371,3.4397,3.4397,3.4397,3.4397,3.4481,3.4564,3.4481,3.5345,3.5816,3.6136,3.6972,3.7814,3.859,3.8841,3.9322,3.9839,4.0051,4.0191,4.0316,4.0768,4.106,4.1276,4.169,4.1933,4.2125,4.2847,4.3213,4.3257,4.368,4.4138,4.431,4.439,4.4536,4.4759,4.5035,4.5372,4.5563,4.585,4.6358,4.6863,4.6999,4.7151,4.7615,4.7699,4.7717,4.7699,4.7741,4.787,4.8035,4.8096,4.8231,4.8514,4.866,4.8731,4.8959,4.9061,4.9179,4.9427,4.9509,4.9509,4.9509,4.9509,4.9509,4.9509,4.9509,4.9509,4.9509,4.9509,4.9509,4.9509,4.9509,4.9521,4.9521,4.949,4.949,4.9623,4.9759,4.9843,4.9925,5.0082,5.0182,5.0231,5.0255,5.0302,5.0302,5.0302,5.0302,2.885,2.8746,2.8604,2.8538,2.8517,2.8364,2.8134,2.7818,2.7807,2.7621,2.7326,2.7414,2.7522,2.75,2.7581,2.7843,2.8033,2.8433,2.9018,3.0059,3.1014,3.1792,3.2447,3.3532,3.4149,3.4175,3.4306,3.4397,3.4397,3.4397,3.4397,3.4397,3.4397,3.4397,3.4397,3.4634,3.4881,3.5032,3.5883,3.6596,3.6894,3.7448,3.813,3.8811,3.8855,3.9162,3.9824,4.0316,4.0455,4.0439,4.0562,4.0805,4.1311,4.1997,4.2567,4.2998,4.3196,4.3647,4.4236,4.431,4.4367,4.4553,4.4776,4.4981,4.5267,4.5459,4.5968,4.6707,4.6908,4.7107,4.7572,4.7699,4.7699,4.7699,4.7699,4.7741,4.7847,4.7974,4.8153,4.8269,4.8458,4.8695,4.8906,4.8974,4.9113,4.9409,4.9459,4.9459,4.9509,4.9509,4.9509,4.9509,4.9509,4.9509,4.9509,4.9509,4.9509,4.9509,4.9509,4.9509,4.9509,4.9509,4.9509,4.9551,4.9692,4.9788,4.9871,5.0005,5.0133,5.0207,5.0231,5.0255,5.0278,5.0302,5.0302,2.885,2.885,2.885,2.885,2.885,2.885,2.8593,2.8331,2.8309,2.8134,2.7861,2.7654,2.7577,2.7545,2.7403,2.7403,2.7644,2.7719,2.8168,2.9095,3.0275,3.124,3.198,3.3242,3.3869,3.3953,3.4217,3.4397,3.4397,3.4397,3.4397,3.4397,3.4397,3.4397,3.4397,3.4397,3.4397,3.4564,3.5127,3.5683,3.5976,3.6425,3.7127,3.7738,3.7843,3.8323,3.9133,3.9493,3.9666,3.9839,3.9925,4.0106,4.0409,4.1111,4.1804,4.2316,4.2769,4.3229,4.4023,4.4196,4.431,4.444,4.457,4.472,4.4998,4.5035,4.5477,4.6116,4.631,4.6595,4.7214,4.7407,4.7468,4.7699,4.7699,4.7699,4.7741,4.7847,4.7951,4.7992,4.8111,4.8402,4.8569,4.8677,4.8872,4.9179,4.9313,4.9377,4.9459,4.9509,4.9509,4.9509,4.9509,4.9509,4.9509,4.9509,4.9509,4.9509,4.9509,4.9509,4.9509,4.9509,4.9509,4.9509,4.9623,4.9663,4.975,4.9933,5.0063,5.0114,5.0163,5.0255,5.0302,5.0302,5.0302,2.8746,2.8757,2.885,2.885,2.885,2.885,2.8735,2.8724,2.8724,2.8691,2.8582,2.8244,2.808,2.7981,2.7719,2.7568,2.7348,2.7447,2.792,2.8712,2.9648,3.0563,3.1804,3.2562,3.2895,3.3066,3.37,3.4134,3.4134,3.4134,3.4397,3.4397,3.4397,3.4397,3.4397,3.4397,3.4397,3.4481,3.466,3.5059,3.5507,3.5749,3.6215,3.6816,3.7049,3.742,3.819,3.8502,3.8899,3.9523,3.9696,3.9625,3.961,4.02,4.0857,4.1444,4.211,4.2896,4.3628,4.4039,4.4212,4.4384,4.4497,4.457,4.4665,4.4703,4.4889,4.5407,4.5459,4.5817,4.6613,4.6954,4.7169,4.7615,4.7699,4.7699,4.7699,4.7717,4.7741,4.7741,4.7741,4.7806,4.8135,4.8192,4.8458,4.8783,4.8993,4.9094,4.9262,4.9313,4.9427,4.9459,4.9427,4.9509,4.9509,4.9509,4.9509,4.9509,4.9509,4.9509,4.9509,4.9509,4.9509,4.9509,4.9551,4.9593,4.9692,4.9871,4.9986,5.0038,5.0114,5.0255,5.0302,5.0302,5.0302,2.8269,2.8757,2.885,2.885,2.885,2.885,2.885,2.885,2.885,2.885,2.8806,2.8626,2.8538,2.8538,2.8418,2.82,2.7916,2.785,2.7916,2.8313,2.8832,3.0281,3.1681,3.1934,3.1965,3.2064,3.245,3.271,3.3335,3.3348,3.37,3.4397,3.4314,3.4314,3.4397,3.4397,3.4397,3.4397,3.4481,3.4564,3.4716,3.4799,3.5182,3.5976,3.6042,3.6503,3.7266,3.7919,3.8634,3.9394,3.9481,3.9481,3.9409,3.9681,4.0146,4.0805,4.1459,4.2221,4.3108,4.3756,4.4212,4.4497,4.457,4.457,4.457,4.457,4.4852,4.5161,4.5303,4.5545,4.6196,4.666,4.7107,4.7615,4.7699,4.7699,4.7699,4.7699,4.7699,4.7699,4.7699,4.7847,4.7995,4.8114,4.8231,4.8569,4.8695,4.8767,4.8925,4.9061,4.9146,4.923,4.9262,4.9427,4.9509,4.9509,4.9509,4.9509,4.9509,4.9509,4.9509,4.9509,4.9509,4.9509,4.9582,4.9623,4.9692,4.9816,4.9898,4.9986,5.0139,5.0278,5.0302,5.0302,5.0302,2.741,2.7893,2.8175,2.8269,2.8362,2.8653,2.885,2.885,2.885,2.885,2.885,2.885,2.885,2.885,2.8839,2.8615,2.8364,2.8342,2.8462,2.8702,2.9025,2.9952,3.1159,3.1447,3.1616,3.1581,3.1842,3.2204,3.2584,3.2487,3.2735,3.3164,3.3602,3.3784,3.3784,3.4217,3.4397,3.4397,3.4397,3.4397,3.4397,3.4397,3.4634,3.5114,3.5196,3.5494,3.636,3.7218,3.8008,3.8723,3.9192,3.9424,3.9424,3.9424,3.9753,4.0478,4.0873,4.1625,4.2707,4.341,4.3873,4.4327,4.4514,4.457,4.457,4.457,4.4631,4.4944,4.4872,4.5161,4.5749,4.6454,4.6999,4.7302,4.7554,4.7699,4.7699,4.7699,4.7699,4.7699,4.7699,4.7741,4.7893,4.7933,4.8075,4.8269,4.8383,4.8476,4.8623,4.8731,4.8837,4.8906,4.8959,4.9079,4.9146,4.9179,4.9262,4.9313,4.9427,4.9459,4.9509,4.9509,4.9509,4.9521,4.9563,4.9653,4.9692,4.9778,4.9925,5.0038,5.0188,5.0278,5.0278,5.0302,5.0302,2.6264,2.6446,2.7115,2.74,2.7589,2.8269,2.8373,2.8466,2.8373,2.8466,2.8466,2.8456,2.8466,2.8664,2.856,2.8642,2.8724,2.868,2.9008,2.9237,2.9456,2.9855,3.0433,3.0852,3.1149,3.1373,3.182,3.2047,3.2075,3.1771,3.1709,3.2062,3.2636,3.2809,3.2993,3.37,3.4217,3.4217,3.4314,3.4397,3.4397,3.4397,3.4481,3.4481,3.4564,3.4881,3.5575,3.636,3.7141,3.7886,3.8797,3.9192,3.9352,3.9424,3.9696,4.0231,4.0547,4.1178,4.2348,4.2753,4.3327,4.3946,4.4316,4.453,4.4474,4.4384,4.4367,4.4553,4.427,4.4652,4.5303,4.6196,4.6707,4.6954,4.7363,4.7572,4.7717,4.7699,4.7699,4.7699,4.7699,4.7699,4.7699,4.7699,4.7806,4.8014,4.8093,4.8132,4.8288,4.8421,4.8495,4.8532,4.8569,4.8641,4.8731,4.8837,4.8959,4.9079,4.9262,4.9327,4.9459,4.9509,4.9509,4.9521,4.9551,4.9593,4.9653,4.975,4.9898,5.0005,5.0108,5.0182,5.0278,5.0278,5.0302,2.4875,2.5858,2.6031,2.634,2.6733,2.6935,2.703,2.703,2.703,2.7125,2.703,2.703,2.74,2.7882,2.7882,2.8175,2.8653,2.8686,2.9019,2.9434,2.9489,2.9762,3.0024,3.0127,3.0245,3.053,3.0574,3.1049,3.1458,3.1298,3.1386,3.1926,3.1821,3.1928,3.2016,3.2809,3.3335,3.3433,3.3966,3.4314,3.4314,3.4397,3.4397,3.4397,3.4397,3.4481,3.4799,3.5507,3.607,3.6531,3.7553,3.8575,3.9192,3.9352,3.9481,3.9753,4.0216,4.0721,4.128,4.2157,4.2955,4.3223,4.3788,4.4188,4.4239,4.4188,4.4155,4.4212,4.4253,4.4558,4.5161,4.5459,4.6067,4.6613,4.6972,4.7258,4.7615,4.7699,4.7699,4.7699,4.7699,4.7699,4.7699,4.7699,4.7741,4.7765,4.7788,4.7806,4.7951,4.8132,4.8172,4.8249,4.8326,4.8364,4.8439,4.855,4.8713,4.8837,4.9027,4.9146,4.9262,4.9377,4.9345,4.9427,4.949,4.9551,4.9623,4.9682,4.9807,4.9898,4.9978,5.0082,5.0158,5.0231,5.0278,2.3601,2.4187,2.4571,2.507,2.5577,2.5954,2.6254,2.6456,2.6456,2.6456,2.6456,2.6456,2.6744,2.7115,2.7115,2.7305,2.7694,2.8081,2.8585,2.9001,2.915,2.9401,2.9751,2.9685,2.9729,3.01,2.9947,3.0256,3.0376,3.0251,3.0077,3.0663,3.0828,3.0968,3.1045,3.184,3.2277,3.2537,3.325,3.3771,3.3784,3.4217,3.4397,3.4397,3.4397,3.4397,3.4481,3.4799,3.5277,3.5816,3.6531,3.7644,3.8723,3.9192,3.9352,3.9496,3.9681,4.0255,4.0826,4.138,4.1949,4.2501,4.3178,4.3443,4.3711,4.3813,4.4056,4.4114,4.4155,4.4293,4.4801,4.5214,4.5665,4.6017,4.6406,4.6753,4.7214,4.7554,4.7699,4.7699,4.7699,4.7699,4.7699,4.7699,4.7699,4.7723,4.7723,4.7783,4.7741,4.7888,4.7888,4.7951,4.8032,4.8111,4.8151,4.8288,4.8458,4.8605,4.8767,4.8837,4.8925,4.9046,4.9113,4.9262,4.9427,4.9551,4.9623,4.9682,4.9721,4.9862,4.9952,5.0005,5.0031,5.0057,5.0114,2.2333,2.2426,2.3103,2.3692,2.4295,2.4875,2.5363,2.5771,2.5964,2.5771,2.6061,2.6061,2.6071,2.6264,2.636,2.635,2.6733,2.7125,2.7757,2.825,2.8448,2.8748,2.9007,2.9273,2.9467,2.9915,2.9838,2.9781,2.9661,2.915,2.9333,2.9179,2.9577,3.0,3.017,3.0866,3.14,3.1488,3.2277,3.298,3.3164,3.3784,3.4134,3.4397,3.4397,3.4397,3.4397,3.4564,3.4799,3.5426,3.5588,3.6466,3.7567,3.8738,3.9352,3.9352,3.9496,3.9722,4.0239,4.069,4.1135,4.1789,4.2375,4.2834,4.3027,4.3394,4.3704,4.3998,4.4056,4.4155,4.4367,4.478,4.5161,4.5407,4.5749,4.6196,4.6707,4.7258,4.7511,4.7699,4.7699,4.7699,4.7699,4.7699,4.7699,4.7699,4.7699,4.7699,4.7699,4.7699,4.7741,4.7783,4.7888,4.7929,4.7929,4.801,4.821,4.8345,4.8514,4.8587,4.8623,4.8767,4.8925,4.9197,4.9377,4.9471,4.9563,4.9593,4.9692,4.9835,4.9871,4.9871,4.9871,4.9898,4.9978,2.1428,2.1827,2.2021,2.2316,2.2828,2.302,2.3211,2.322,2.3809,2.3818,2.3917,2.4332,2.4913,2.5294,2.5489,2.5877,2.6264,2.6648,2.6839,2.7125,2.7505,2.7905,2.8041,2.8494,2.8903,2.9205,2.9532,2.9796,2.9838,2.9631,2.9216,2.9321,2.9201,2.9117,2.9382,2.9897,3.0429,3.0519,3.1311,3.2103,3.2636,3.3164,3.3771,3.4314,3.4397,3.4397,3.4397,3.4397,3.4481,3.4634,3.5345,3.583,3.6466,3.7644,3.8575,3.9192,3.9352,3.9538,3.9737,4.02,4.0516,4.0894,4.1412,4.2094,4.2476,4.2805,4.3174,4.3747,4.4097,4.427,4.4514,4.4648,4.4889,4.5178,4.5372,4.5665,4.6165,4.6649,4.7143,4.7381,4.7511,4.7699,4.7699,4.7699,4.7699,4.7699,4.7699,4.7699,4.7699,4.7699,4.7699,4.7699,4.7741,4.7741,4.7741,4.7783,4.7888,4.8093,4.8249,4.8326,4.8402,4.8532,4.8767,4.8925,4.9079,4.9197,4.9327,4.9421,4.9532,4.9525,4.9615,4.9721,4.975,4.9778,4.9862,2.1027,2.1326,2.1326,2.1623,2.203,2.2123,2.2232,2.2526,2.2728,2.2929,2.2929,2.3229,2.3529,2.3818,2.4205,2.4796,2.5684,2.5877,2.6071,2.6456,2.6829,2.703,2.702,2.7505,2.7788,2.8199,2.8657,2.9191,2.9434,2.9216,2.9139,2.9052,2.8844,2.885,2.885,2.9198,2.9463,2.9738,3.0441,3.1146,3.1665,3.2376,3.3433,3.4134,3.4397,3.4397,3.4397,3.4397,3.4397,3.4481,3.4799,3.5277,3.583,3.6466,3.7491,3.8501,3.9119,3.9424,3.9424,3.9737,3.9864,4.0005,4.06,4.106,4.1525,4.1852,4.2427,4.3202,4.3864,4.4155,4.4286,4.4344,4.448,4.4725,4.4818,4.5125,4.5563,4.5908,4.6403,4.6944,4.732,4.7511,4.7699,4.7699,4.7699,4.7699,4.7699,4.7699,4.7699,4.7699,4.7699,4.7699,4.7699,4.7699,4.7699,4.7699,4.7699,4.7888,4.7951,4.8072,4.8111,4.821,4.8307,4.8421,4.8605,4.882,4.8959,4.9061,4.9146,4.9262,4.9421,4.9514,4.9574,4.9634,4.9721,2.0925,2.0925,2.0925,2.1121,2.153,2.1522,2.1725,2.2131,2.2325,2.2325,2.2325,2.2526,2.2526,2.2627,2.312,2.3917,2.4903,2.5011,2.5401,2.5877,2.6167,2.6264,2.6264,2.6552,2.6924,2.7315,2.7473,2.7882,2.8773,2.8844,2.8883,2.8801,2.8872,2.885,2.885,2.8932,2.885,2.9024,2.9463,2.9897,3.0609,3.184,3.3164,3.4037,3.4134,3.4134,3.4397,3.4397,3.4397,3.4397,3.4481,3.4703,3.5345,3.5588,3.6308,3.7567,3.856,3.9119,3.9424,3.9424,3.9481,3.9553,3.995,4.027,4.0737,4.1311,4.1949,4.2724,4.3306,4.3848,4.4097,4.4097,4.4212,4.431,4.4367,4.4497,4.4995,4.5352,4.5632,4.6204,4.6944,4.7258,4.7302,4.7699,4.7699,4.7699,4.7699,4.7699,4.7699,4.7699,4.7699,4.7699,4.7699,4.7699,4.7699,4.7699,4.7699,4.7783,4.7806,4.7847,4.7806,4.7824,4.7911,4.8075,4.8153,4.8364,4.8514,4.8731,4.8855,4.9012,4.9197,4.9295,4.9308,4.9371,4.9434,2.0925,2.0925,2.0925,2.0925,2.1019,2.1019,2.1019,2.1224,2.1623,2.1818,2.1827,2.2224,2.2426,2.2526,2.2929,2.3329,2.3728,2.4035,2.4332,2.4618,2.5099,2.5392,2.5586,2.6264,2.636,2.6542,2.6638,2.7505,2.8279,2.8571,2.8757,2.8757,2.885,2.885,2.885,2.885,2.885,2.885,2.8932,2.9371,3.0249,3.1223,3.2202,3.2907,3.325,3.3602,3.4147,3.4314,3.4397,3.4397,3.4397,3.4481,3.4634,3.5345,3.5655,3.6373,3.74,3.8664,3.9119,3.9352,3.9424,3.9424,3.9553,3.9879,4.0339,4.1044,4.1804,4.2724,4.3031,4.3426,4.3906,4.4039,4.4138,4.4253,4.431,4.444,4.4737,4.5012,4.5228,4.5459,4.6133,4.6566,4.6753,4.7302,4.7699,4.7699,4.7699,4.7657,4.7657,4.7657,4.7699,4.7699,4.7699,4.7699,4.7699,4.7699,4.7699,4.7699,4.7699,4.7699,4.7699,4.7699,4.7699,4.7847,4.7888,4.8032,4.8288,4.8476,4.8587,4.8714,4.8855,4.8959,4.9027,4.9094,4.916,2.0925,2.0925,2.0925,2.0925,2.0925,2.0925,2.0925,2.0925,2.1121,2.1224,2.1326,2.142,2.1725,2.2021,2.2325,2.2526,2.2828,2.3138,2.3238,2.3338,2.3917,2.4205,2.4322,2.4913,2.5304,2.5781,2.5877,2.635,2.7315,2.7987,2.8269,2.8757,2.8757,2.885,2.885,2.885,2.885,2.885,2.885,2.9279,3.0079,3.0609,3.1235,3.2202,3.2636,3.3164,3.3602,3.4217,3.4397,3.4397,3.4397,3.4397,3.4481,3.4799,3.5114,3.5749,3.6308,3.7323,3.8501,3.9031,3.9265,3.9424,3.9424,3.9553,4.0021,4.0585,4.1295,4.1965,4.2537,4.3064,4.3654,4.3939,4.4039,4.4155,4.427,4.444,4.457,4.4665,4.4923,4.5089,4.532,4.5716,4.6116,4.6406,4.6817,4.6954,4.7062,4.7214,4.7363,4.7554,4.7597,4.7699,4.7699,4.7699,4.7699,4.7699,4.7699,4.7699,4.7699,4.7699,4.7699,4.7699,4.7699,4.7699,4.7783,4.7911,4.8093,4.821,4.8326,4.8383,4.8458,4.8623,4.8731,4.8802,4.8872,2.03,2.0292,2.0712,2.0925,2.0925,2.0925,2.0925,2.0925,2.0925,2.0917,2.0925,2.0917,2.1121,2.142,2.1725,2.2021,2.2333,2.2426,2.2526,2.2627,2.2828,2.3229,2.3529,2.3935,2.443,2.5001,2.5011,2.5489,2.6157,2.6733,2.741,2.8466,2.8653,2.8757,2.885,2.885,2.885,2.885,2.885,2.9106,2.9646,2.9818,3.0429,3.1134,3.1928,3.255,3.3066,3.3602,3.3966,3.4397,3.4397,3.4397,3.4397,3.4481,3.4703,3.5264,3.5669,3.6294,3.7491,3.8263,3.8958,3.9192,3.9352,3.9424,3.9481,3.995,4.0531,4.1194,4.1591,4.238,4.3174,4.3492,4.3805,4.3964,4.4212,4.4384,4.4553,4.4609,4.472,4.4814,4.4961,4.5035,4.5337,4.5528,4.5817,4.6116,4.6358,4.666,4.6908,4.7151,4.7258,4.7302,4.7363,4.7468,4.7657,4.7657,4.7657,4.7657,4.7657,4.7657,4.7657,4.7657,4.7699,4.7699,4.7699,4.7783,4.7929,4.7951,4.8014,4.8053,4.8132,4.8326,4.8439,4.8514,4.8605,1.8527,1.8743,2.0197,2.0814,2.0822,2.0925,2.0925,2.0925,2.0925,2.0925,2.0925,2.0925,2.0925,2.1121,2.142,2.1623,2.1835,2.2224,2.2325,2.2325,2.2518,2.2828,2.3029,2.3329,2.3637,2.4143,2.4233,2.4618,2.5197,2.5577,2.6446,2.7494,2.8175,2.8653,2.885,2.885,2.885,2.885,2.885,2.885,2.9024,2.9117,2.9474,3.0079,3.0519,3.1146,3.2809,3.3164,3.3518,3.4217,3.4314,3.4397,3.4397,3.4397,3.4551,3.4716,3.5196,3.5669,3.6308,3.74,3.8202,3.8501,3.8885,3.9424,3.9424,3.9424,3.9879,4.0547,4.094,4.1475,4.2253,4.2818,4.3202,4.3638,4.3948,4.4179,4.4367,4.4514,4.457,4.4587,4.4682,4.4814,4.4797,4.5052,4.5302,4.5597,4.59,4.6147,4.631,4.6566,4.6707,4.6753,4.6908,4.7107,4.7511,4.7511,4.7258,4.7302,4.7345,4.745,4.7554,4.7615,4.7699,4.7699,4.7699,4.7699,4.7699,4.7806,4.7847,4.7741,4.7824,4.805,4.819,4.8249,4.8402,1.8422,1.8422,1.9153,1.9672,2.0197,2.0719,2.0925,2.0925,2.0925,2.0925,2.0822,2.0925,2.0925,2.0925,2.1027,2.1216,2.1224,2.1428,2.1522,2.1623,2.1827,2.2123,2.2426,2.2728,2.2937,2.3138,2.3238,2.3438,2.4026,2.451,2.5285,2.6244,2.74,2.8269,2.856,2.8757,2.885,2.885,2.885,2.885,2.885,2.885,2.8932,2.929,3.0091,3.0441,3.1311,3.2451,3.3066,3.3602,3.4037,3.4301,3.4397,3.4397,3.4397,3.4397,3.4799,3.495,3.5264,3.6439,3.7553,3.8277,3.8885,3.9424,3.9352,3.9424,3.9753,4.0216,4.0478,4.094,4.1656,4.2078,4.2379,4.3031,4.3545,4.3839,4.4179,4.431,4.4514,4.4514,4.457,4.4609,4.4609,4.4665,4.4869,4.5069,4.5372,4.5699,4.5817,4.5968,4.6116,4.6244,4.6358,4.6501,4.6863,4.6863,4.6753,4.689,4.7044,4.7107,4.7258,4.7615,4.7675,4.7699,4.7657,4.7657,4.7657,4.7699,4.7699,4.7699,4.7699,4.7783,4.7888,4.805,4.8151,1.7687,1.7681,1.7996,1.852,1.9361,1.9879,2.0189,2.0189,2.0094,2.0189,2.0197,2.0189,2.03,2.0506,2.0514,2.0712,2.0814,2.1019,2.0925,2.1121,2.1326,2.1522,2.1818,2.2021,2.2426,2.2426,2.2526,2.2828,2.3129,2.3818,2.4501,2.5275,2.6234,2.7305,2.8269,2.8746,2.8757,2.885,2.885,2.885,2.885,2.885,2.885,2.8932,2.9463,2.9988,3.0519,3.14,3.2376,3.2993,3.3602,3.405,3.4314,3.4397,3.4397,3.4397,3.4397,3.4397,3.4786,3.5655,3.7063,3.8023,3.8575,3.9031,3.9337,3.9424,3.9681,3.995,4.0146,4.0478,4.1127,4.1362,4.1723,4.2379,4.3015,4.3436,4.3856,4.4064,4.431,4.4457,4.4497,4.4497,4.4514,4.4514,4.4665,4.4814,4.4961,4.5178,4.5249,4.539,4.558,4.5716,4.585,4.595,4.6098,4.6262,4.6358,4.6454,4.6548,4.6595,4.6799,4.7169,4.7407,4.7363,4.7363,4.7511,4.7615,4.7657,4.7699,4.7699,4.7699,4.7717,4.7741,4.7847,4.7888,1.5998,1.6099,1.6942,1.7674,1.8318,1.8422,1.8527,1.8736,1.8632,1.8632,1.8736,1.8736,1.9049,1.9569,1.9783,2.0197,2.0712,2.0814,2.0925,2.0917,2.1019,2.1216,2.1522,2.1725,2.1928,2.2325,2.2325,2.2232,2.2526,2.302,2.371,2.4402,2.5275,2.634,2.7589,2.8456,2.8757,2.885,2.885,2.885,2.885,2.885,2.885,2.885,2.8932,2.9371,2.9909,3.0429,3.14,3.2277,3.298,3.3518,3.405,3.4314,3.4397,3.4397,3.4397,3.4397,3.4481,3.5277,3.6373,3.7644,3.8113,3.8649,3.9192,3.9424,3.9409,3.9681,3.9625,3.9895,4.027,4.0638,4.1095,4.1609,4.23,4.2876,4.3273,4.368,4.3873,4.4253,4.4327,4.431,4.4384,4.444,4.457,4.4626,4.4626,4.4665,4.4814,4.4961,4.5142,4.5178,4.532,4.5425,4.558,4.5868,4.6017,4.6049,4.6049,4.6098,4.6147,4.6406,4.666,4.6845,4.6954,4.6954,4.7302,4.7657,4.7615,4.7615,4.7699,4.7699,4.7699,4.7699,4.7741,1.5571,1.5885,1.6205,1.6524,1.6836,1.7996,1.8422,1.8422,1.8422,1.8422,1.8422,1.8422,1.8527,1.8945,1.9472,1.9879,2.0197,2.0814,2.0925,2.0925,2.0925,2.1019,2.1121,2.1224,2.1326,2.1428,2.1428,2.1725,2.192,2.2325,2.2627,2.3311,2.4698,2.6061,2.74,2.8362,2.8757,2.885,2.885,2.885,2.885,2.885,2.885,2.885,2.885,2.9024,2.9382,2.9818,3.0609,3.1476,3.2091,3.3054,3.3577,3.3927,3.4397,3.4397,3.4397,3.4397,3.4397,3.4799,3.5345,3.6466,3.7491,3.8113,3.8575,3.9192,3.9337,3.9424,3.9424,3.9625,3.9737,3.9809,4.013,4.0721,4.1362,4.1997,4.252,4.297,4.3306,4.3948,4.4196,4.4327,4.444,4.444,4.4497,4.457,4.457,4.457,4.472,4.4665,4.4759,4.4759,4.4852,4.4906,4.5052,4.5337,4.539,4.5337,4.5407,4.5545,4.5648,4.5767,4.6049,4.631,4.6358,4.6454,4.6753,4.7062,4.7407,4.7511,4.7554,4.7657,4.7699,4.7699,4.7699,1.4922,1.5351,1.5351,1.5351,1.5559,1.6942,1.7575,1.7575,1.7575,1.747,1.7477,1.747,1.7681,1.8101,1.8833,1.9569,1.9783,2.0506,2.0925,2.0925,2.0925,2.0917,2.0917,2.0925,2.1027,2.0925,2.0925,2.1121,2.142,2.1615,2.2123,2.292,2.4304,2.5577,2.6829,2.7704,2.8664,2.8664,2.8664,2.885,2.885,2.885,2.885,2.885,2.885,2.885,2.8932,2.9371,2.9897,3.0496,3.1288,3.2401,3.288,3.3441,3.4108,3.423,3.4397,3.4397,3.4397,3.4397,3.4881,3.5277,3.661,3.7553,3.8037,3.8649,3.9104,3.9265,3.9352,3.9424,3.9424,3.9424,3.9625,4.0146,4.06,4.1295,4.1674,4.2141,4.252,4.3229,4.368,4.3931,4.4327,4.444,4.4497,4.457,4.457,4.457,4.457,4.457,4.457,4.4626,4.4626,4.472,4.4759,4.4759,4.4759,4.4626,4.4852,4.5108,4.5072,4.5196,4.5528,4.5767,4.5817,4.59,4.6165,4.6454,4.6817,4.7107,4.7302,4.745,4.7657,4.7699,4.7699,1.4169,1.4169,1.4169,1.4277,1.4385,1.5458,1.5885,1.5992,1.5992,1.5998,1.5992,1.6099,1.6524,1.7252,1.7996,1.8736,1.9569,2.0403,2.0712,2.0925,2.0925,2.0925,2.0925,2.0925,2.0925,2.0925,2.0925,2.0917,2.1019,2.1318,2.1818,2.2518,2.3908,2.4698,2.5664,2.6829,2.7904,2.829,2.8571,2.8664,2.8664,2.8768,2.8757,2.885,2.885,2.885,2.885,2.9024,2.9418,2.9841,3.0293,3.1384,3.2216,3.2902,3.3623,3.4134,3.4397,3.4397,3.4397,3.4397,3.4397,3.4716,3.5277,3.6545,3.74,3.7947,3.8412,3.8885,3.9119,3.928,3.9352,3.9352,3.9424,3.9824,4.0091,4.0531,4.0842,4.1229,4.1609,4.2125,4.2583,4.297,4.3621,4.3931,4.3856,4.3914,4.3914,4.4179,4.4196,4.4587,4.457,4.457,4.457,4.457,4.457,4.457,4.457,4.457,4.457,4.4742,4.472,4.4776,4.4998,4.5232,4.5267,4.5407,4.5767,4.6017,4.6262,4.6566,4.6845,4.7258,4.7511,4.7657,4.7699,1.3851,1.4169,1.4169,1.4169,1.4277,1.4595,1.5137,1.5779,1.5885,1.5885,1.5885,1.5885,1.6105,1.6311,1.7153,1.7996,1.884,1.9672,2.0403,2.0712,2.0925,2.0925,2.0925,2.0925,2.0925,2.0925,2.0925,2.0925,2.0917,2.1121,2.1224,2.1623,2.2911,2.3311,2.4295,2.5567,2.6924,2.7904,2.829,2.8477,2.8571,2.8664,2.8664,2.8757,2.8757,2.8757,2.8757,2.8757,2.9073,2.9176,2.9886,3.0664,3.0798,3.2213,3.3433,3.423,3.4397,3.4397,3.4397,3.4397,3.4397,3.4397,3.4716,3.5277,3.6215,3.7,3.7615,3.8173,3.8649,3.8811,3.9119,3.9265,3.9352,3.9553,3.9824,4.0005,4.0324,4.0585,4.0961,4.1428,4.1885,4.2252,4.2847,4.2909,4.2831,4.3015,4.3213,4.3486,4.3873,4.4253,4.4587,4.457,4.457,4.457,4.457,4.457,4.457,4.457,4.457,4.457,4.4626,4.4665,4.472,4.4759,4.4889,4.5125,4.5407,4.5614,4.5734,4.6067,4.6358,4.6908,4.7345,4.745,4.7554,1.3202,1.3516,1.3516,1.363,1.3851,1.3846,1.4385,1.5137,1.525,1.5351,1.5565,1.5565,1.5678,1.6099,1.6836,1.7674,1.8527,1.9361,2.0197,2.0814,2.0925,2.0925,2.0925,2.0925,2.0925,2.0925,2.0925,2.0925,2.0925,2.0925,2.0925,2.1019,2.1928,2.2325,2.3111,2.4384,2.5858,2.6935,2.7715,2.8102,2.829,2.8384,2.8466,2.8466,2.8466,2.8466,2.8571,2.856,2.8653,2.8735,2.9429,2.9863,3.0331,3.2001,3.3079,3.3869,3.423,3.4314,3.4397,3.4397,3.4397,3.4397,3.4397,3.4716,3.5277,3.5976,3.6752,3.7462,3.7947,3.8427,3.8811,3.9192,3.9265,3.9424,3.9481,3.961,3.9809,4.0005,4.0409,4.0925,4.1311,4.1609,4.1804,4.1804,4.1997,4.2316,4.2504,4.2629,4.3213,4.3856,4.4327,4.4587,4.457,4.457,4.457,4.4514,4.4514,4.457,4.457,4.457,4.457,4.4626,4.4626,4.4626,4.4609,4.4852,4.5089,4.5035,4.5142,4.5528,4.5817,4.6213,4.666,4.7062,4.7214,1.2436,1.2436,1.2436,1.2767,1.3207,1.3207,1.3527,1.4056,1.4062,1.4385,1.4821,1.4928,1.525,1.5779,1.6411,1.7358,1.8206,1.9153,1.9983,2.0822,2.0925,2.0925,2.0925,2.0925,2.0925,2.0925,2.0925,2.0925,2.0925,2.0925,2.0925,2.0917,2.1725,2.2123,2.2316,2.3402,2.4581,2.5674,2.6839,2.762,2.7904,2.7987,2.7987,2.7987,2.8081,2.8081,2.8092,2.8175,2.8351,2.8516,2.8691,2.9257,3.0496,3.1476,3.2364,3.325,3.3784,3.4134,3.4314,3.4397,3.4397,3.4397,3.4397,3.4481,3.4881,3.5196,3.5896,3.6674,3.7155,3.7553,3.8008,3.8634,3.8958,3.9119,3.9265,3.9409,3.9553,3.9753,3.9935,4.0339,4.0462,4.0774,4.1044,4.1111,4.0977,4.1478,4.1804,4.1804,4.2236,4.3075,4.3663,4.4121,4.3931,4.3914,4.4384,4.4384,4.444,4.444,4.444,4.457,4.457,4.457,4.457,4.457,4.457,4.457,4.472,4.4759,4.4852,4.5089,4.532,4.5511,4.5918,4.6376,4.6707,1.2436,1.2436,1.2436,1.2441,1.2659,1.2659,1.2659,1.2871,1.2871,1.3413,1.4277,1.4385,1.4708,1.5244,1.5458,1.6518,1.8101,1.852,1.9561,2.0506,2.0925,2.0925,2.0925,2.0925,2.0925,2.0925,2.0925,2.0925,2.0925,2.0925,2.0925,2.0925,2.1428,2.142,2.1522,2.2509,2.3411,2.4688,2.5674,2.6945,2.762,2.7893,2.7987,2.7987,2.7987,2.7893,2.7987,2.7987,2.806,2.8143,2.8373,2.9095,3.0147,3.0687,3.1577,3.2722,3.3152,3.3687,3.4121,3.4314,3.4397,3.4397,3.4397,3.4397,3.4481,3.4634,3.5032,3.5736,3.6281,3.6752,3.7218,3.7933,3.8575,3.8811,3.8973,3.9192,3.9352,3.9481,3.9538,3.961,3.9753,3.995,4.0285,4.0355,4.0146,4.0339,4.0668,4.0909,4.1147,4.1788,4.2425,4.2814,4.2691,4.2831,4.3545,4.3873,4.3798,4.3989,4.4047,4.4253,4.4497,4.444,4.4367,4.4497,4.457,4.457,4.457,4.4626,4.4703,4.4852,4.4906,4.5089,4.5142,4.5546,4.5868,1.2531,1.2446,1.2436,1.2436,1.2436,1.2436,1.2436,1.2436,1.2436,1.2762,1.3413,1.3738,1.4067,1.4606,1.4713,1.5773,1.7569,1.7772,1.9034,2.0197,2.0719,2.0822,2.0822,2.0814,2.0925,2.0925,2.0925,2.0925,2.0925,2.0925,2.0925,2.0925,2.0925,2.0925,2.1019,2.1623,2.2619,2.4097,2.4786,2.5868,2.7241,2.7631,2.7715,2.7715,2.7715,2.7715,2.7715,2.7715,2.7799,2.7882,2.8092,2.8362,2.9165,2.9692,3.0316,3.1288,3.2178,3.3066,3.3602,3.4037,3.4314,3.4397,3.4397,3.4397,3.4397,3.4564,3.4564,3.5182,3.5736,3.6201,3.6517,3.7063,3.7857,3.8337,3.8575,3.8811,3.9119,3.9424,3.9481,3.9481,3.9553,3.9625,3.9824,3.9809,3.9681,3.9753,4.0021,4.0091,4.0324,4.0638,4.1198,4.1658,4.1593,4.1917,4.2645,4.2892,4.2831,4.3152,4.3545,4.3604,4.3663,4.3931,4.4121,4.431,4.4497,4.457,4.457,4.457,4.457,4.472,4.4665,4.4665,4.472,4.4814,4.5142,1.2635,1.245,1.2436,1.2436,1.2436,1.2436,1.2436,1.2436,1.2436,1.2436,1.255,1.2985,1.3527,1.3959,1.4169,1.5547,1.6605,1.7239,1.861,1.9983,2.0411,2.0506,2.0609,2.0712,2.0712,2.0712,2.0719,2.0822,2.0822,2.0822,2.0925,2.0925,2.0925,2.0925,2.0925,2.1113,2.2013,2.3592,2.4581,2.547,2.6466,2.7272,2.7357,2.7357,2.7272,2.7272,2.7357,2.7441,2.7547,2.7631,2.7809,2.8081,2.8351,2.8888,2.9326,3.0124,3.111,3.2003,3.2796,3.3505,3.3953,3.4314,3.4397,3.4397,3.4397,3.4397,3.4397,3.4716,3.5264,3.5575,3.5803,3.6281,3.7078,3.7706,3.7947,3.8352,3.8811,3.9192,3.9192,3.9265,3.9352,3.9352,3.9337,3.9337,3.9337,3.9352,3.9352,3.9424,3.9553,3.9809,4.0255,4.0638,4.0774,4.1229,4.1869,4.1917,4.1917,4.2316,4.2707,4.2769,4.2909,4.3152,4.3604,4.4179,4.431,4.431,4.4497,4.457,4.457,4.457,4.457,4.457,4.4626,4.4665,4.4609,1.2639,1.2441,1.2436,1.2436,1.2436,1.2436,1.2436,1.2436,1.2436,1.2436,1.2436,1.255,1.2876,1.3527,1.3418,1.4696,1.6605,1.7028,1.829,1.9872,2.0197,2.0189,2.0292,2.0395,2.0285,2.0292,2.0506,2.0514,2.0617,2.0822,2.0925,2.0925,2.0925,2.0925,2.0925,2.1216,2.181,2.3302,2.4285,2.508,2.6562,2.7262,2.7272,2.7272,2.7272,2.7272,2.7357,2.7357,2.7357,2.7441,2.7536,2.7715,2.7987,2.8164,2.8609,2.905,3.0033,3.0932,3.1816,3.271,3.325,3.405,3.4147,3.4314,3.4397,3.4397,3.4397,3.4397,3.4799,3.4799,3.5019,3.5494,3.6215,3.6517,3.683,3.7553,3.8173,3.8412,3.8575,3.8797,3.9104,3.9104,3.9031,3.9031,3.9031,3.9104,3.9192,3.9192,3.9192,3.9337,3.9409,3.9753,4.0005,4.0668,4.1311,4.1013,4.108,4.1478,4.1804,4.1933,4.2141,4.2379,4.2892,4.3469,4.3781,4.3856,4.4047,4.431,4.4514,4.4497,4.457,4.457,4.457,4.457,4.457]},{"header":{"parameterUnit":"m.s-1","parameterCategory":1,"la1":31.0,"la2":29.5877,"lo1":-88.7671,"lo2":-86.6584,"dy":0.0162,"dx":0.0185,"nx":115,"ny":88,"refTime":"2023-04-20T06:00:00:Z","depth":0,"parameterNumber":3,"parameterNumberName":"V-component_of_WINDS"},"data":[0.0,0.0,0.0,0.0,0.0,0.0,0.0,0.0,0.0,0.0,0.0,0.0,0.0,0.0,0.0,0.0,0.0,0.0,0.0,0.0,0.0,0.0,0.0,0.0,0.0,0.0,0.0,0.0,0.0,0.0,0.0,0.0,0.0,0.0,0.0,0.0,0.0,0.0,0.0,0.0,0.0,0.0,0.0,0.0,0.0,0.0,0.0,0.0,0.0,0.0,0.0,0.0,0.0,0.0,0.0,0.0,0.0,0.0,0.0,0.0,0.0,0.0,0.0,0.0,0.0,0.0,0.0,0.0,0.0,0.0,0.0,0.0,0.0,0.0,0.0,0.0,0.0,0.0,0.0,0.0,0.0,0.0,0.0,0.0,0.0,0.0,0.0,0.0,0.0,0.0,0.0,0.0,0.0,0.0,0.0,0.0,0.0,0.0,0.0,0.0,0.0,0.0,0.0,0.0,0.0,0.0,0.0,0.0,0.0,0.0,0.0,0.0,0.0,0.0,0.0,0.0,0.0,0.0,0.0,0.0,0.0,0.0,0.0,0.0,0.0,0.0,0.0,0.0,0.0,0.0,0.0,0.0,0.0,0.0,0.0,0.0,0.0,0.0,0.0,0.0,0.0,0.0,0.0,0.0,0.0,0.0,0.0,0.0,0.0,0.0,0.0,0.0,0.0,0.0,0.0,0.0,0.0,0.0,0.0,0.0,0.0,0.0,0.0,0.0,0.0,0.0,0.0,0.0,0.0,0.0,0.0,0.0,0.0,0.0,0.0,0.0,0.0,0.0,0.0,0.0,0.0,0.0,0.0,0.0,0.0,0.0,0.0,0.0,0.0,0.0,0.0,0.0,0.0,0.0,0.0,0.0,0.0,0.0,0.0,0.0,0.0,0.0,0.0,0.0,0.0,0.0,0.0,0.0,0.0,0.0,0.0,0.0,0.0,0.0,0.0,0.0,0.0,0.0,0.0,0.0,0.0,0.0,0.0,0.0,0.0,0.0,0.0,0.0,0.0,0.0,0.0,0.0,0.0,0.0,0.0,0.0,0.0,0.0,0.0,0.0,0.0,0.0,0.0,0.0,0.0,0.0,0.0,0.0,0.0,0.0,0.0,0.0,0.0,0.0,0.0,0.0,0.0,0.0,0.0,0.0,0.0,0.0,0.0,0.0,0.0,0.0,0.0,0.0,0.0,0.0,0.0,0.0,0.0,0.0,0.0,0.0,0.0,0.0,0.0,0.0,0.0,0.0,0.0,0.0,0.0,0.0,0.0,0.0,0.0,0.0,0.0,0.0,0.0,0.0,0.0,0.0,0.0,0.0,0.0,0.0,0.0,0.0,0.0,0.0,0.0,0.0,0.0,0.0,0.0,0.0,0.0,0.0,0.0,0.0,0.0,0.0,0.0,0.0,0.0,0.0,0.0,0.0,0.0,0.0,0.0,0.0,0.0,0.0,0.0,0.0,0.0,0.0,0.0,0.0,0.0,0.0,0.0,0.0,0.0,0.0,0.0,0.0,0.0,0.0,0.0,0.0,0.0,0.0,0.0,0.0,0.0,0.0,0.0,0.0,0.0,0.0,0.0,0.0,0.0,0.0,0.0,0.0,0.0,0.0,0.0,0.0,0.0,0.0,0.0,0.0,0.0,0.0,0.0,0.0,0.0,0.0,0.0,0.0,0.0,0.0,0.0,0.0,0.0,0.0,0.0,0.0,0.0,0.0,0.0,0.0,0.0,0.0,0.0,0.0,0.0,0.0,0.0,0.0,0.0,0.0,0.0,0.0,0.0,0.0,0.0,0.0,0.0,0.0,0.0,0.0,0.0,0.0,0.0,0.0,0.0,0.0,0.0,0.0,0.0,0.0,0.0,0.0,0.0,0.0,0.0,0.0,0.0,0.0,0.0,0.0,0.0,0.0,0.0,0.0,0.0,0.0,0.0,0.0,0.0,0.0,0.0,0.0,0.0,0.0,0.0,0.0,0.0,0.0,0.0,0.0,0.0,0.0,0.0,0.0,0.0,0.0,0.0,0.0,0.0,0.0,0.0,0.0,0.0,0.0,0.0,0.0,0.0,0.0,0.0,0.0,0.0,0.0,0.0,0.0,0.0,0.0,0.0,0.0,0.0,0.0,0.0,0.0,0.0,0.0,0.0,0.0,0.0,0.0,0.0,0.0,0.0,0.0,0.0,0.0,0.0,0.0,0.0,0.0,0.0,0.0,0.0,0.0,0.0,0.0,0.0,0.0,0.0,0.0,0.0,0.0,0.0,0.0,0.0,0.0,0.0,0.0,0.0,0.0,0.0,0.0,0.0,0.0,0.0,0.0,0.0,0.0,0.0,0.0,0.0,0.0,0.0,0.0,0.0,0.0,0.0,0.0,0.0,0.0,0.0,0.0,0.0,0.0,0.0,0.0,0.0,0.0,0.0,0.0,0.0,0.0,0.0,0.0,0.0,0.0,0.0,0.0,0.0,0.0,0.0,0.0,0.0,0.0,0.0,0.0,0.0,0.0,0.0,0.0,0.0,0.0,0.0,0.0,0.0,0.0,0.0,0.0,0.0,0.0,0.0,0.0,0.0,0.0,0.0,0.0,0.0,0.0,0.0,0.0,0.0,0.0,0.0,0.0,0.0,0.0,0.0,0.0,0.0,0.0,0.0,0.0,0.0,0.0,0.0,0.0,0.0,0.0,0.0,0.0,0.0,0.0,0.0,0.0,0.0,0.0,0.0,0.0,0.0,0.0,0.0,0.0,0.0,0.0,0.0,0.0,0.0,0.0,0.0,0.0,0.0,0.0,0.0,0.0,0.0,0.0,0.0,0.0,0.0,0.0,0.0,0.0,0.0,0.0,0.0,0.0,0.0,0.0,0.0,0.0,0.0,0.0,0.0,0.0,0.0,0.0,0.0,0.0,0.0,0.0,0.0,0.0,0.0,0.0,0.0,0.0,0.0,0.0,0.0,0.0,0.0,0.0,0.0,0.0,0.0,0.0,0.0,0.0,0.0,0.0,0.0,0.0,0.0,0.0,0.0,0.0,0.0,0.0,0.0,0.0,0.0,0.0,0.0,0.0,0.0,0.0,0.0,0.0,0.0,0.0,0.0,0.0,0.0,0.0,0.0,0.0,0.0,0.0,0.0,0.0,0.0,0.0,0.0,0.0,0.0,0.0,0.0,0.0,0.0,0.0,0.0,0.0,0.0,0.0,0.0,0.0,0.0,0.0,0.0,0.0,0.0,0.0,0.0,0.0,0.0,0.0,0.0,0.0,0.0,0.0,0.0,0.0,0.0,0.0,0.0,0.0,0.0,0.0,0.0,0.0,0.0,0.0,0.0,0.0,0.0,0.0,0.0,0.0,0.0,0.0,0.0,0.0,0.0,0.0,0.0,0.0,0.0,0.0,0.0,0.0,0.0,0.0,0.0,0.0,0.0,0.0,0.0,0.0,0.0,0.0,0.0,0.0,0.0,0.0,0.0,0.0,0.0,0.0,0.0,0.0,0.0,0.0,0.0,0.0,0.0,0.0,0.0,0.0,0.0,0.0,0.0,0.0,0.0,0.0,0.0,0.0,0.0,0.0,0.0,0.0,0.0,0.0,0.0,0.0,0.0,0.0,0.0,0.0,0.0,0.0,0.0,0.0,0.0,0.0,0.0,0.0,0.0,0.0,0.0,0.0,0.0,0.0,0.0,0.0,0.0,0.0,0.0,0.0,0.0,0.0,0.0,0.0,0.0,0.0,0.0,0.0,0.0,0.0,0.0,0.0,0.0,0.0,0.0,0.0,0.0,0.0,0.0,0.0,0.0,0.0,0.0,0.0,0.0,0.0,0.0,0.0,0.0,0.0,0.0,0.0,0.0,0.0,0.0,0.0,0.0,0.0,0.0,0.0,0.0,0.0,0.0,0.0,0.0,0.0,0.0,0.0,0.0,0.0,0.0,0.0,0.0,0.0,0.0,0.0,0.0,0.0,0.0,0.0,0.0,0.0,0.0,0.0,0.0,0.0,0.0,0.0,0.0,0.0,0.0,0.0,0.0,0.0,0.0,0.0,0.0,0.0,0.0,0.0,0.0,0.0,0.0,0.0,0.0,0.0,0.0,0.0,0.0,0.0,0.0,0.0,0.0,0.0,0.0,0.0,0.0,0.0,0.0,0.0,0.0,0.0,0.0,0.0,0.0,0.0,0.0,0.0,0.0,0.0,0.0,0.0,0.0,0.0,0.0,0.0,0.0,0.0,0.0,0.0,0.0,0.0,0.0,0.0,0.0,0.0,0.0,0.0,0.0,0.0,0.5301,0.0,0.0,0.0,0.0,0.0,0.0,0.0,0.0,0.0,0.0,0.0,0.0,0.0,0.0,0.0,0.0,0.0,0.0,0.0,0.0,0.0,0.0,0.0,0.0,0.0,0.0,0.0,0.0,0.0,0.0,0.0,0.0,0.0,0.0,0.0,0.0,0.0,0.0,0.0,0.0,0.0,0.0,0.0,0.0,0.0,0.0,0.0,0.0,0.0,0.0,0.0,0.0,0.0,0.0,0.0,0.0,0.0,0.0,0.0,0.0,0.0,0.0,0.0,0.0,0.0,0.0,0.0,0.0,0.0,0.0,0.0,0.0,0.0,0.0,0.0,0.0,0.0,0.0,0.0,0.0,0.0,0.0,0.0,0.0,0.0,0.0,0.0,0.0,0.0,0.0,0.0,0.0,0.0,0.0,0.0,0.0,0.0,0.0,0.0,0.0,0.0,0.0,0.0,0.0,0.0,0.0,0.0,0.0,0.0,0.0,0.5517,0.5462,0.5458,0.5407,0.5301,0.0,0.0,0.0,0.0,0.0,0.0,0.0,0.0,0.0,0.0,0.0,0.0,0.0,0.0,0.0,0.0,0.0,0.0,0.0,0.0,0.0,0.0,0.0,0.0,0.0,0.0,0.0,0.0,0.0,0.0,0.0,0.0,0.0,0.0,0.0,0.0,0.0,0.0,0.0,0.0,0.0,0.0,0.0,0.0,0.0,0.0,0.0,0.0,0.0,0.0,0.0,0.0,0.0,0.0,0.0,0.0,0.0,0.0,0.0,0.0,0.0,0.0,0.0,0.0,0.0,0.0,0.0,0.0,0.0,0.0,0.0,0.0,0.0,0.0,0.0,0.0,0.0,0.0,0.0,0.0,0.0,0.0,0.0,0.0,0.0,0.0,0.0,0.0,0.0,0.0,0.0,0.0,0.0,0.0,0.0,0.0,0.0,0.0,0.0,0.0,0.0,0.0,0.0,0.0,0.0,0.0,0.0,0.0,0.0,0.0,0.0,0.0,0.5677,0.5517,0.5301,0.0,0.0,0.0,0.0,0.0,0.0,0.0,0.0,0.0,0.0,0.0,0.0,0.0,0.0,0.0,0.0,0.0,0.0,0.0,0.0,0.0,0.0,0.0,0.0,0.0,0.0,0.0,0.0,0.0,0.0,0.0,0.0,0.0,0.0,0.0,0.0,0.0,0.0,0.0,0.0,0.0,0.0,0.0,0.0,0.0,0.0,0.0,0.0,0.0,0.0,0.0,0.0,0.0,0.0,0.0,0.0,0.0,0.0,0.0,0.0,0.0,0.0,0.0,0.0,0.0,0.0,0.0,0.0,0.0,0.0,0.0,0.0,0.0,0.0,0.0,0.0,0.0,0.0,0.0,0.0,0.0,0.0,0.0,0.0,0.0,0.0,0.0,0.0,0.0,0.0,0.0,0.0,0.0,0.0,0.0,0.0,0.0,0.0,0.0,0.0,0.0,0.0,0.0,0.0,0.0,0.0,0.0,0.0,0.0,0.0,0.6,0.5946,0.5845,0.0,0.5352,0.0,0.0,0.0,0.0,0.0,0.0,0.0,0.0,0.0,0.0,0.0,0.0,0.0,0.0,0.0,0.0,0.0,0.0,0.0,0.0,0.0,0.0,0.0,0.0,0.0,0.0,0.0,0.0,0.0,0.0,0.0,0.0,0.0,0.0,0.0,0.0,0.0,0.0,0.0,0.0,0.0,0.0,0.0,0.0,0.0,0.0,0.0,0.0,0.0,0.0,0.0,0.0,0.0,0.0,0.0,0.0,0.0,0.0,0.0,0.0,0.0,0.0,0.0,0.0,0.0,0.0,0.0,0.0,0.0,0.0,0.0,0.0,0.0,0.0,0.0,0.0,0.0,0.0,0.0,0.0,0.0,0.0,0.0,0.0,0.0,0.0,0.0,0.0,0.0,0.0,0.0,0.0,0.0,0.0,0.0,0.0,0.0,0.0,0.0,0.0,0.0,0.0,0.0,0.0,0.0,0.0,0.0,0.0,0.0,0.0,0.6598,0.6436,0.6005,0.5686,0.0,0.0,0.0,0.0,0.0,0.0,0.0,0.0,0.0,0.0,0.0,0.0,0.0,0.0,0.0,0.0,0.0,0.0,0.0,0.0,0.0,0.0,0.0,0.0,0.0,0.0,0.0,0.0,0.0,0.0,0.0,0.0,0.0,0.0,0.0,0.0,0.0,0.0,0.0,0.0,0.0,0.0,0.0,0.0,0.0,0.0,0.0,0.0,0.0,0.0,0.0,0.0,0.0,0.0,0.0,0.0,0.0,0.0,0.0,0.0,0.0,0.0,0.0,0.0,0.0,0.0,0.0,0.0,0.0,0.0,0.0,0.0,0.0,0.0,0.0,0.0,0.0,0.0,0.0,0.0,0.0,0.0,0.0,0.0,0.0,0.0,0.0,0.0,0.0,0.0,0.0,0.0,0.0,0.0,0.0,0.0,0.0,0.0,0.0,0.0,0.0,0.0,0.0,0.0,0.0,0.0,0.0,0.0,0.0,0.0,0.7246,0.7196,0.6853,0.6256,0.59,0.5732,0.0,0.0,0.0,0.0,0.0,0.0,0.0,0.0,0.0,0.0,0.0,0.0,0.0,0.0,0.0,0.0,0.0,0.0,0.0,0.0,0.0,0.0,0.0,0.0,0.0,0.0,0.0,0.0,0.0,0.0,0.0,0.0,0.0,0.0,0.0,0.0,0.0,0.0,0.0,0.0,0.0,0.0,0.0,0.0,0.0,0.0,0.0,0.0,0.0,0.0,0.0,0.0,0.0,0.0,0.0,0.0,0.0,0.0,0.0,0.0,0.0,0.0,0.0,0.0,0.0,0.0,0.0,0.0,0.0,0.0,0.0,0.0,0.0,0.0,0.0,0.0,0.0,0.0,0.0,0.0,0.0,0.0,0.0,0.0,0.0,0.0,0.0,0.0,0.0,0.0,0.0,0.0,0.0,0.0,0.0,0.0,0.0,0.0,0.0,0.0,0.0,0.0,0.0,0.0,0.0,0.0,0.0,0.0,0.7502,0.7871,0.7824,0.7311,0.6714,0.6277,0.0,0.0,0.0,0.0,0.0,0.0,0.0,0.0,0.0,0.0,0.0,0.0,0.0,0.0,0.0,0.0,0.0,0.0,0.0,0.0,0.0,0.0,0.0,0.0,0.0,0.0,0.0,0.0,0.0,0.0,0.0,0.0,0.0,0.0,0.0,0.0,0.0,0.0,0.0,0.0,0.0,0.0,0.0,0.0,0.0,0.0,0.0,0.0,0.0,0.0,0.0,0.0,0.0,0.0,0.0,0.0,0.0,0.0,0.0,0.0,0.0,0.0,0.0,0.0,0.0,0.0,0.0,0.0,0.0,0.0,0.0,0.0,0.0,0.0,0.0,0.0,0.0,0.0,0.0,0.0,0.0,0.0,0.0,0.0,0.0,0.0,0.0,0.0,0.0,0.0,0.0,0.0,0.0,0.0,0.0,0.0,0.0,0.0,0.0,0.0,0.0,0.0,0.0,0.0,0.0,0.0,0.0,0.0,0.0,0.8497,0.8516,0.8323,0.7897,0.7298,0.6749,0.0,0.0,0.0,0.0,0.0,0.0,0.0,0.0,0.0,0.0,0.0,0.0,0.0,0.0,0.0,0.0,0.0,0.0,0.0,0.0,0.0,0.0,0.0,0.0,0.0,0.0,0.0,0.0,0.0,0.0,0.0,0.0,0.0,0.0,0.0,0.0,0.0,0.0,0.0,0.0,0.0,0.0,0.0,0.0,0.0,0.0,0.0,0.0,0.0,0.0,0.0,0.0,0.0,0.0,0.0,0.0,0.0,0.0,0.0,0.0,0.0,0.0,0.0,0.0,0.0,0.0,0.0,0.0,0.0,0.0,0.0,0.0,0.0,0.0,0.0,0.0,0.0,0.0,0.0,0.0,0.0,0.0,0.0,0.0,0.0,0.0,0.0,0.0,0.0,0.0,0.0,0.0,0.0,0.0,0.0,0.0,0.0,0.0,0.0,0.0,0.0,0.0,0.0,0.0,0.0,0.0,0.0,0.0,0.0,0.9307,0.0,0.8906,0.8491,0.7994,0.7383,0.0,0.0,0.0,0.0,0.0,0.0,0.0,0.0,0.0,0.0,0.0,0.0,0.0,0.0,0.0,0.0,0.0,0.0,0.0,0.0,0.0,0.0,0.0,0.0,0.0,0.0,0.0,0.0,0.0,0.0,0.0,0.0,0.0,0.0,0.0,0.0,0.0,0.0,0.0,0.0,0.0,0.0,0.0,0.0,0.0,0.0,0.0,0.0,0.0,0.0,0.0,0.0,0.0,0.0,0.0,0.0,0.0,0.0,0.0,0.0,0.0,0.0,0.0,0.0,0.0,0.0,0.0,0.0,0.0,0.0,0.0,0.0,0.0,0.0,0.0,0.0,0.0,0.0,0.0,0.0,0.0,0.0,0.0,0.0,0.0,0.0,0.0,0.0,0.0,0.0,0.0,0.0,0.0,0.0,0.0,0.0,0.0,0.0,0.0,0.0,0.0,0.0,0.0,0.0,0.0,0.0,0.0,0.0,0.9977,0.9964,0.978,0.9505,0.9187,0.8801,0.8201,0.0,0.0,0.0,0.0,0.0,0.0,0.0,0.0,0.0,0.0,0.0,0.0,0.0,0.0,0.0,0.0,0.0,0.0,0.0,0.0,0.0,0.0,0.0,0.0,0.0,0.0,0.0,0.0,0.0,0.0,0.0,0.0,0.0,0.0,0.0,0.0,0.0,0.0,0.0,0.0,0.0,0.0,0.0,0.0,0.0,0.0,0.0,0.0,0.0,0.0,0.0,0.0,0.0,0.0,0.0,0.0,0.0,0.0,0.0,0.0,0.0,0.0,0.0,0.0,0.0,0.0,0.0,0.0,0.0,0.0,0.0,0.0,0.0,0.0,0.0,0.0,0.0,0.0,0.0,0.0,0.0,0.0,0.0,0.0,0.0,0.0,0.0,0.0,0.0,0.0,0.0,0.0,0.0,0.0,0.0,0.0,0.0,0.0,0.0,0.0,0.0,0.0,0.0,0.0,0.0,0.0,0.0,0.0,0.0,1.0434,1.0223,0.9899,0.9585,0.9181,0.8645,0.0,0.0,0.0,0.0,0.0,0.0,0.0,0.0,0.0,0.0,0.0,0.0,0.0,0.0,0.0,0.0,0.0,0.0,0.0,0.0,0.0,0.0,0.0,0.0,0.0,0.0,0.0,0.0,0.0,0.0,0.0,0.0,0.0,0.0,0.0,0.0,0.0,0.0,0.0,0.0,0.0,0.0,0.0,0.0,0.0,0.0,0.0,0.0,0.0,0.0,0.0,0.0,0.0,0.0,0.0,0.0,0.0,0.0,0.0,0.0,0.0,0.0,0.0,0.0,0.0,0.0,0.0,0.0,0.0,0.0,0.0,0.0,0.0,0.0,0.0,0.0,0.0,0.0,0.0,0.0,0.0,0.0,0.0,0.0,0.0,0.0,0.0,0.0,0.0,0.0,0.0,0.0,0.0,0.0,0.0,0.0,0.0,0.0,0.0,0.0,0.0,0.0,0.0,0.0,0.0,0.0,0.0,0.0,0.0,1.0722,1.0657,1.0379,1.0084,0.9819,0.9264,0.8483,0.0,0.0,0.0,0.0,0.0,0.0,0.0,0.0,0.0,0.0,0.0,0.0,0.0,0.0,0.0,0.0,0.0,0.0,0.0,0.0,0.0,0.0,0.0,0.0,0.0,0.0,0.0,0.0,0.0,0.0,0.0,0.0,0.0,0.0,0.0,0.0,0.0,0.0,0.0,0.0,0.0,0.0,0.0,0.0,0.0,0.0,0.0,0.0,0.0,0.0,0.0,0.0,0.0,0.0,0.0,0.0,0.0,0.0,0.0,0.0,0.0,0.0,0.0,0.0,0.0,0.0,0.0,0.0,0.0,0.0,0.0,0.0,0.0,0.0,0.0,0.0,0.0,0.0,0.0,0.0,0.0,0.0,0.0,0.0,0.0,0.0,0.0,0.0,0.0,0.0,0.0,0.0,0.0,0.0,0.0,0.0,0.0,0.0,0.0,0.0,0.0,0.0,0.0,0.0,0.0,0.0,0.0,0.0,1.1035,1.1042,1.0969,1.0744,1.0599,1.003,0.0,0.0,0.0,0.0,0.0,0.0,0.0,0.0,0.0,0.0,0.0,0.0,0.0,0.0,0.0,0.0,0.0,0.0,0.0,0.0,0.0,0.0,0.0,0.0,0.0,0.0,0.0,0.0,0.0,0.0,0.0,0.0,0.0,0.0,0.0,0.0,0.0,0.0,0.0,0.0,0.0,0.0,0.0,0.0,0.0,0.0,0.0,0.0,0.0,0.0,0.0,0.0,0.0,0.0,0.0,0.0,0.0,0.0,0.0,0.0,0.0,0.0,0.0,0.0,0.0,0.0,0.0,0.0,0.0,0.0,0.0,0.0,0.0,0.0,0.0,0.0,0.0,0.0,0.0,0.0,0.0,0.0,0.0,0.0,0.0,0.0,0.0,0.0,0.0,0.0,0.0,0.0,0.0,0.0,0.0,0.0,0.0,0.0,0.0,0.0,0.0,0.0,0.0,0.0,0.0,0.0,0.0,0.0,0.0,1.1617,1.1643,1.1467,1.1051,1.0775,1.0403,0.0,0.0,0.0,0.0,0.0,0.0,0.0,0.0,0.0,0.0,0.0,0.0,0.0,0.0,0.0,0.0,0.0,0.0,0.0,0.0,0.0,0.0,0.0,0.0,0.0,0.0,0.0,0.0,0.0,0.0,0.0,0.0,0.0,0.0,0.0,0.0,0.0,0.0,0.0,0.0,0.0,0.0,0.0,0.0,0.0,0.0,0.0,0.0,0.0,0.0,0.0,0.0,0.0,0.0,0.0,0.0,0.0,0.0,0.0,0.0,0.0,0.0,0.0,0.0,0.0,0.0,0.0,0.0,0.0,0.0,0.0,0.0,0.0,0.0,0.0,0.0,0.0,0.0,0.0,0.0,0.0,0.0,0.0,0.0,0.0,0.0,0.0,0.0,0.0,0.0,0.0,0.0,0.0,0.0,0.0,0.0,0.0,0.0,0.0,0.0,0.0,0.0,0.0,0.0,0.0,0.0,0.0,0.0,1.1456,1.2037,1.2171,1.2158,1.184,1.1257,1.0715,0.0,0.0,0.0,0.0,0.0,0.0,0.0,0.0,0.0,0.0,0.0,0.0,0.0,0.0,0.0,0.0,0.0,0.0,0.0,0.0,0.0,0.0,0.0,0.0,0.0,0.0,0.0,0.0,0.0,0.0,0.0,0.0,0.0,0.0,0.0,0.0,0.0,0.0,0.0,0.0,0.0,0.0,0.0,0.0,0.0,0.0,0.0,0.0,0.0,0.0,0.0,0.0,0.0,0.0,0.0,0.0,0.0,0.0,0.0,0.0,0.0,0.0,0.0,0.0,0.0,0.0,0.0,0.0,0.0,0.0,0.0,0.0,0.0,0.0,0.0,0.0,0.0,0.0,0.0,0.0,0.0,0.0,0.0,0.0,0.0,0.0,0.0,0.0,0.0,0.0,0.0,0.0,0.0,0.0,0.0,0.0,0.0,0.0,0.0,0.0,0.0,0.0,0.0,0.0,0.0,0.0,0.0,0.0,1.1797,1.2385,1.2659,1.2869,1.2842,1.1827,1.1165,0.0,0.0,0.0,0.0,0.0,0.0,0.0,0.0,0.0,0.0,0.0,0.0,0.0,0.0,0.0,0.0,0.0,0.0,0.0,0.0,0.0,0.0,0.0,0.0,0.0,0.0,0.0,0.0,0.0,0.0,0.0,0.0,0.0,0.0,0.0,0.0,0.0,0.0,0.0,0.0,0.0,0.0,0.0,0.0,0.0,0.0,0.0,0.0,0.0,0.0,0.0,0.0,0.0,0.0,0.0,0.0,0.0,0.0,0.0,0.0,0.0,0.0,0.0,0.0,0.0,0.0,0.0,0.0,0.0,0.0,0.0,0.0,0.0,0.0,0.0,0.0,0.0,0.0,0.0,0.0,0.0,0.0,0.0,0.0,0.0,0.0,0.0,0.0,0.0,0.0,0.0,0.0,0.0,0.0,0.0,0.0,0.0,0.0,0.0,0.0,0.0,0.0,0.0,0.0,0.0,0.0,0.0,0.0,1.256,1.2999,1.308,1.3185,1.3321,1.2533,1.1735,0.0,0.0,0.0,0.0,0.0,0.0,0.0,0.0,0.0,0.0,0.0,0.0,0.0,0.0,0.0,0.0,0.0,0.0,0.0,0.0,0.0,0.0,0.0,0.0,0.0,0.0,0.0,0.0,0.0,0.0,0.0,0.0,0.0,0.0,0.0,0.0,0.0,0.0,0.0,0.0,0.0,0.0,0.0,0.0,0.0,0.0,0.0,0.0,0.5628,0.0,0.0,0.0,0.0,0.0,0.0,0.0,0.0,0.0,0.0,0.0,0.0,0.0,0.0,0.0,0.0,0.0,0.0,0.0,0.0,0.0,0.0,0.0,0.0,0.0,0.0,0.0,0.0,0.0,0.0,0.0,0.0,0.0,0.0,0.0,0.0,0.0,0.0,0.0,0.0,0.0,0.0,0.0,0.0,0.0,0.0,0.0,0.0,0.0,0.0,0.0,0.0,0.0,0.0,0.0,0.0,0.0,0.0,0.0,1.2893,1.338,1.3414,1.3487,1.37,1.3321,1.2668,0.0,0.0,0.0,0.0,0.0,0.0,0.0,0.0,0.0,0.0,0.0,0.0,0.0,0.0,0.0,0.0,0.0,0.0,0.0,0.0,0.0,0.0,0.0,0.0,0.0,0.0,0.0,0.0,0.0,0.0,0.0,0.0,0.0,0.0,0.0,0.0,0.0,0.0,0.0,0.0,0.0,0.0,0.0,0.0,0.0,0.0,0.0,0.0,0.0,0.0,0.0,0.0,0.0,0.0,0.0,0.0,0.0,0.0,0.0,0.0,0.0,0.0,0.0,0.0,0.0,0.0,0.0,0.0,0.0,0.0,0.0,0.0,0.0,0.0,0.0,0.0,0.0,0.0,0.0,0.0,0.0,0.0,0.0,0.0,0.0,0.0,0.0,0.0,0.0,0.0,0.0,0.0,0.0,0.0,0.0,0.0,0.0,0.0,0.0,0.0,0.0,0.0,0.0,0.0,0.0,0.0,0.0,1.2712,1.316,1.3743,1.379,1.3865,1.4185,1.4056,1.3641,1.2714,0.0,0.0,0.0,0.0,0.0,0.0,0.0,0.0,0.0,0.0,0.0,0.0,0.0,0.0,0.0,0.0,0.0,0.0,0.0,0.0,0.0,0.0,0.0,0.0,0.0,0.0,0.0,0.0,0.0,0.0,0.0,0.0,0.0,0.0,0.0,0.0,0.0,0.0,0.5199,0.5329,0.0,0.0,0.0,0.0,0.0,0.0,0.0,0.0,0.5182,0.0,0.0,0.0,0.0,0.0,0.0,0.0,0.0,0.0,0.0,0.0,0.0,0.0,0.0,0.0,0.0,0.0,0.0,0.0,0.0,0.0,0.0,0.0,0.0,0.0,0.0,0.0,0.0,0.0,0.0,0.0,0.0,0.0,0.0,0.0,0.0,0.0,0.0,0.0,0.0,0.0,0.0,0.0,0.0,0.0,0.0,0.0,0.0,0.0,0.0,0.0,0.0,0.0,0.0,0.0,0.0,1.3034,1.3611,1.4071,1.4476,1.4497,1.4664,1.492,1.4501,1.3981,1.3331,0.0,0.0,0.0,0.0,0.0,0.0,0.0,0.0,0.0,0.0,0.0,0.0,0.0,0.0,0.0,0.0,0.0,0.0,0.0,0.0,0.0,0.0,0.0,0.0,0.0,0.0,0.0,0.0,0.0,0.0,0.0,0.0,0.0,0.0,0.0,0.0,0.0,0.0,0.0,0.5532,0.5686,0.0,0.0,0.0,0.0,0.0,0.0,0.0,0.0,0.5,0.0,0.0,0.0,0.0,0.0,0.0,0.0,0.0,0.0,0.0,0.0,0.0,0.0,0.0,0.0,0.0,0.0,0.0,0.0,0.0,0.0,0.0,0.0,0.0,0.0,0.0,0.0,0.0,0.0,0.0,0.0,0.0,0.0,0.0,0.0,0.0,0.0,0.0,0.0,0.0,0.0,0.0,0.0,0.0,0.0,0.0,0.0,0.0,0.0,0.0,0.0,0.0,0.0,0.0,0.0,1.3429,1.4059,1.4448,1.472,1.4734,1.4824,1.5082,1.47,1.4166,0.0,0.0,0.0,0.0,0.0,0.0,0.0,0.0,0.0,0.0,0.0,0.0,0.0,0.0,0.0,0.0,0.0,0.0,0.0,0.0,0.0,0.0,0.0,0.0,0.0,0.0,0.0,0.0,0.0,0.0,0.0,0.0,0.0,0.0,0.0,0.0,0.0,0.0,0.0,0.0,0.5656,0.6184,0.6572,0.0,0.0,0.0,0.0,0.0,0.0,0.5457,0.4647,0.0,0.0,0.0,0.0,0.0,0.0,0.0,0.0,0.0,0.0,0.0,0.0,0.0,0.0,0.0,0.0,0.0,0.0,0.0,0.0,0.0,0.0,0.0,0.0,0.0,0.0,0.0,0.0,0.0,0.0,0.0,0.0,0.0,0.0,0.0,0.0,0.0,0.0,0.0,0.0,0.0,0.0,0.0,0.0,0.0,0.0,0.0,0.0,0.0,0.0,0.0,0.0,0.0,0.0,0.0,1.3741,1.4432,1.486,1.4902,1.4979,1.5092,1.5353,1.4928,1.4359,0.0,0.0,0.0,0.0,0.0,0.0,0.0,0.0,0.0,0.0,0.0,0.0,0.0,0.0,0.0,0.0,0.0,0.0,0.0,0.0,0.0,0.0,0.0,0.0,0.0,0.0,0.0,0.0,0.0,0.0,0.0,0.0,0.0,0.0,0.0,0.0,0.0,0.0,0.0,0.0,0.0,0.6314,0.6887,0.6719,0.0,0.0,0.0,0.0,0.5827,0.5202,0.0,0.0,0.0,0.0,0.0,0.0,0.0,0.0,0.0,0.0,0.0,0.0,0.0,0.0,0.0,0.0,0.0,0.0,0.0,0.0,0.0,0.0,0.0,0.0,0.0,0.0,0.0,0.0,0.0,0.0,0.0,0.0,0.0,0.0,0.0,0.0,0.0,0.0,0.0,0.0,0.0,0.0,0.0,0.0,0.0,0.0,0.0,0.0,0.0,0.0,0.0,0.0,0.0,0.0,0.0,0.0,1.4223,1.4904,1.5449,1.5762,1.6031,1.6257,1.625,1.5318,1.4547,0.0,0.0,0.0,0.0,0.0,0.0,0.0,0.0,0.0,0.0,0.0,0.0,0.0,0.0,0.0,0.0,0.0,0.0,0.0,0.0,0.0,0.0,0.0,0.0,0.0,0.0,0.0,0.0,0.0,0.0,0.0,0.0,0.0,0.0,0.0,0.0,0.0,0.0,0.0,0.0,0.0,0.5591,0.6803,0.6193,0.5829,0.0,0.0,0.0,0.5544,0.5315,0.0,0.0,0.0,0.0,0.0,0.0,0.0,0.0,0.0,0.0,0.0,0.0,0.0,0.0,0.0,0.0,0.0,0.0,0.0,0.0,0.0,0.0,0.0,0.0,0.0,0.0,0.0,0.0,0.0,0.0,0.0,0.0,0.0,0.0,0.0,0.0,0.0,0.0,0.0,0.0,0.0,0.0,0.0,0.0,0.0,0.0,0.0,0.0,0.0,0.0,0.0,0.0,0.0,0.0,0.0,1.4528,1.4829,1.6118,1.6533,1.6257,1.6301,1.6367,1.6367,1.5621,1.4911,0.0,0.0,0.0,0.0,0.0,0.0,0.0,0.0,0.0,0.0,0.0,0.0,0.0,0.0,0.0,0.0,0.0,0.0,0.0,0.0,0.0,0.0,0.0,0.0,0.0,0.0,0.0,0.0,0.0,0.0,0.0,0.0,0.0,0.0,0.0,0.0,0.0,0.0,0.0,0.0,0.0,0.0,0.5846,0.6998,0.0,0.0,0.0,0.4643,0.4947,0.0,0.0,0.0,0.0,0.0,0.0,0.0,0.0,0.0,0.0,0.0,0.0,0.0,0.0,0.0,0.0,0.0,0.0,0.0,0.0,0.0,0.0,0.0,0.0,0.0,0.0,0.0,0.0,0.0,0.0,0.0,0.0,0.0,0.0,0.0,0.0,0.0,0.0,0.0,0.0,0.0,0.0,0.0,0.0,0.0,0.0,0.0,0.0,0.0,0.0,0.0,0.0,0.0,0.0,0.0,0.0,0.0,1.572,1.7464,1.7874,1.6921,1.6914,1.687,1.6594,1.5994,0.0,0.0,0.0,0.0,0.0,0.0,0.0,0.0,0.0,0.0,0.0,0.0,0.0,0.0,0.0,0.0,0.0,0.0,0.0,0.0,0.0,0.0,0.0,0.0,0.0,0.0,0.0,0.3047,0.0,0.0,0.0,0.0,0.0,0.0,0.0,0.0,0.0,0.0,0.0,0.0,0.0,0.0,0.4799,0.5106,0.7041,0.7856,0.0,0.0,0.4389,0.4526,0.4451,0.4258,0.0,0.0,0.0,0.0,0.0,0.0,0.0,0.0,0.0,0.0,0.0,0.0,0.0,0.0,0.0,0.0,0.0,0.0,0.0,0.0,0.0,0.0,0.0,0.0,0.0,0.0,0.0,0.0,0.0,0.0,0.0,0.0,0.0,0.0,0.0,0.0,0.0,0.0,0.0,0.0,0.0,0.0,0.0,0.0,0.0,0.0,0.0,0.0,0.0,0.0,0.0,0.0,0.0,0.0,0.0,1.7187,1.882,1.9201,1.824,1.8458,1.8172,1.7252,1.6638,1.587,0.0,0.0,0.0,0.0,0.0,0.0,0.0,0.0,0.0,0.0,0.0,0.0,0.0,0.0,0.0,0.0,0.0,0.0,0.0,0.0,0.0,0.0,0.0,0.0,0.0,0.0,0.0,0.0,0.0,0.0,0.0,0.0,0.0,0.0,0.0,0.0,0.0,0.0,0.0,0.0,0.0,0.4178,0.4963,0.5097,0.527,0.0,0.0,0.4624,0.4612,0.4685,0.446,0.3699,0.0,0.0,0.0,0.0,0.0,0.0,0.0,0.0,0.0,0.0,0.0,0.0,0.0,0.0,0.0,0.0,0.0,0.0,0.0,0.0,0.0,0.0,0.0,0.0,0.0,0.0,0.0,0.0,0.0,0.0,0.0,0.0,0.0,0.0,0.0,0.0,0.0,0.0,0.0,0.0,0.0,0.0,0.0,0.0,0.0,0.0,0.0,0.0,0.0,0.0,0.0,0.0,0.0,1.7369,1.7899,1.9912,2.0473,1.9479,1.962,1.9247,1.8241,1.7787,1.6995,0.0,0.0,0.0,0.0,0.0,0.0,0.0,0.0,0.0,0.0,0.0,0.0,0.0,0.0,0.0,0.0,0.0,0.0,0.0,0.0,0.0,0.0,0.0,0.0,0.0,0.0,0.0,0.0,0.3636,0.3716,0.3634,0.0,0.0,0.0,0.0,0.0,0.0,0.0,0.0,0.0,0.0,0.4008,0.4447,0.4665,0.0,0.0,0.4884,0.4631,0.4493,0.4591,0.4464,0.3873,0.3626,0.0,0.0,0.0,0.0,0.0,0.0,0.0,0.0,0.0,0.0,0.0,0.0,0.0,0.0,0.0,0.0,0.0,0.0,0.0,0.0,0.0,0.0,0.0,0.0,0.0,0.0,0.0,0.0,0.0,0.0,0.0,0.0,0.0,0.0,0.0,0.0,0.0,0.0,0.0,0.0,0.0,0.0,0.0,0.0,0.0,0.0,0.0,0.0,0.0,0.0,0.0,0.0,1.8329,1.8811,2.1003,2.1686,2.0683,2.0692,2.015,1.9239,1.8995,1.8266,0.0,0.0,0.0,0.0,0.0,0.0,0.0,0.0,0.0,0.0,0.0,0.0,0.0,0.0,0.0,0.0,0.0,0.0,0.0,0.0,0.0,0.0,0.0,0.0,0.0,0.0,0.0,0.0,0.3765,0.3789,0.3607,0.0,0.0,0.0,0.0,0.0,0.0,0.0,0.0,0.0,0.0,0.4026,0.4141,0.4547,0.4716,0.4589,0.466,0.4606,0.441,0.4449,0.4334,0.3976,0.0,0.0,0.0,0.0,0.0,0.0,0.0,0.0,0.0,0.0,0.0,0.0,0.0,0.0,0.0,0.0,0.0,0.0,0.0,0.0,0.0,0.0,0.0,0.0,0.0,0.0,0.0,0.0,0.0,0.0,0.0,0.0,0.0,0.0,0.0,0.0,0.0,0.0,0.0,0.0,0.0,0.0,0.0,0.0,0.0,0.0,0.0,0.0,0.0,0.0,0.0,0.0,0.0,1.9066,2.0007,2.1969,2.2599,2.1695,2.1695,2.115,2.0232,2.0133,1.9864,1.9196,0.0,0.0,0.0,0.0,0.0,0.0,0.0,0.0,0.0,0.0,0.0,0.0,0.0,0.0,0.0,0.0,0.0,0.0,0.0,0.0,0.0,0.0,0.0,0.0,0.0,0.0,0.3614,0.371,0.3695,0.0,0.0,0.0,0.0,0.0,0.0,0.0,0.0,0.0,0.0,0.3901,0.4148,0.4152,0.453,0.4691,0.4332,0.4335,0.4303,0.4293,0.4304,0.4214,0.0,0.0,0.0,0.0,0.0,0.0,0.0,0.0,0.0,0.0,0.0,0.0,0.0,0.0,0.0,0.0,0.0,0.0,0.0,0.0,0.0,0.0,0.0,0.0,0.0,0.0,0.0,0.0,1.986,0.0,0.0,0.0,0.0,0.0,0.0,0.0,0.0,0.0,0.0,0.0,1.8943,1.8943,0.0,0.0,0.0,0.0,0.0,0.0,0.0,0.0,0.0,0.0,0.0,0.0,1.9533,2.0652,2.2198,2.296,2.2599,2.2599,2.2148,2.1239,2.115,2.0695,1.9495,0.0,0.0,0.0,0.0,0.0,0.0,0.0,0.0,0.0,0.0,0.0,0.0,0.0,0.0,0.0,0.0,0.0,0.0,0.0,0.0,0.0,0.0,0.0,0.0,0.0,0.3652,0.0,0.0,0.0,0.0,0.0,0.0,0.0,0.0,0.0,0.0,0.0,0.3759,0.3931,0.3978,0.4122,0.4238,0.4387,0.4493,0.0,0.0,0.0,0.0,0.0,0.0,0.0,0.0,0.0,0.0,0.0,0.0,0.0,0.0,0.3294,0.2938,0.2935,0.3102,0.3047,0.0,0.0,0.0,0.0,0.0,0.0,0.0,0.0,0.0,0.0,0.0,0.0,0.0,0.0,0.0,0.0,2.181,0.0,0.0,0.0,0.0,0.0,0.0,0.0,0.0,2.0004,2.0382,2.0433,2.0423,2.0433,0.0,2.0049,1.9137,0.0,0.0,0.0,0.0,0.0,0.0,0.0,0.0,1.9931,2.1147,2.2582,2.3437,2.3574,2.3584,2.3306,2.2668,2.2288,2.1689,2.0819,1.9299,1.8012,0.0,0.0,0.0,0.0,0.0,0.0,0.0,0.0,0.0,0.0,0.0,0.0,0.0,0.0,0.0,0.0,0.0,0.0,0.0,0.0,0.0,0.0,0.0,0.381,0.0,0.0,0.0,0.0,0.0,0.0,0.0,0.0,0.0,0.3805,0.3942,0.4073,0.4161,0.4202,0.4208,0.4165,0.0,0.0,0.0,0.0,0.0,0.0,0.0,0.4057,0.4118,0.4439,0.468,0.4746,0.4382,0.404,0.3955,0.0,0.0,0.3499,0.3479,0.3573,0.3603,0.3606,0.3608,0.3606,0.3606,0.3606,0.0,0.0,0.0,0.0,0.0,0.0,0.0,0.0,2.3869,2.3682,0.0,2.3475,0.0,0.0,0.0,0.0,0.0,0.0,0.0,0.0,2.248,2.2814,2.2368,2.2339,2.2273,2.2254,2.1681,2.1248,2.0866,1.9715,0.0,0.0,0.0,0.0,0.0,0.0,2.0279,2.1682,2.3113,2.4004,2.4385,2.4404,2.4404,2.4312,2.3355,2.2868,2.2935,2.1131,1.9638,1.8507,1.7082,0.0,0.0,0.0,0.0,0.0,0.0,0.0,0.0,0.0,0.0,0.0,0.0,0.0,0.0,0.0,0.0,0.0,0.0,0.0,0.0,0.4151,0.0,0.0,0.0,0.0,0.0,0.0,0.0,0.0,0.0,0.0,0.3916,0.4132,0.4267,0.4189,0.0,0.0,0.0,0.0,0.4171,0.3852,0.4101,0.4184,0.3884,0.394,0.4104,0.4362,0.0,0.0,0.5711,0.4984,0.4322,0.4318,0.4463,0.443,0.3808,0.3842,0.3917,0.3894,0.3906,0.3915,0.3915,0.3994,0.4,2.6887,0.0,0.0,0.0,0.0,2.4835,2.5292,2.5796,2.6399,2.6269,2.5636,2.5765,0.0,0.0,0.0,0.0,0.0,0.0,2.3477,2.3515,2.4246,2.4691,2.4798,2.4788,2.4461,2.3886,2.3973,2.364,2.2978,2.284,2.157,1.9068,0.0,0.0,0.0,0.0,2.1625,2.2936,2.3783,2.4297,2.4414,2.4424,2.4424,2.4424,2.4137,2.356,2.2896,2.1719,2.0365,1.8935,1.7632,0.0,0.0,0.0,0.0,0.0,0.0,0.0,0.0,0.0,0.0,0.0,0.0,0.0,0.0,0.0,0.0,0.0,0.0,0.0,0.4477,0.4784,0.4722,0.0,0.0,0.0,0.0,0.0,0.0,0.0,0.0,0.0,0.4269,0.4236,0.4222,0.0,0.0,0.4144,0.4014,0.3978,0.4054,0.4228,0.0,0.0,0.0,0.4275,0.4438,0.5099,0.5578,0.5751,0.5141,0.4812,0.4681,0.4679,0.4724,0.4642,0.4505,0.4506,0.4532,0.4557,0.4563,0.4563,0.4561,0.4563,0.4563,2.9771,2.8157,2.6816,2.636,2.6444,2.6673,2.7107,2.7714,2.8118,2.7948,2.7324,2.7593,2.6935,2.5573,2.5343,0.0,0.0,0.0,2.5779,2.6099,2.6246,2.6451,2.6716,2.6642,2.6301,2.5797,2.59,2.5774,2.5262,2.5088,2.3978,2.1938,0.0,0.0,2.1151,2.1813,2.265,2.3741,2.437,2.4766,2.4932,2.4941,2.4941,2.4941,2.4544,2.4146,2.3965,2.2451,2.1196,2.0276,1.8871,1.7469,0.0,0.0,0.0,0.0,0.0,0.0,0.0,0.0,0.0,0.0,0.0,0.8597,0.8198,0.0,0.0,0.0,0.6947,0.6135,0.5874,0.5678,0.0,0.0,0.0,0.0,0.0,0.0,0.0,0.3922,0.4116,0.4295,0.4416,0.4373,0.4336,0.4351,0.4324,0.4263,0.4155,0.0,0.4201,0.4477,0.458,0.4658,0.4639,0.454,0.4928,0.6225,0.6174,0.6287,0.6457,0.6131,0.5898,0.5893,0.5864,0.5734,0.5734,0.5766,0.5578,0.4941,0.4832,0.4832,0.4832,0.4832,0.4843,3.23,3.1988,2.9167,2.8226,2.8597,2.8533,2.8818,2.9197,2.9209,2.8885,2.8504,2.8971,2.8509,2.7363,2.7293,0.0,0.0,2.7925,2.8257,2.8632,2.8459,2.8298,2.8298,2.8113,2.8026,2.7939,2.7722,2.758,2.7403,2.6547,2.5909,2.5503,2.4135,2.2921,2.2169,2.2698,2.3393,2.4243,2.4828,2.5322,2.5732,2.5732,2.5732,2.5723,2.4698,2.4599,2.5411,2.3358,2.2077,2.1846,2.0352,1.8807,1.75,0.0,0.0,0.0,0.0,0.0,0.0,0.0,0.0,0.0,0.0,0.0,0.0,0.0,0.0,0.0,0.8271,0.0,0.8243,0.6844,0.0,0.0,0.0,0.4536,0.4212,0.4069,0.4108,0.4185,0.0,0.0,0.0,0.0,0.4577,0.4498,0.4622,0.4628,0.4375,0.4526,0.4587,0.4634,0.4905,0.5003,0.4751,0.4853,0.5595,0.7113,0.7004,0.7089,0.8347,0.805,0.7558,0.7446,0.7351,0.7178,0.7175,0.7274,0.7001,0.5383,0.5164,0.5063,0.517,0.5172,0.5302,3.3742,3.357,3.2219,3.1482,3.1143,3.055,3.0252,3.0241,2.9831,2.9696,2.9811,3.0119,3.0323,3.0381,3.0332,3.0318,3.0278,3.0306,3.0262,3.0205,3.0205,3.0121,3.0121,3.0121,2.9593,2.8838,2.9219,2.8953,2.8008,2.8167,2.8104,2.7893,2.7511,2.6134,2.3894,2.3971,2.4448,2.5314,2.5421,2.5625,2.5732,2.5732,2.5732,2.5732,2.543,2.502,2.4501,2.3898,2.2854,2.1257,2.0801,1.9744,1.8184,1.715,0.0,0.0,0.0,0.0,0.0,0.0,0.0,0.0,0.0,0.9635,0.9554,0.0,0.9878,0.0,0.9762,0.9485,0.8761,0.8332,0.0,0.0,0.6337,0.5426,0.5711,0.4987,0.4426,0.4379,0.4551,0.4692,0.4734,0.482,0.4896,0.4937,0.4863,0.4779,0.472,0.4834,0.4926,0.4894,0.5035,0.5188,0.5083,0.5527,0.631,0.7521,0.7536,0.753,0.7954,0.7928,0.7694,0.7691,0.7672,0.7648,0.7745,0.7675,0.7682,0.7235,0.7125,0.7125,0.7122,0.7119,0.7029,3.511,3.511,3.4649,3.4293,3.3912,3.2786,3.1959,3.1525,3.1615,3.1578,3.1401,3.1493,3.166,3.1954,3.1732,3.1597,3.161,3.1692,3.1816,3.1804,3.1804,3.1804,3.1804,3.172,3.1357,3.0747,3.0961,3.0754,3.0036,2.9942,2.9692,2.9521,2.905,2.7946,2.6372,2.6341,2.6151,2.5723,2.5732,2.5732,2.5732,2.5732,2.5644,2.5449,2.5254,2.4764,2.3975,2.322,2.2274,2.1113,2.0346,1.9497,1.8548,1.746,1.6521,0.0,0.0,0.0,0.0,0.0,0.0,0.0,0.0,0.0,0.0,0.0,1.0707,0.0,1.072,0.0,0.9763,0.9584,0.9296,0.908,0.7971,0.7287,0.7597,0.6517,0.592,0.5904,0.5567,0.5265,0.5163,0.5243,0.5214,0.5163,0.5116,0.5063,0.5035,0.5094,0.5155,0.5157,0.5198,0.523,0.523,0.5985,0.6845,0.7705,0.8135,0.8565,0.8994,0.9048,0.9005,0.9001,0.8948,0.8898,0.8902,0.8966,0.9005,0.9016,0.9062,0.8731,0.7979,0.7849,0.7861,3.6446,3.6431,3.6431,3.6475,3.6404,3.5083,3.4,3.3027,3.3698,3.3598,3.2988,3.2909,3.2948,3.2908,3.2268,3.2159,3.2353,3.2585,3.2896,3.3081,3.3081,3.3081,3.3068,3.2896,3.2711,3.2723,3.2562,3.2487,3.2388,3.1548,3.0991,3.0633,2.9795,2.9235,2.8958,2.905,2.8038,2.5917,2.5732,2.5703,2.5654,2.5644,2.5439,2.499,2.456,2.417,2.3809,2.2292,2.1356,2.1168,1.9812,1.8936,1.8737,1.7575,1.6742,0.0,1.5617,0.0,0.0,0.0,0.0,0.0,0.0,0.0,0.0,1.1725,1.1393,1.1154,1.1343,1.1367,1.1201,1.0674,1.0279,1.0145,0.9807,0.9559,0.9447,0.8367,0.7698,0.8023,0.712,0.6394,0.5967,0.6058,0.6127,0.5807,0.5859,0.5973,0.5715,0.5535,0.547,0.5493,0.5714,0.591,0.5915,0.6478,0.7249,0.8134,0.8893,0.9691,1.0453,1.0454,1.0357,1.0345,1.0245,1.0249,1.0229,1.0367,1.0353,1.0361,1.0462,1.0027,0.8731,0.8348,0.8152,3.7114,3.7114,3.7114,3.7404,3.7825,3.7526,3.6386,3.471,3.4245,3.4109,3.4375,3.4162,3.4071,3.4001,3.3195,3.2918,3.2918,3.3018,3.3068,3.3081,3.3081,3.3081,3.3081,3.3068,3.2896,3.2711,3.2896,3.2736,3.24,3.2363,3.2176,3.1749,3.1472,3.0913,0.0,0.0,0.0,0.0,2.61,2.5557,2.5205,2.5195,2.499,2.4551,2.4131,0.0,2.3779,2.2936,2.2078,2.1266,2.0709,0.0,0.0,0.0,0.0,0.0,0.0,0.0,0.0,0.0,0.0,0.0,1.4772,1.3676,1.2715,1.204,1.181,1.213,1.201,1.2109,1.2383,1.2139,1.2028,1.2366,1.1212,1.0634,1.0905,0.9864,0.915,0.9175,0.898,0.8528,0.7687,0.8333,0.8526,0.7654,0.7901,0.8235,0.8207,0.6581,0.5714,0.6381,0.6932,0.7479,0.7479,0.759,0.8257,0.9691,0.9695,0.9805,1.0468,1.0672,1.0639,1.0635,1.0615,1.0582,1.0582,1.0623,1.0631,1.0639,1.0668,1.0562,1.0276,1.0147,1.0163,3.7012,0.0,3.7302,3.7665,0.0,3.8202,3.7601,3.6639,3.6222,3.6226,3.6459,3.5839,3.5669,3.5588,3.4677,3.4345,3.4345,3.4345,3.4358,3.4345,3.4345,3.4121,3.3751,3.3738,3.3398,3.2896,3.3081,3.2995,3.2736,3.281,3.2723,3.2376,3.2213,3.1837,3.1104,3.1003,2.9977,2.7934,2.6924,2.6078,2.541,2.54,2.5185,2.4746,0.0,0.0,0.0,0.0,0.0,0.0,0.0,0.0,0.0,0.0,0.0,1.848,1.7632,1.7157,1.7304,1.7239,1.7188,1.7402,1.6142,1.4637,1.3074,1.259,1.2576,1.2915,1.2844,1.2892,1.3104,1.3021,1.2983,1.3191,1.2572,1.226,1.2457,1.1526,1.0822,1.0801,1.0469,0.9876,0.9121,0.9508,0.9673,0.9013,0.9123,0.9343,0.9123,0.7578,0.6702,0.7601,0.7817,0.8029,0.8029,0.8475,0.8916,0.9805,1.0029,1.0249,1.0578,1.0692,1.0692,1.0692,1.0692,1.0692,1.0692,1.0692,1.0692,1.0692,1.0692,1.0692,1.0692,1.0692,1.0692,3.6635,3.7128,3.7128,3.7418,3.7868,3.7868,3.7868,3.7883,0.0,0.0,0.0,3.726,3.6936,3.6858,3.6029,3.5628,3.5628,3.5628,3.5628,3.5628,3.5628,3.5237,3.462,3.4634,3.423,3.3556,3.3398,3.3326,3.3326,3.3167,3.2982,3.2723,3.2463,3.23,3.1937,3.1003,2.9988,2.8958,2.7923,2.6968,2.5895,2.5799,2.5592,2.4971,2.4541,2.4141,2.3799,2.3202,2.2706,2.2677,2.2255,2.2082,2.215,2.0754,1.9777,1.9528,1.8517,1.8089,1.843,1.8225,1.82,1.8629,1.7137,1.5431,1.3479,1.3268,1.3254,1.3459,1.3475,1.3475,1.348,1.3523,1.354,1.354,1.3583,1.3685,1.3752,1.3027,1.2554,1.2606,1.1973,1.1109,1.0664,1.0882,1.0668,1.0437,1.0441,1.0441,1.0112,0.8899,0.7913,0.8374,0.8589,0.8585,0.8472,0.9027,0.9585,0.9805,1.0249,1.0692,1.0692,1.0692,1.0692,1.0692,1.0692,1.0692,1.0692,1.0692,1.0692,1.0692,1.0692,1.0692,1.0692,1.0692,1.0692,3.6359,3.6446,3.6446,3.6504,3.6577,3.6577,3.6577,3.6678,3.7738,3.8202,3.8127,3.7246,3.6936,3.6844,3.6029,3.5628,3.5628,3.5628,3.5628,0.0,3.5628,3.5534,3.5386,3.5467,3.5373,3.5224,3.4524,3.423,3.416,3.3496,3.2982,3.2723,3.2475,3.2201,3.1761,3.156,3.1003,2.9977,2.8958,2.7836,2.6548,2.6444,2.5858,2.4604,2.4121,2.3848,2.3789,2.3133,2.257,2.2017,2.2277,2.2711,2.3261,2.2532,2.1612,2.0728,2.049,2.0038,1.9221,1.9096,1.8786,1.8109,1.7647,1.6534,1.4636,1.3818,1.3443,1.348,1.3497,1.3475,1.3486,1.3663,1.3771,1.3787,1.3959,1.4105,1.4126,1.3911,1.3814,1.3851,1.3862,1.3197,1.2313,1.2866,1.2975,1.2309,1.2313,1.2654,1.2114,1.1008,0.935,0.8696,0.9361,0.9915,0.9581,0.9915,1.0359,1.0472,1.0582,1.0692,1.0692,1.0692,1.0692,1.0692,1.0692,1.0692,1.0692,1.0692,1.0692,1.0692,1.0692,1.0692,1.0692,1.0692,1.0692,3.5473,3.5778,3.5778,3.6011,3.6286,3.6286,3.6286,3.6359,3.691,3.7172,3.7099,3.6716,3.6568,3.6568,3.6151,3.6,3.6,3.5986,3.5986,3.5986,3.6,3.5927,3.5848,3.5783,3.5713,3.5521,3.4786,3.4397,3.4314,3.3496,3.3068,3.2896,3.2562,3.2125,3.1761,3.1661,3.1484,3.1003,2.9977,2.894,2.7811,2.716,2.6609,2.5926,2.5194,2.4844,2.4844,2.4565,2.4243,2.399,2.414,2.4381,2.4718,2.3892,2.3117,2.2659,2.1481,2.068,2.0181,1.9576,1.9168,1.8729,1.8178,1.7412,1.6549,1.5178,1.4238,1.3952,1.3868,1.3863,1.3868,1.3965,1.4024,1.4029,1.4132,1.4191,1.4196,1.4196,1.4196,1.4196,1.4196,1.397,1.3418,1.3862,1.4083,1.3527,1.364,1.365,1.3222,1.2441,1.1555,1.0907,1.1236,1.1232,1.0794,1.0903,1.1021,1.0802,1.0692,1.0692,1.0692,1.0692,1.0692,1.0692,1.0692,1.0692,1.0692,1.0692,1.0692,1.0692,1.0692,1.0692,1.0692,1.0692,1.0692,3.5118,3.5589,3.5468,3.5554,3.5865,3.588,3.588,3.588,3.5865,3.588,3.5909,3.617,3.6286,3.6286,3.6286,3.6301,3.6286,3.6286,3.6301,3.6286,3.6286,3.6186,3.6113,3.6179,3.6199,3.5888,3.5278,3.495,3.4868,3.4134,3.3556,3.3313,3.2723,3.2213,3.1761,3.1761,3.1761,3.1661,3.0913,3.0068,2.905,2.8297,2.7735,2.7463,2.6542,2.6014,2.6014,2.583,2.5732,2.5732,2.5732,2.5732,2.5635,2.4913,2.4393,2.3989,2.2584,2.1387,2.0885,1.9879,1.9272,1.9272,1.8624,1.8199,1.7864,1.6631,1.534,1.4685,1.4487,1.4498,1.4277,1.4186,1.4196,1.4196,1.4196,1.4196,1.4196,1.4196,1.4196,1.4196,1.4196,1.4196,1.4196,1.4196,1.4191,1.4191,1.4196,1.3975,1.3645,1.3537,1.3434,1.3222,1.2777,1.2223,1.1891,1.1782,1.1564,1.1126,1.1126,1.1131,1.1021,1.0911,1.0802,1.0802,1.0692,1.0692,1.0692,1.0692,1.0692,1.0692,1.0692,1.0692,1.0692,1.0692,1.0692,3.6243,3.6226,3.5649,3.5075,3.47,3.4617,3.4714,3.4632,3.4588,3.4588,3.4762,3.5793,3.6257,3.6286,3.6257,3.6228,3.6243,3.6286,3.6257,3.6243,3.6286,3.6273,3.6288,3.6837,3.717,3.7077,3.6747,3.6503,3.6452,3.5709,3.4802,3.3914,3.3116,3.2463,3.2025,3.1937,3.1849,3.1749,3.1572,3.1092,3.017,2.9977,2.9521,2.8577,2.7568,2.7094,2.6999,2.6187,2.5732,2.5732,2.5732,2.5732,2.5732,2.5635,2.5118,2.4196,2.389,2.2994,2.1081,1.9887,1.9272,1.9272,1.9168,1.8848,1.8087,1.7857,1.7002,1.5773,1.5458,1.503,1.4299,1.4299,1.4299,1.4196,1.4304,1.4196,1.4196,1.4196,1.4196,1.4196,1.4196,1.4196,1.4196,1.4196,1.4196,1.4196,1.4196,1.4191,1.4083,1.3975,1.3975,1.3867,1.3207,1.255,1.2332,1.2332,1.2223,1.2219,1.2219,1.1896,1.1568,1.1459,1.135,1.0802,1.0802,1.0802,1.0692,1.0692,1.0692,1.0692,1.0692,1.0692,1.0692,1.0692,1.0692,3.6399,3.6384,3.6134,3.5819,3.5593,3.5578,3.5578,3.5514,3.5154,3.4957,3.4964,3.5156,3.5183,3.5198,3.5198,3.5183,3.5198,3.5183,3.5183,3.5183,3.5183,3.5401,3.5764,3.6011,3.6533,3.72,3.6684,3.6571,3.6724,3.6029,3.5305,3.4733,3.3914,3.3348,3.3006,3.2363,3.195,3.1849,3.1749,3.1472,3.1092,3.0543,2.9988,2.951,2.8577,2.7746,2.7274,2.6829,2.6284,2.5732,2.5732,2.5732,2.5732,2.5732,2.5528,2.502,2.4393,2.3185,2.1089,2.0483,1.9983,1.9383,1.9272,1.9168,1.8848,1.8743,1.8206,1.714,1.6511,1.5885,1.5148,1.5357,1.5357,1.4509,1.4617,1.4826,1.4191,1.4196,1.4196,1.4196,1.4196,1.4196,1.4196,1.4196,1.4196,1.4196,1.4196,1.4196,1.4196,1.4196,1.4196,1.4196,1.3759,1.3547,1.3449,1.3108,1.2881,1.255,1.2436,1.2223,1.1787,1.1896,1.1782,1.0911,1.1021,1.1021,1.0692,1.0692,1.0692,1.0692,1.0692,1.0692,1.0692,1.0692,1.0692,3.7497,3.7466,3.7126,3.6879,3.6708,3.6461,3.6399,3.6322,3.5897,3.5642,3.5578,3.4971,3.4668,3.4668,3.4467,3.4414,3.4414,3.4414,3.4414,3.4414,3.4414,3.4661,3.5096,3.5488,3.6098,3.6881,3.6768,3.6835,3.7141,3.636,3.5869,3.5628,3.4884,3.4319,3.4082,3.3104,3.2525,3.2351,3.2001,3.1749,3.1572,3.1015,3.0633,3.0543,2.9612,2.8773,2.8028,2.7474,2.6924,2.6187,2.582,2.5732,2.5732,2.5732,2.5732,2.5625,2.4707,2.3493,2.1887,2.1489,2.0987,2.0285,1.9983,1.9776,1.968,1.948,1.9056,1.8415,1.7786,1.7047,1.6099,1.6305,1.6099,1.5035,1.5458,1.5458,1.4724,1.4509,1.4509,1.4299,1.4196,1.4196,1.4196,1.4196,1.4196,1.4196,1.4196,1.4196,1.4196,1.4196,1.4196,1.4196,1.4191,1.4202,1.4115,1.3883,1.332,1.3098,1.2989,1.2767,1.2223,1.2441,1.2436,1.1673,1.1678,1.1459,1.1131,1.1021,1.0692,1.0692,1.0692,1.0692,1.0692,1.0692,1.0692,4.034,4.0075,3.8941,3.8106,3.7417,3.68,3.6477,3.6662,3.6415,3.6399,3.6275,3.5642,3.5335,3.535,3.4787,3.4414,3.4414,3.4414,3.4414,3.4414,3.4443,3.4443,3.4545,3.5677,3.6301,3.6606,3.7446,3.7922,3.8037,3.7246,3.6858,3.6766,3.5949,3.5467,3.5129,3.4319,3.3649,3.3237,3.2513,3.1937,3.1749,3.1661,3.1572,3.1472,3.0633,3.0068,2.9795,2.8204,2.7189,2.7179,2.6284,2.583,2.5732,2.5732,2.5732,2.5625,2.4707,2.4088,2.3791,2.2994,2.2291,2.2181,2.1285,2.0783,2.0577,1.9983,1.9368,1.9279,1.9063,1.8318,1.7047,1.6942,1.6842,1.6518,1.6518,1.6305,1.5565,1.5464,1.5035,1.4515,1.4196,1.4196,1.4196,1.4196,1.4196,1.4196,1.4196,1.4196,1.4196,1.4196,1.4196,1.4196,1.4196,1.4196,1.4196,1.4088,1.4088,1.3867,1.3645,1.3753,1.3537,1.3207,1.2767,1.2436,1.2114,1.1787,1.1568,1.124,1.0802,1.0692,1.0692,1.0692,1.0692,1.0692,1.0692,4.0496,4.0464,3.9967,3.9614,3.9383,3.9129,3.8778,3.8352,3.7944,3.751,3.6952,3.6337,3.6009,3.6009,3.577,3.5219,3.4481,3.4414,3.4414,3.4457,3.4835,3.5024,3.5111,3.5909,3.6562,3.6983,3.7418,3.7839,3.8188,3.7886,3.7734,3.7567,3.6844,3.636,3.6201,3.5305,3.4719,3.4472,3.3407,3.2834,3.2649,3.2176,3.1937,3.1849,3.1484,3.0824,3.026,2.951,2.8866,2.8402,2.7851,2.7389,2.6945,2.61,2.5732,2.5635,2.5323,2.4815,2.4196,2.3791,2.3185,2.2584,2.219,2.1582,2.0987,2.0483,2.0078,1.948,1.9272,1.8848,1.8639,1.8325,1.7891,1.6942,1.7147,1.7147,1.6511,1.6305,1.5992,1.5137,1.4611,1.4196,1.4299,1.4196,1.4196,1.4196,1.4196,1.4196,1.4196,1.4196,1.4196,1.4196,1.4196,1.4196,1.4196,1.4196,1.4196,1.4196,1.4083,1.3867,1.3537,1.3753,1.3532,1.2876,1.2441,1.2114,1.1896,1.124,1.0911,1.0692,1.0692,1.0692,1.0692,1.0692,1.0692,4.1177,4.1144,4.0934,4.0853,4.0804,4.0594,4.0237,3.9758,3.9354,3.8826,3.8277,3.7465,3.7095,3.6987,3.66,3.5961,3.5103,3.4854,3.4704,3.4733,3.5169,3.5473,3.5764,3.633,3.6852,3.7288,3.752,3.7825,3.8144,3.8202,3.8202,3.8127,3.7553,3.7323,3.7169,3.636,3.5789,3.5548,3.4459,3.372,3.3407,3.2772,3.2288,3.2125,3.1937,3.1472,3.0812,3.0543,3.0158,2.951,2.9131,2.868,2.8132,2.703,2.639,2.638,2.61,2.5616,2.4894,2.4786,2.4393,2.3592,2.3194,2.2685,2.1988,2.1582,2.0885,2.0078,1.9776,1.9783,1.9376,1.9272,1.8743,1.7786,1.8101,1.8101,1.7259,1.7153,1.6723,1.5986,1.5458,1.5041,1.4724,1.4611,1.4509,1.4304,1.4196,1.4196,1.4196,1.4196,1.4196,1.4196,1.4196,1.4196,1.4196,1.4196,1.4196,1.4196,1.4196,1.3867,1.3867,1.4083,1.3975,1.3315,1.2767,1.255,1.2001,1.1345,1.1021,1.0802,1.0692,1.0692,1.0692,1.0692,1.0692,4.2522,4.2439,4.1873,4.1581,4.15,4.095,4.0561,4.0513,4.0496,4.0356,3.9962,3.9049,3.8521,3.8273,3.7374,3.6538,3.6367,3.5876,3.5606,3.5517,3.5511,3.5904,3.6472,3.6983,3.7302,3.7418,3.7912,3.8173,3.8202,3.8202,3.8202,3.8202,3.8127,3.8052,3.8127,3.7246,3.6766,3.6452,3.5548,3.465,3.3843,3.3615,3.3142,3.255,3.2288,3.2113,3.1925,3.1282,3.08,3.0543,2.9875,2.9498,2.9223,2.8226,2.7662,2.7558,2.703,2.639,2.61,2.5887,2.5713,2.5323,2.4707,2.3998,2.3592,2.2985,2.1988,2.0987,2.068,2.038,1.948,1.9272,1.9279,1.9272,1.9168,1.8736,1.8199,1.7982,1.7674,1.6942,1.6518,1.6305,1.5672,1.5351,1.5035,1.4407,1.4196,1.4196,1.4196,1.4196,1.4196,1.4196,1.4196,1.4196,1.4196,1.4196,1.4196,1.4196,1.4196,1.4083,1.4083,1.4191,1.4191,1.3645,1.2985,1.2659,1.2332,1.1678,1.124,1.1021,1.0911,1.0692,1.0692,1.0692,1.0692,4.2571,4.2618,4.2407,4.231,4.2278,4.2051,4.1711,4.1241,4.1225,4.095,4.0513,4.0075,3.9859,3.9826,3.939,3.8676,3.7885,3.7561,3.7309,3.6955,3.6798,3.706,3.7656,3.7901,3.7926,3.7955,3.8101,3.8202,3.8202,3.8202,3.8202,3.8202,3.8202,3.8202,3.8202,3.7962,3.7734,3.7567,3.6674,3.5963,3.5628,3.5074,3.4332,3.359,3.3628,3.33,3.2537,3.1925,3.1749,3.1737,3.1548,3.1169,3.0429,2.9407,2.8577,2.7923,2.7652,2.701,2.6187,2.61,2.6004,2.5723,2.5333,2.4805,2.4196,2.3791,2.2793,2.1285,2.0885,2.0483,1.9583,1.9272,1.9272,1.9272,1.9272,1.9168,1.8848,1.8415,1.7884,1.7569,1.7041,1.6411,1.5773,1.5559,1.525,1.4401,1.4299,1.4299,1.4196,1.4196,1.4196,1.4196,1.4196,1.4196,1.4196,1.4196,1.4196,1.4196,1.4196,1.4196,1.4196,1.4196,1.4196,1.3975,1.3315,1.2876,1.255,1.2005,1.1459,1.1131,1.1021,1.0911,1.0802,1.0692,1.0692,4.2571,4.2571,4.2571,4.2571,4.2571,4.2571,4.2391,4.2002,4.197,4.1711,4.1306,4.0998,4.0885,4.0836,4.0626,4.0059,3.9297,3.9221,3.9309,3.914,3.806,3.8236,3.8967,3.875,3.862,3.8546,3.8337,3.8202,3.8202,3.8202,3.8202,3.8202,3.8202,3.8202,3.8202,3.8202,3.8202,3.8052,3.7505,3.695,3.661,3.6108,3.5386,3.4733,3.4677,3.4204,3.3275,3.2846,3.2698,3.255,3.2475,3.2189,3.1713,3.0699,2.9681,2.8947,2.8308,2.7673,2.6582,2.6294,2.61,2.5917,2.5732,2.543,2.4815,2.4707,2.38,2.2492,2.2089,2.1481,2.0285,1.9879,1.9783,1.9272,1.9272,1.9272,1.9168,1.8848,1.8527,1.8422,1.8108,1.7259,1.6723,1.6405,1.5879,1.5035,1.4724,1.4509,1.4299,1.4196,1.4196,1.4196,1.4196,1.4196,1.4196,1.4196,1.4196,1.4196,1.4196,1.4196,1.4196,1.4196,1.4196,1.4196,1.3645,1.3423,1.3098,1.2219,1.1673,1.1455,1.1236,1.0911,1.0692,1.0692,1.0692,4.2618,4.2634,4.2571,4.2571,4.2571,4.2571,4.2601,4.2585,4.2585,4.2537,4.2375,4.1873,4.163,4.1484,4.1096,4.0679,4.0545,4.0501,4.1007,4.1196,4.0067,3.9473,4.0163,3.9677,3.9376,3.9233,3.8767,3.8412,3.8412,3.8412,3.8202,3.8202,3.8202,3.8202,3.8202,3.8202,3.8202,3.8127,3.7991,3.7596,3.7092,3.6858,3.6373,3.5709,3.5467,3.5047,3.4236,3.3914,3.3518,3.2871,3.2723,3.281,3.2797,3.1977,3.1069,3.0249,2.9349,2.8258,2.7262,2.6592,2.6304,2.6014,2.582,2.5732,2.5528,2.5421,2.5011,2.389,2.3791,2.3094,2.1489,2.0783,2.0388,1.948,1.9272,1.9272,1.9272,1.9279,1.9168,1.9168,1.9168,1.8952,1.7877,1.7779,1.7041,1.6086,1.5565,1.5244,1.4826,1.4724,1.4407,1.4299,1.4407,1.4196,1.4196,1.4196,1.4196,1.4196,1.4196,1.4196,1.4196,1.4196,1.4196,1.4196,1.3975,1.3753,1.3315,1.255,1.2001,1.1782,1.1455,1.0911,1.0692,1.0692,1.0692,4.2912,4.2634,4.2571,4.2571,4.2571,4.2571,4.2571,4.2571,4.2571,4.2571,4.2506,4.2439,4.231,4.231,4.2132,4.1808,4.1387,4.129,4.1387,4.1779,4.1755,4.1299,4.1102,4.0508,4.0185,4.013,3.9895,3.9505,3.903,3.9045,3.8767,3.8202,3.8277,3.8277,3.8202,3.8202,3.8202,3.8202,3.8127,3.8052,3.7886,3.781,3.74,3.661,3.6517,3.6029,3.521,3.4594,3.3882,3.3056,3.2982,3.2982,3.3068,3.2711,3.2077,3.1169,3.026,2.9154,2.7861,2.6945,2.6304,2.582,2.5732,2.5732,2.5732,2.5732,2.5118,2.4393,2.4088,2.3583,2.2282,2.1387,2.0483,1.948,1.9272,1.9272,1.9272,1.9272,1.9272,1.9272,1.9272,1.8848,1.8304,1.7989,1.7674,1.6723,1.6411,1.6199,1.5779,1.5351,1.5143,1.4934,1.4826,1.4407,1.4196,1.4196,1.4196,1.4196,1.4196,1.4196,1.4196,1.4196,1.4196,1.4196,1.3867,1.3645,1.3315,1.2767,1.2441,1.2001,1.1345,1.0802,1.0692,1.0692,1.0692,4.3443,4.3157,4.2974,4.2912,4.2851,4.268,4.2571,4.2571,4.2571,4.2571,4.2571,4.2571,4.2571,4.2571,4.2555,4.2423,4.2051,4.2019,4.2197,4.2553,4.283,4.2975,4.269,4.2113,4.1766,4.1719,4.1125,4.0668,4.0238,3.994,3.9535,3.9175,3.8826,3.8694,3.8694,3.8337,3.8202,3.8202,3.8202,3.8202,3.8202,3.8202,3.7962,3.7491,3.7414,3.7078,3.6201,3.5318,3.4524,3.381,3.3326,3.3081,3.3081,3.3081,3.2624,3.1625,3.108,2.9966,2.8402,2.7389,2.6754,2.611,2.583,2.5732,2.5732,2.5732,2.5509,2.4913,2.5001,2.4393,2.3185,2.1785,2.068,2.0078,1.9576,1.9272,1.9272,1.9272,1.9272,1.9272,1.9272,1.9168,1.8624,1.852,1.8094,1.7569,1.7252,1.7047,1.6624,1.6305,1.5986,1.5773,1.5672,1.5357,1.5143,1.5035,1.4826,1.4724,1.4407,1.4299,1.4196,1.4196,1.4196,1.4083,1.3862,1.3537,1.3315,1.2989,1.2332,1.1782,1.1126,1.0802,1.0802,1.0692,1.0692,4.4145,4.4013,4.3604,4.3426,4.3306,4.2912,4.2867,4.2805,4.2867,4.2805,4.2805,4.2789,4.2805,4.2696,4.2743,4.2664,4.2585,4.252,4.3006,4.3346,4.367,4.3848,4.4281,4.3655,4.3468,4.3379,4.2419,4.1953,4.1612,4.1032,4.0586,4.0307,3.9768,3.9448,3.932,3.8767,3.8337,3.8337,3.8277,3.8202,3.8202,3.8202,3.8127,3.8127,3.8052,3.7734,3.7,3.6201,3.54,3.4716,3.3725,3.3326,3.3167,3.3081,3.2723,3.2001,3.1536,3.0609,2.8969,2.8297,2.7337,2.6406,2.5974,2.5839,2.5936,2.6014,2.6004,2.5723,2.6207,2.5392,2.4088,2.2282,2.1285,2.0783,1.9983,1.9583,1.9279,1.9272,1.9272,1.9272,1.9272,1.9272,1.9272,1.9272,1.8952,1.8311,1.8101,1.7996,1.7575,1.7147,1.6935,1.6829,1.6723,1.6511,1.6305,1.5986,1.5672,1.5357,1.4826,1.4611,1.4299,1.4196,1.4196,1.4083,1.3975,1.3753,1.3537,1.3098,1.2441,1.2005,1.1568,1.124,1.0802,1.0802,1.0692,4.4875,4.4339,4.4192,4.4054,4.3839,4.3739,4.368,4.368,4.368,4.3621,4.368,4.368,4.3426,4.3141,4.3141,4.2974,4.268,4.2729,4.3022,4.3638,4.3719,4.4123,4.4512,4.4041,4.4007,4.4214,4.4278,4.3731,4.31,4.2297,4.1841,4.1233,4.0547,4.0139,4.0069,3.9448,3.903,3.8972,3.856,3.8277,3.8277,3.8202,3.8202,3.8202,3.8202,3.8127,3.781,3.7092,3.6545,3.6056,3.5019,3.3979,3.3326,3.3167,3.2982,3.2624,3.1989,3.1247,3.0406,2.9109,2.763,2.6617,2.6441,2.642,2.645,2.642,2.64,2.6304,2.6197,2.5596,2.4393,2.3791,2.2593,2.1489,2.079,2.0181,1.948,1.9272,1.9272,1.9272,1.9272,1.9272,1.9272,1.9272,1.9168,1.9056,1.8945,1.8952,1.8527,1.7996,1.7891,1.7681,1.747,1.7364,1.7153,1.6836,1.6299,1.5986,1.5458,1.5143,1.4826,1.4509,1.4617,1.4407,1.4191,1.3975,1.3645,1.3428,1.2881,1.2441,1.2114,1.1678,1.135,1.1021,1.0802,4.558,4.525,4.502,4.4766,4.4524,4.4282,4.4128,4.403,4.403,4.403,4.403,4.403,4.3856,4.3604,4.3604,4.3486,4.3262,4.3035,4.2984,4.3199,4.3217,4.3589,4.4107,4.401,4.4075,4.4625,4.4399,4.4023,4.3584,4.3003,4.2361,4.2011,4.1283,4.0909,4.0826,4.0209,3.9859,3.9647,3.9103,3.8679,3.8694,3.8337,3.8202,3.8202,3.8202,3.8202,3.8127,3.781,3.7337,3.6766,3.6056,3.495,3.381,3.3326,3.3167,3.2995,3.2711,3.1877,3.1045,3.0203,2.9101,2.7469,2.7243,2.741,2.7314,2.7112,2.6602,2.6506,2.64,2.6091,2.5089,2.4295,2.3393,2.2693,2.1887,2.1183,2.0285,1.9576,1.9272,1.9272,1.9272,1.9272,1.9272,1.9272,1.9272,1.916,1.916,1.9063,1.9168,1.8743,1.8743,1.8527,1.8318,1.8108,1.8003,1.7575,1.7041,1.6617,1.6199,1.5986,1.5779,1.5464,1.525,1.4826,1.4407,1.3975,1.3645,1.3428,1.3207,1.2663,1.2223,1.2005,1.1896,1.1787,1.1455,4.6301,4.6235,4.5835,4.5511,4.5214,4.4875,4.4601,4.4412,4.4299,4.4412,4.4243,4.4243,4.4259,4.4145,4.4088,4.4071,4.3839,4.3621,4.3361,4.3088,4.2981,4.3228,4.3618,4.3605,4.3686,4.435,4.4237,4.3945,4.3767,4.3217,4.288,4.2654,4.2045,4.1672,4.1525,4.0961,4.0554,4.0485,3.9859,3.9305,3.9175,3.8694,3.8412,3.8202,3.8202,3.8202,3.8202,3.8052,3.781,3.7169,3.7014,3.6149,3.5032,3.3823,3.3167,3.3167,3.2995,3.2599,3.1865,3.1223,3.0438,2.9125,2.8582,2.8351,2.8344,2.7778,2.7177,2.6699,2.6602,2.64,2.6004,2.5206,2.4393,2.389,2.3185,2.2282,2.1285,2.0181,1.968,1.9272,1.9272,1.9272,1.9272,1.9272,1.9272,1.9272,1.9272,1.9272,1.9272,1.9272,1.9168,1.9063,1.8743,1.8639,1.8639,1.8429,1.7786,1.7358,1.6942,1.673,1.6624,1.6199,1.5779,1.5041,1.4509,1.4186,1.3862,1.3753,1.3315,1.2772,1.255,1.255,1.255,1.2441,1.2114,4.6749,4.6542,4.6429,4.6266,4.6038,4.592,4.5802,4.5819,4.5494,4.5511,4.5459,4.5283,4.4944,4.4708,4.4597,4.4373,4.4145,4.3914,4.3798,4.3621,4.3383,4.3382,4.3387,4.3255,4.3053,4.3298,4.3783,4.4383,4.4237,4.3929,4.3314,4.3266,4.2686,4.2365,4.2158,4.1722,4.1311,4.1245,4.0622,3.9999,3.9591,3.9175,3.8679,3.8277,3.8202,3.8202,3.8202,3.8202,3.8127,3.7962,3.7246,3.678,3.6149,3.495,3.3979,3.3326,3.3167,3.2884,3.2612,3.1977,3.1512,3.0956,3.0226,2.9338,2.8921,2.8466,2.7904,2.7071,2.6496,2.6207,2.583,2.5518,2.5011,2.4402,2.3998,2.3393,2.2391,2.1505,2.0498,1.999,1.968,1.9272,1.9272,1.9272,1.9272,1.9272,1.9272,1.9272,1.9272,1.9272,1.9272,1.9272,1.9168,1.9168,1.9168,1.9063,1.8743,1.8101,1.7681,1.747,1.7259,1.6829,1.6199,1.5779,1.5357,1.5041,1.4611,1.4288,1.397,1.3851,1.3527,1.3207,1.3098,1.2989,1.2663,4.6952,4.6795,4.6795,4.6637,4.6447,4.6381,4.635,4.6186,4.6087,4.5988,4.5988,4.5837,4.5684,4.5511,4.5284,4.4964,4.4485,4.4373,4.4259,4.403,4.3781,4.368,4.3663,4.3383,4.3202,4.3215,4.3709,4.3894,4.3638,4.3314,4.3201,4.3071,4.2763,4.2571,4.2571,4.2285,4.2077,4.1884,4.1327,4.0774,4.0347,3.9804,3.8972,3.8412,3.8202,3.8202,3.8202,3.8202,3.8202,3.8127,3.781,3.7337,3.678,3.6149,3.5114,3.4063,3.3411,3.3081,3.3081,3.2612,3.2426,3.2251,3.1436,3.08,3.017,2.9715,2.8888,2.7788,2.688,2.64,2.6217,2.612,2.581,2.5304,2.5099,2.4501,2.3719,2.3391,2.2257,2.0901,2.0086,1.968,1.9272,1.9272,1.9272,1.9272,1.9272,1.9272,1.9272,1.9272,1.9272,1.9272,1.9272,1.9272,1.9272,1.9272,1.9272,1.8743,1.8527,1.8213,1.8108,1.7786,1.7463,1.7147,1.6617,1.6099,1.5672,1.5351,1.5143,1.4826,1.4288,1.3964,1.3748,1.3532,1.3207,4.6998,4.6998,4.6998,4.6888,4.6702,4.6684,4.659,4.6398,4.6284,4.6284,4.6284,4.6186,4.6186,4.6137,4.587,4.5459,4.4927,4.4889,4.4669,4.4373,4.4202,4.4145,4.4145,4.3972,4.3722,4.3502,4.3542,4.3141,4.2859,4.2763,4.2619,4.2699,4.2603,4.2571,4.2571,4.2492,4.2571,4.2429,4.2077,4.1722,4.1178,4.0209,3.9175,3.8472,3.8412,3.8412,3.8202,3.8202,3.8202,3.8202,3.8127,3.7872,3.7246,3.7014,3.6308,3.5032,3.3966,3.3411,3.3081,3.3081,3.2982,3.2896,3.2351,3.1889,3.1258,3.0429,2.951,2.8412,2.7589,2.687,2.6496,2.6496,2.6304,2.61,2.6004,2.582,2.4941,2.4369,2.3881,2.2535,2.0901,2.0181,2.0078,1.9272,1.9272,1.9272,1.9272,1.9272,1.9272,1.9272,1.9272,1.9272,1.9272,1.9272,1.9272,1.9272,1.9272,1.9063,1.8952,1.8848,1.8952,1.8959,1.8632,1.8094,1.7884,1.7364,1.6942,1.6305,1.5992,1.5571,1.5041,1.4719,1.4606,1.439,1.4175,4.6998,4.6998,4.6998,4.6998,4.6934,4.6934,4.6934,4.6842,4.6637,4.6525,4.6542,4.6332,4.6235,4.6186,4.5988,4.5786,4.558,4.5441,4.5283,4.5106,4.4818,4.4652,4.4541,4.4145,4.4088,4.3956,4.3898,4.3383,4.2929,4.2759,4.2634,4.2634,4.2571,4.2571,4.2571,4.2571,4.2571,4.2571,4.2492,4.2142,4.1444,4.069,3.9945,3.9391,3.9103,3.8826,3.8427,3.8277,3.8202,3.8202,3.8202,3.8127,3.7962,3.7246,3.6922,3.6215,3.5182,3.3907,3.3411,3.3167,3.3081,3.3081,3.2896,3.2438,3.1801,3.0789,2.9681,2.8412,2.7945,2.74,2.6774,2.6592,2.639,2.6197,2.61,2.5917,2.544,2.4951,2.4557,2.4044,2.2501,2.1591,2.1183,2.0078,1.9272,1.9272,1.9272,1.9376,1.9376,1.9376,1.9272,1.9272,1.9272,1.9272,1.9272,1.9272,1.9272,1.9272,1.9272,1.9272,1.9272,1.9272,1.9272,1.8848,1.8743,1.8318,1.7575,1.7047,1.673,1.6418,1.5992,1.5672,1.5458,1.5244,1.503,4.6998,4.6998,4.6998,4.6998,4.6998,4.6998,4.6998,4.6998,4.6888,4.6842,4.6795,4.6731,4.659,4.6429,4.6284,4.6186,4.6038,4.5905,4.5854,4.5803,4.5459,4.5284,4.5266,4.4944,4.4725,4.4429,4.4373,4.4071,4.3502,4.3096,4.2912,4.2634,4.2634,4.2571,4.2571,4.2571,4.2571,4.2571,4.2571,4.2206,4.1591,4.1178,4.0706,3.9945,3.9591,3.9175,3.8826,3.8337,3.8202,3.8202,3.8202,3.8202,3.8127,3.781,3.7491,3.6858,3.6308,3.5264,3.4063,3.3484,3.324,3.3081,3.3081,3.2896,3.2264,3.1424,3.0418,2.9521,2.8691,2.7966,2.7146,2.6794,2.6592,2.64,2.6207,2.5917,2.5732,2.5528,2.503,2.4609,2.4097,2.3294,2.2492,2.1887,2.1089,2.0783,2.0585,2.0285,1.9983,1.9576,1.9472,1.9272,1.9272,1.9272,1.9272,1.9272,1.9272,1.9272,1.9272,1.9272,1.9272,1.9272,1.9272,1.9272,1.9063,1.8632,1.8101,1.7786,1.747,1.7252,1.7041,1.6624,1.6305,1.6092,1.5879,4.7249,4.7232,4.707,4.6998,4.6998,4.6998,4.6998,4.6998,4.6998,4.698,4.6998,4.698,4.6888,4.6731,4.659,4.6429,4.6301,4.6235,4.6186,4.6137,4.6038,4.5837,4.5684,4.5494,4.523,4.4872,4.4889,4.4597,4.4186,4.3839,4.3443,4.2805,4.268,4.2634,4.2571,4.2571,4.2571,4.2571,4.2571,4.2349,4.1948,4.1803,4.1311,4.0758,4.0139,3.9662,3.9233,3.8826,3.856,3.8202,3.8202,3.8202,3.8202,3.8127,3.7872,3.7323,3.6936,3.6294,3.5114,3.4301,3.3569,3.3326,3.3167,3.3081,3.2982,3.2351,3.1524,3.0621,3.0079,2.8991,2.7904,2.7441,2.6976,2.6678,2.6304,2.6014,2.5723,2.5625,2.543,2.5226,2.4922,2.4707,2.4106,2.3701,2.3094,2.2492,2.1988,2.1387,2.0885,2.038,2.0181,2.0078,1.9983,1.9783,1.9376,1.9376,1.9376,1.9376,1.9376,1.9376,1.9376,1.9376,1.9272,1.9272,1.9272,1.9063,1.8639,1.8527,1.8311,1.8206,1.7996,1.747,1.7153,1.6942,1.6617,4.7951,4.7888,4.7294,4.7025,4.7043,4.6998,4.6998,4.6998,4.6998,4.6998,4.6998,4.6998,4.6998,4.6888,4.6731,4.6637,4.656,4.6332,4.6284,4.6284,4.6168,4.6038,4.5938,4.5786,4.5649,4.5406,4.5336,4.5106,4.4763,4.4524,4.4013,4.3366,4.2974,4.268,4.2571,4.2571,4.2571,4.2571,4.2571,4.2571,4.2429,4.2365,4.2093,4.1591,4.1245,4.0774,3.9448,3.9175,3.8899,3.8337,3.8277,3.8202,3.8202,3.8202,3.8037,3.7886,3.7414,3.6936,3.6308,3.5182,3.4397,3.4063,3.3654,3.3081,3.3081,3.3081,3.2438,3.1536,3.0991,3.0272,2.9176,2.8341,2.7788,2.7136,2.6668,2.6284,2.6004,2.583,2.5732,2.5742,2.5538,2.5226,2.5216,2.4716,2.4214,2.361,2.2885,2.2383,2.2089,2.1591,2.1285,2.1183,2.0885,2.0483,1.968,1.968,2.0181,2.0078,1.9975,1.9776,1.9576,1.948,1.9272,1.9272,1.9272,1.9272,1.9272,1.8952,1.8848,1.9168,1.8959,1.8325,1.7898,1.7681,1.7259,4.7992,4.7992,4.7705,4.7493,4.7294,4.7088,4.6998,4.6998,4.6998,4.6998,4.7043,4.6998,4.6998,4.6998,4.6952,4.6824,4.6842,4.6749,4.6684,4.6637,4.6542,4.6381,4.6235,4.6087,4.6005,4.5905,4.5854,4.5752,4.5424,4.5142,4.4691,4.4112,4.3426,4.2912,4.2743,4.2634,4.2571,4.2571,4.2571,4.2571,4.2571,4.2571,4.2492,4.2222,4.1607,4.1327,4.0622,3.9718,3.9233,3.8826,3.8472,3.8263,3.8202,3.8202,3.8202,3.8202,3.781,3.7644,3.7323,3.6122,3.5019,3.4314,3.3654,3.3081,3.3167,3.3081,3.2624,3.1989,3.1625,3.0991,2.9988,2.9326,2.8855,2.7945,2.721,2.6733,2.6284,2.61,2.583,2.583,2.5732,2.5625,2.5625,2.5528,2.5128,2.4726,2.3998,2.3285,2.3094,2.2793,2.2492,2.2181,2.1988,2.1684,2.0987,2.0987,2.1183,2.0877,2.0577,2.0483,2.0181,1.948,1.9383,1.9272,1.9376,1.9376,1.9376,1.9272,1.9272,1.9272,1.9272,1.9063,1.8743,1.8325,1.8003,4.8267,4.8249,4.8132,4.7933,4.7621,4.7407,4.7276,4.7276,4.7338,4.7276,4.7294,4.7276,4.7249,4.716,4.7178,4.707,4.7025,4.6934,4.6998,4.6888,4.6795,4.6684,4.6525,4.6429,4.6235,4.6235,4.6186,4.6038,4.5887,4.5511,4.5125,4.4674,4.4095,4.3486,4.2912,4.2618,4.2634,4.2571,4.2571,4.2571,4.2571,4.2571,4.2571,4.2492,4.2077,4.1656,4.1245,4.0554,3.9804,3.932,3.8826,3.8486,3.8277,3.8202,3.8202,3.8202,3.8202,3.8202,3.7796,3.6922,3.548,3.4538,3.3979,3.3484,3.3154,3.3081,3.2711,3.2351,3.2077,3.1625,3.0711,3.0328,2.9761,2.8855,2.7934,2.7274,2.6744,2.6476,2.61,2.5927,2.582,2.582,2.583,2.583,2.5528,2.5226,2.4922,2.4402,2.4313,2.4007,2.3601,2.3294,2.2985,2.2785,2.2484,2.219,2.1988,2.1785,2.1582,2.1481,2.1081,2.0388,1.9879,1.9983,1.9983,1.968,1.948,1.9376,1.9272,1.9272,1.9272,1.9279,1.9168,1.8848,1.8743,4.8874,4.882,4.8514,4.8231,4.8032,4.7992,4.7951,4.787,4.7911,4.7911,4.787,4.787,4.7747,4.7536,4.7468,4.7294,4.707,4.7025,4.6998,4.698,4.6934,4.6824,4.6684,4.659,4.6495,4.6284,4.6284,4.635,4.6186,4.592,4.5546,4.5178,4.4674,4.4054,4.3306,4.2789,4.2634,4.2571,4.2571,4.2571,4.2571,4.2571,4.2571,4.2571,4.2492,4.2142,4.1738,4.1311,4.0554,3.9859,3.9305,3.8899,3.8486,3.8277,3.8202,3.8202,3.8202,3.8202,3.8127,3.7337,3.6215,3.495,3.4468,3.3894,3.3326,3.3081,3.3068,3.2711,3.281,3.245,3.1889,3.1323,3.0687,2.9954,2.8936,2.8111,2.7568,2.703,2.6754,2.6197,2.611,2.61,2.6014,2.5917,2.5732,2.5635,2.5635,2.5528,2.5226,2.4922,2.451,2.4402,2.4097,2.3899,2.3601,2.2994,2.2693,2.2584,2.2584,2.2484,2.2383,2.1887,2.1387,2.0979,2.0783,2.0783,2.0078,1.9376,1.948,1.948,1.9272,1.9272,1.9272,1.9272,1.9168,4.9012,4.889,4.8785,4.8678,4.855,4.8132,4.7992,4.7992,4.7992,4.7992,4.7992,4.7992,4.7951,4.7788,4.7597,4.7407,4.7294,4.7025,4.6998,4.6998,4.6998,4.6934,4.6888,4.6842,4.6795,4.6749,4.6749,4.659,4.6477,4.6284,4.6137,4.5751,4.5018,4.4243,4.3426,4.2851,4.2634,4.2571,4.2571,4.2571,4.2571,4.2571,4.2571,4.2571,4.2571,4.2429,4.2158,4.1803,4.1178,4.047,3.9984,3.9218,3.8796,3.8517,3.8202,3.8202,3.8202,3.8202,3.8202,3.781,3.7246,3.6149,3.5114,3.4468,3.3979,3.3326,3.3154,3.3081,3.3081,3.281,3.2612,3.2525,3.2064,3.1247,3.0328,2.9407,2.868,2.8038,2.7589,2.6668,2.6294,2.611,2.5917,2.5917,2.582,2.5732,2.5732,2.5732,2.543,2.5528,2.5323,2.5323,2.5118,2.502,2.4716,2.4106,2.4007,2.4106,2.389,2.3583,2.3384,2.3194,2.2584,2.2089,2.1988,2.1785,2.1183,2.0585,1.9879,1.968,1.9576,1.9376,1.9272,1.9272,1.9272,4.9193,4.9061,4.9061,4.9061,4.8974,4.8514,4.8288,4.8288,4.8288,4.8326,4.8344,4.8326,4.8249,4.8093,4.7811,4.7536,4.7468,4.716,4.6998,4.6998,4.6998,4.698,4.698,4.6998,4.6952,4.6998,4.6998,4.6888,4.6731,4.6619,4.6381,4.597,4.5232,4.4524,4.3781,4.3279,4.2696,4.2696,4.2696,4.2571,4.2571,4.2571,4.2571,4.2571,4.2571,4.2571,4.2492,4.2142,4.1722,4.1213,4.0591,3.9657,3.9185,3.881,3.8383,3.8352,3.8202,3.8202,3.8202,3.8202,3.7734,3.7337,3.5976,3.5019,3.4551,3.3894,3.3398,3.324,3.3167,3.3081,3.3081,3.3081,3.281,3.2077,3.1436,3.0418,2.9863,2.9235,2.868,2.7673,2.703,2.6658,2.611,2.5917,2.582,2.5732,2.5732,2.5732,2.5732,2.5732,2.5732,2.5635,2.5635,2.543,2.5323,2.5323,2.5323,2.5635,2.5118,2.4492,2.4599,2.4412,2.3701,2.3194,2.3094,2.2885,2.2391,2.1785,2.1089,2.0483,2.0078,1.9776,1.9376,1.9272,1.9272,4.9415,4.9415,4.9415,4.9384,4.9352,4.9027,4.889,4.8855,4.8855,4.8874,4.8855,4.882,4.8678,4.8383,4.8132,4.787,4.7536,4.7205,4.707,4.6998,4.6998,4.6998,4.6998,4.6998,4.6998,4.6998,4.6998,4.698,4.6934,4.6778,4.6525,4.6168,4.5442,4.5018,4.4451,4.3781,4.3174,4.2945,4.2759,4.2696,4.2696,4.265,4.2634,4.2571,4.2571,4.2571,4.2571,4.2429,4.2013,4.1642,4.1314,4.017,3.943,3.9038,3.8679,3.8412,3.8202,3.8202,3.8202,3.8202,3.8202,3.7886,3.7337,3.607,3.5182,3.462,3.4134,3.3654,3.3411,3.3253,3.3167,3.3167,3.3081,3.2537,3.2176,3.1524,3.1057,3.0508,2.9954,2.9223,2.8588,2.8038,2.7125,2.6658,2.6744,2.6648,2.6648,2.6284,2.6294,2.5742,2.5732,2.5732,2.5732,2.5732,2.5732,2.5732,2.5732,2.5732,2.5732,2.5314,2.543,2.5333,2.4815,2.4304,2.4196,2.389,2.3194,2.2693,2.219,2.1591,2.0979,2.0181,1.968,1.9376,1.9272,4.9525,4.9415,4.9415,4.9415,4.9384,4.927,4.9127,4.8925,4.889,4.889,4.889,4.889,4.8839,4.875,4.8439,4.8132,4.7829,4.7493,4.7205,4.707,4.6998,4.6998,4.6998,4.6998,4.6998,4.6998,4.6998,4.6998,4.698,4.6888,4.6842,4.6637,4.5953,4.5751,4.5214,4.4507,4.3722,4.3174,4.2945,4.2821,4.2759,4.2696,4.2696,4.2634,4.2634,4.2634,4.2634,4.2634,4.2301,4.2253,4.1706,4.1064,4.1621,4.0137,3.8972,3.8352,3.8202,3.8202,3.8202,3.8202,3.8202,3.8202,3.7886,3.7337,3.6373,3.5575,3.4924,3.4371,3.3894,3.3738,3.3411,3.324,3.3167,3.2896,3.2537,3.2251,3.1789,3.1424,3.0866,3.0237,2.9601,2.9039,2.8226,2.8132,2.8215,2.7934,2.7662,2.7305,2.6754,2.6197,2.5742,2.5732,2.5732,2.5732,2.5732,2.5732,2.5732,2.5732,2.5732,2.5732,2.5635,2.5528,2.543,2.5323,2.5011,2.4501,2.389,2.3493,2.3302,2.2593,2.1988,2.0885,1.9975,1.9776,1.9576,4.9702,4.9577,4.9577,4.9566,4.9525,4.9506,4.9352,4.9127,4.9113,4.9061,4.8993,4.8993,4.8978,4.882,4.855,4.8231,4.7951,4.7621,4.7294,4.7025,4.6998,4.6998,4.6998,4.6998,4.6998,4.6998,4.6998,4.6998,4.6998,4.6998,4.6998,4.6934,4.6495,4.6284,4.5852,4.5144,4.4339,4.3739,4.3295,4.3068,4.2945,4.2883,4.2805,4.2805,4.2805,4.2805,4.2759,4.2743,4.268,4.2601,4.2029,4.1866,4.1939,4.0231,3.9247,3.862,3.8352,3.8277,3.8202,3.8202,3.8202,3.8202,3.8202,3.7886,3.7337,3.661,3.5803,3.5087,3.462,3.4147,3.3738,3.3326,3.324,3.3081,3.2982,3.2797,3.2525,3.2251,3.1713,3.0979,3.0429,2.9954,2.9681,2.9681,2.9407,2.8947,2.8669,2.8484,2.7662,2.6744,2.611,2.5742,2.5732,2.5732,2.5732,2.583,2.583,2.5732,2.5732,2.5732,2.5732,2.5635,2.5635,2.5635,2.5625,2.5118,2.4609,2.4707,2.451,2.3701,2.3094,2.2291,2.1387,2.0585,2.0285,4.9879,4.9879,4.9879,4.9816,4.9721,4.9721,4.9615,4.9427,4.9446,4.9352,4.9244,4.9211,4.9113,4.8925,4.8695,4.8345,4.8053,4.7705,4.7363,4.7043,4.6998,4.6998,4.6998,4.6998,4.6998,4.6998,4.6998,4.6998,4.6998,4.6998,4.6998,4.698,4.659,4.6381,4.6266,4.5683,4.5037,4.4468,4.3798,4.3355,4.3174,4.3096,4.3096,4.3096,4.3035,4.3035,4.3052,4.2974,4.2834,4.2678,4.2537,4.2173,4.1213,4.047,3.9788,3.9103,3.8694,3.8412,3.8277,3.8202,3.8202,3.8202,3.8202,3.8127,3.7734,3.7414,3.6688,3.5883,3.5413,3.5019,3.4524,3.3882,3.3569,3.3411,3.324,3.3068,3.2896,3.2624,3.2339,3.1801,3.1613,3.1146,3.0789,3.0699,3.0878,3.0135,2.9681,2.9681,2.9028,2.784,2.702,2.638,2.6658,2.6648,2.6014,2.6014,2.5917,2.5917,2.5917,2.5732,2.5732,2.5732,2.5732,2.5732,2.5732,2.5732,2.543,2.5323,2.5118,2.4609,2.4097,2.3692,2.2894,2.1996,2.1285,4.9879,4.9879,4.9879,4.9898,4.9843,4.9843,4.9843,4.9769,4.9769,4.9625,4.9384,4.9352,4.9257,4.9094,4.9027,4.866,4.8093,4.7933,4.7518,4.716,4.6998,4.6998,4.6998,4.6998,4.6998,4.6998,4.6998,4.6998,4.6998,4.6998,4.6998,4.6998,4.6749,4.6731,4.6684,4.6151,4.57,4.5001,4.4468,4.3756,4.3355,4.3157,4.3096,4.3096,4.3096,4.3157,4.3096,4.3096,4.3003,4.2925,4.2867,4.2333,4.1494,4.1095,4.0416,3.952,3.916,3.8752,3.8397,3.8277,3.8202,3.8202,3.8202,3.8202,3.8127,3.7962,3.7567,3.6844,3.6281,3.5803,3.5318,3.4607,3.3979,3.3738,3.3581,3.3326,3.3167,3.2982,3.2884,3.2797,3.2624,3.2351,3.1901,3.1813,3.2077,3.1801,3.1347,3.0968,3.0586,2.967,2.8751,2.8204,2.8391,2.8215,2.721,2.6754,2.6839,2.6562,2.6466,2.6197,2.582,2.5917,2.6004,2.582,2.5732,2.5732,2.5732,2.5635,2.5421,2.5118,2.502,2.4609,2.451,2.371,2.2994,5.0258,4.9917,4.9879,4.9879,4.9879,4.9879,4.9879,4.9879,4.9879,4.9797,4.9625,4.9537,4.9464,4.9308,4.9276,4.8906,4.8269,4.8174,4.771,4.7294,4.7088,4.7043,4.7043,4.7025,4.6998,4.6998,4.6998,4.6998,4.6998,4.6998,4.6998,4.6998,4.6998,4.6998,4.6934,4.6637,4.6119,4.532,4.4947,4.4356,4.3595,4.3372,4.3295,4.3295,4.3295,4.3295,4.3295,4.3295,4.3218,4.3141,4.3052,4.2851,4.2237,4.182,4.1346,4.0591,3.9914,3.9233,3.8826,3.8472,3.8277,3.8202,3.8202,3.8202,3.8202,3.8052,3.8052,3.74,3.6844,3.636,3.6042,3.548,3.469,3.4217,3.3979,3.3738,3.3411,3.3081,3.2982,3.2982,3.2896,3.281,3.2537,3.2525,3.2711,3.2624,3.2264,3.2176,3.1789,3.1323,3.0485,2.9852,2.9943,2.9487,2.8495,2.8121,2.8215,2.7757,2.721,2.7115,2.702,2.6658,2.638,2.61,2.582,2.5732,2.5732,2.5732,2.5732,2.543,2.5528,2.5528,2.543,2.5226,2.451,5.0675,4.9936,4.9879,4.9879,4.9879,4.9879,4.9879,4.9879,4.9879,4.9879,4.9871,4.9759,4.9615,4.9495,4.9415,4.8937,4.8568,4.8346,4.7856,4.7363,4.7223,4.716,4.7116,4.707,4.707,4.707,4.7088,4.7043,4.7043,4.7043,4.6998,4.6998,4.6998,4.6998,4.6998,4.687,4.6411,4.5563,4.5037,4.4563,4.4047,4.3645,4.3568,4.3568,4.3645,4.3645,4.3568,4.3492,4.3449,4.3372,4.3235,4.3035,4.2834,4.2427,4.2078,4.1462,4.0727,4.0054,3.9433,3.8884,3.8546,3.8277,3.8202,3.8202,3.8202,3.8202,3.8202,3.7886,3.7323,3.7,3.6752,3.6281,3.5494,3.4855,3.462,3.423,3.3738,3.3326,3.3326,3.324,3.3167,3.3167,3.3154,3.3154,3.3154,3.3167,3.3167,3.3081,3.2896,3.2525,3.1877,3.1323,3.1146,3.0508,2.959,2.9487,2.9487,2.8947,2.8402,2.8308,2.8132,2.7757,2.7115,2.6284,2.61,2.61,2.582,2.5732,2.5732,2.5732,2.5732,2.5732,2.5635,2.5528,2.5625,5.0694,4.9898,4.9879,4.9879,4.9879,4.9879,4.9879,4.9879,4.9879,4.9879,4.9879,4.9871,4.9788,4.9615,4.9644,4.922,4.8568,4.8421,4.7959,4.7389,4.7294,4.7276,4.7232,4.7187,4.7214,4.7232,4.716,4.7178,4.7133,4.7043,4.6998,4.6998,4.6998,4.6998,4.6998,4.6824,4.6507,4.5734,4.5197,4.4783,4.3989,4.3628,4.3645,4.3645,4.3645,4.3645,4.3568,4.3568,4.3568,4.3492,4.3432,4.3295,4.3096,4.2958,4.2615,4.2269,4.1528,4.0863,4.0178,3.9505,3.9103,3.8486,3.8427,3.8277,3.8202,3.8202,3.8202,3.8202,3.781,3.781,3.7553,3.7078,3.6373,3.6042,3.5722,3.5019,3.4371,3.4134,3.3979,3.3725,3.3398,3.3398,3.3484,3.3484,3.3484,3.3398,3.3326,3.3326,3.3326,3.3154,3.3068,3.2624,3.2251,3.1347,3.0429,3.0765,3.0676,3.0135,2.9681,2.9498,2.9235,2.8855,2.8121,2.7295,2.6829,2.6744,2.6466,2.61,2.583,2.582,2.5732,2.5732,2.5732,2.5732,2.5732]}]]